<?xml version="1.0" encoding="UTF-8" standalone="no" ?>
<gpx xmlns="http://www.topografix.com/GPX/1/1" xmlns:xsi="http://www.w3.org/2001/XMLSchema-instance" xsi:schemaLocation="http://www.topografix.com/GPX/1/1 http://www.topografix.com/GPX/1/1/gpx.xsd" version="1.1" creator="VisuGPX - https://www.visugpx.com">
  <metadata>
    <name>Cadaques J13</name>
    <desc><![CDATA[File with points/tracks from Locus Map/4.25.1]]></desc>
  </metadata>
  <trk>
    <name><![CDATA[2024-09-28 réfugies]]></name>
    <extensions>
      <line xmlns="http://www.topografix.com/GPX/gpx_style/0/2">
        <color>0000FF</color>
        <opacity>0.70</opacity>
        <width>6.0</width>
      </line>
    </extensions>
    <trkseg>
      <trkpt lat="42.3567" lon="1.44834">
        <ele>691.98</ele>
        <time>2024-09-28T06:51:12.000Z</time>
      </trkpt>
      <trkpt lat="42.35668" lon="1.44821">
        <ele>694.62</ele>
        <time>2024-09-28T06:52:31.000Z</time>
      </trkpt>
      <trkpt lat="42.35664" lon="1.44809">
        <ele>695.27</ele>
        <time>2024-09-28T06:52:37.000Z</time>
      </trkpt>
      <trkpt lat="42.35663" lon="1.44796">
        <ele>695.86</ele>
        <time>2024-09-28T06:52:43.000Z</time>
      </trkpt>
      <trkpt lat="42.35667" lon="1.44784">
        <ele>696.4</ele>
        <time>2024-09-28T06:52:49.000Z</time>
      </trkpt>
      <trkpt lat="42.35672" lon="1.44773">
        <ele>696.91</ele>
        <time>2024-09-28T06:52:55.000Z</time>
      </trkpt>
      <trkpt lat="42.35677" lon="1.44762">
        <ele>697.37</ele>
        <time>2024-09-28T06:53:01.000Z</time>
      </trkpt>
      <trkpt lat="42.35682" lon="1.4475">
        <ele>697.81</ele>
        <time>2024-09-28T06:53:07.000Z</time>
      </trkpt>
      <trkpt lat="42.35687" lon="1.44739">
        <ele>698.3</ele>
        <time>2024-09-28T06:53:13.000Z</time>
      </trkpt>
      <trkpt lat="42.35693" lon="1.44728">
        <ele>698.84</ele>
        <time>2024-09-28T06:53:19.000Z</time>
      </trkpt>
      <trkpt lat="42.35697" lon="1.44718">
        <ele>699.41</ele>
        <time>2024-09-28T06:53:25.000Z</time>
      </trkpt>
      <trkpt lat="42.35701" lon="1.44705">
        <ele>700.1</ele>
        <time>2024-09-28T06:53:32.000Z</time>
      </trkpt>
      <trkpt lat="42.35703" lon="1.44691">
        <ele>700.69</ele>
        <time>2024-09-28T06:53:38.000Z</time>
      </trkpt>
      <trkpt lat="42.35703" lon="1.44677">
        <ele>701.24</ele>
        <time>2024-09-28T06:53:44.000Z</time>
      </trkpt>
      <trkpt lat="42.35703" lon="1.44665">
        <ele>701.71</ele>
        <time>2024-09-28T06:53:49.000Z</time>
      </trkpt>
      <trkpt lat="42.35701" lon="1.44652">
        <ele>702.15</ele>
        <time>2024-09-28T06:53:54.000Z</time>
      </trkpt>
      <trkpt lat="42.357" lon="1.44639">
        <ele>702.57</ele>
        <time>2024-09-28T06:53:59.000Z</time>
      </trkpt>
      <trkpt lat="42.35699" lon="1.44627">
        <ele>702.96</ele>
        <time>2024-09-28T06:54:04.000Z</time>
      </trkpt>
      <trkpt lat="42.35697" lon="1.44614">
        <ele>703.32</ele>
        <time>2024-09-28T06:54:09.000Z</time>
      </trkpt>
      <trkpt lat="42.35694" lon="1.44601">
        <ele>703.77</ele>
        <time>2024-09-28T06:54:16.000Z</time>
      </trkpt>
      <trkpt lat="42.35693" lon="1.44588">
        <ele>704.29</ele>
        <time>2024-09-28T06:54:24.000Z</time>
      </trkpt>
      <trkpt lat="42.35695" lon="1.44574">
        <ele>704.64</ele>
        <time>2024-09-28T06:54:29.000Z</time>
      </trkpt>
      <trkpt lat="42.35694" lon="1.44562">
        <ele>705.1</ele>
        <time>2024-09-28T06:54:35.000Z</time>
      </trkpt>
      <trkpt lat="42.35692" lon="1.44549">
        <ele>705.51</ele>
        <time>2024-09-28T06:54:41.000Z</time>
      </trkpt>
      <trkpt lat="42.35687" lon="1.44537">
        <ele>705.92</ele>
        <time>2024-09-28T06:54:48.000Z</time>
      </trkpt>
      <trkpt lat="42.35683" lon="1.44525">
        <ele>706.27</ele>
        <time>2024-09-28T06:54:55.000Z</time>
      </trkpt>
      <trkpt lat="42.35675" lon="1.44517">
        <ele>706.53</ele>
        <time>2024-09-28T06:55:01.000Z</time>
      </trkpt>
      <trkpt lat="42.35667" lon="1.44511">
        <ele>706.78</ele>
        <time>2024-09-28T06:55:07.000Z</time>
      </trkpt>
      <trkpt lat="42.35661" lon="1.44499">
        <ele>707.07</ele>
        <time>2024-09-28T06:55:14.000Z</time>
      </trkpt>
      <trkpt lat="42.35654" lon="1.44485">
        <ele>707.27</ele>
        <time>2024-09-28T06:55:19.000Z</time>
      </trkpt>
      <trkpt lat="42.35647" lon="1.44472">
        <ele>707.45</ele>
        <time>2024-09-28T06:55:24.000Z</time>
      </trkpt>
      <trkpt lat="42.35641" lon="1.44457">
        <ele>707.62</ele>
        <time>2024-09-28T06:55:29.000Z</time>
      </trkpt>
      <trkpt lat="42.35632" lon="1.44446">
        <ele>707.79</ele>
        <time>2024-09-28T06:55:34.000Z</time>
      </trkpt>
      <trkpt lat="42.35621" lon="1.44438">
        <ele>707.99</ele>
        <time>2024-09-28T06:55:39.999Z</time>
      </trkpt>
      <trkpt lat="42.35615" lon="1.44429">
        <ele>708.16</ele>
        <time>2024-09-28T06:55:45.999Z</time>
      </trkpt>
      <trkpt lat="42.35608" lon="1.4442">
        <ele>708.19</ele>
        <time>2024-09-28T06:55:53.999Z</time>
      </trkpt>
      <trkpt lat="42.35611" lon="1.44407">
        <ele>708.22</ele>
        <time>2024-09-28T06:55:59.999Z</time>
      </trkpt>
      <trkpt lat="42.35611" lon="1.44394">
        <ele>708.94</ele>
        <time>2024-09-28T06:56:25.999Z</time>
      </trkpt>
      <trkpt lat="42.35616" lon="1.44381">
        <ele>709.84</ele>
        <time>2024-09-28T06:56:30.999Z</time>
      </trkpt>
      <trkpt lat="42.3562" lon="1.44358">
        <ele>711.83</ele>
        <time>2024-09-28T06:56:35.999Z</time>
      </trkpt>
      <trkpt lat="42.35624" lon="1.44328">
        <ele>713.91</ele>
        <time>2024-09-28T06:56:40.999Z</time>
      </trkpt>
      <trkpt lat="42.35626" lon="1.44307">
        <ele>714.34</ele>
        <time>2024-09-28T06:56:45.999Z</time>
      </trkpt>
      <trkpt lat="42.35625" lon="1.44287">
        <ele>715.19</ele>
        <time>2024-09-28T06:56:50.999Z</time>
      </trkpt>
      <trkpt lat="42.35609" lon="1.44259">
        <ele>717.13</ele>
        <time>2024-09-28T06:56:55.999Z</time>
      </trkpt>
      <trkpt lat="42.35586" lon="1.44225">
        <ele>717.47</ele>
        <time>2024-09-28T06:57:00.999Z</time>
      </trkpt>
      <trkpt lat="42.35563" lon="1.44191">
        <ele>717.31</ele>
        <time>2024-09-28T06:57:05.999Z</time>
      </trkpt>
      <trkpt lat="42.3554" lon="1.44156">
        <ele>717.25</ele>
        <time>2024-09-28T06:57:10.999Z</time>
      </trkpt>
      <trkpt lat="42.35516" lon="1.44122">
        <ele>717.08</ele>
        <time>2024-09-28T06:57:15.999Z</time>
      </trkpt>
      <trkpt lat="42.35491" lon="1.44085">
        <ele>716.61</ele>
        <time>2024-09-28T06:57:20.999Z</time>
      </trkpt>
      <trkpt lat="42.35467" lon="1.44047">
        <ele>716.12</ele>
        <time>2024-09-28T06:57:25.999Z</time>
      </trkpt>
      <trkpt lat="42.35441" lon="1.44009">
        <ele>715.58</ele>
        <time>2024-09-28T06:57:30.999Z</time>
      </trkpt>
      <trkpt lat="42.35415" lon="1.43971">
        <ele>715.13</ele>
        <time>2024-09-28T06:57:35.999Z</time>
      </trkpt>
      <trkpt lat="42.35389" lon="1.43933">
        <ele>714.83</ele>
        <time>2024-09-28T06:57:40.999Z</time>
      </trkpt>
      <trkpt lat="42.35363" lon="1.43895">
        <ele>714.43</ele>
        <time>2024-09-28T06:57:45.999Z</time>
      </trkpt>
      <trkpt lat="42.35339" lon="1.43858">
        <ele>713.94</ele>
        <time>2024-09-28T06:57:50.999Z</time>
      </trkpt>
      <trkpt lat="42.35315" lon="1.43823">
        <ele>713.46</ele>
        <time>2024-09-28T06:57:55.999Z</time>
      </trkpt>
      <trkpt lat="42.35292" lon="1.43789">
        <ele>712.91</ele>
        <time>2024-09-28T06:58:00.999Z</time>
      </trkpt>
      <trkpt lat="42.35268" lon="1.43754">
        <ele>712.38</ele>
        <time>2024-09-28T06:58:05.999Z</time>
      </trkpt>
      <trkpt lat="42.35245" lon="1.4372">
        <ele>711.58</ele>
        <time>2024-09-28T06:58:10.999Z</time>
      </trkpt>
      <trkpt lat="42.35222" lon="1.43685">
        <ele>711.1</ele>
        <time>2024-09-28T06:58:15.999Z</time>
      </trkpt>
      <trkpt lat="42.35199" lon="1.4365">
        <ele>710.58</ele>
        <time>2024-09-28T06:58:20.999Z</time>
      </trkpt>
      <trkpt lat="42.35175" lon="1.43615">
        <ele>710.13</ele>
        <time>2024-09-28T06:58:25.999Z</time>
      </trkpt>
      <trkpt lat="42.35151" lon="1.4358">
        <ele>709.68</ele>
        <time>2024-09-28T06:58:30.999Z</time>
      </trkpt>
      <trkpt lat="42.35126" lon="1.43545">
        <ele>709.19</ele>
        <time>2024-09-28T06:58:35.999Z</time>
      </trkpt>
      <trkpt lat="42.35102" lon="1.43508">
        <ele>708.65</ele>
        <time>2024-09-28T06:58:40.999Z</time>
      </trkpt>
      <trkpt lat="42.35078" lon="1.43473">
        <ele>708.18</ele>
        <time>2024-09-28T06:58:45.999Z</time>
      </trkpt>
      <trkpt lat="42.35055" lon="1.43438">
        <ele>707.81</ele>
        <time>2024-09-28T06:58:50.999Z</time>
      </trkpt>
      <trkpt lat="42.35031" lon="1.43404">
        <ele>707.63</ele>
        <time>2024-09-28T06:58:55.999Z</time>
      </trkpt>
      <trkpt lat="42.35009" lon="1.4337">
        <ele>707.28</ele>
        <time>2024-09-28T06:59:00.999Z</time>
      </trkpt>
      <trkpt lat="42.34986" lon="1.43336">
        <ele>706.81</ele>
        <time>2024-09-28T06:59:05.999Z</time>
      </trkpt>
      <trkpt lat="42.34963" lon="1.43301">
        <ele>706.41</ele>
        <time>2024-09-28T06:59:10.999Z</time>
      </trkpt>
      <trkpt lat="42.34938" lon="1.43264">
        <ele>705.72</ele>
        <time>2024-09-28T06:59:15.999Z</time>
      </trkpt>
      <trkpt lat="42.34911" lon="1.43223">
        <ele>704.92</ele>
        <time>2024-09-28T06:59:20.999Z</time>
      </trkpt>
      <trkpt lat="42.34884" lon="1.43182">
        <ele>704.05</ele>
        <time>2024-09-28T06:59:25.999Z</time>
      </trkpt>
      <trkpt lat="42.34857" lon="1.43143">
        <ele>703.25</ele>
        <time>2024-09-28T06:59:30.999Z</time>
      </trkpt>
      <trkpt lat="42.34831" lon="1.43105">
        <ele>702.67</ele>
        <time>2024-09-28T06:59:35.999Z</time>
      </trkpt>
      <trkpt lat="42.34806" lon="1.4307">
        <ele>702.12</ele>
        <time>2024-09-28T06:59:40.999Z</time>
      </trkpt>
      <trkpt lat="42.34782" lon="1.43034">
        <ele>701.63</ele>
        <time>2024-09-28T06:59:45.999Z</time>
      </trkpt>
      <trkpt lat="42.34759" lon="1.42999">
        <ele>701.28</ele>
        <time>2024-09-28T06:59:50.999Z</time>
      </trkpt>
      <trkpt lat="42.34735" lon="1.42964">
        <ele>701.07</ele>
        <time>2024-09-28T06:59:55.999Z</time>
      </trkpt>
      <trkpt lat="42.34712" lon="1.42929">
        <ele>700.84</ele>
        <time>2024-09-28T07:00:00.999Z</time>
      </trkpt>
      <trkpt lat="42.3469" lon="1.42896">
        <ele>700.55</ele>
        <time>2024-09-28T07:00:05.999Z</time>
      </trkpt>
      <trkpt lat="42.34669" lon="1.42866">
        <ele>700.39</ele>
        <time>2024-09-28T07:00:10.999Z</time>
      </trkpt>
      <trkpt lat="42.34648" lon="1.42835">
        <ele>700.53</ele>
        <time>2024-09-28T07:00:15.999Z</time>
      </trkpt>
      <trkpt lat="42.34629" lon="1.42806">
        <ele>700.47</ele>
        <time>2024-09-28T07:00:20.999Z</time>
      </trkpt>
      <trkpt lat="42.34612" lon="1.42778">
        <ele>700.47</ele>
        <time>2024-09-28T07:00:25.999Z</time>
      </trkpt>
      <trkpt lat="42.34597" lon="1.42754">
        <ele>700.01</ele>
        <time>2024-09-28T07:00:30.999Z</time>
      </trkpt>
      <trkpt lat="42.34581" lon="1.42729">
        <ele>699.58</ele>
        <time>2024-09-28T07:00:35.999Z</time>
      </trkpt>
      <trkpt lat="42.34562" lon="1.42704">
        <ele>699.47</ele>
        <time>2024-09-28T07:00:40.999Z</time>
      </trkpt>
      <trkpt lat="42.34544" lon="1.42679">
        <ele>698.98</ele>
        <time>2024-09-28T07:00:45.999Z</time>
      </trkpt>
      <trkpt lat="42.34526" lon="1.42652">
        <ele>698.41</ele>
        <time>2024-09-28T07:00:50.999Z</time>
      </trkpt>
      <trkpt lat="42.34507" lon="1.42625">
        <ele>698.02</ele>
        <time>2024-09-28T07:00:55.999Z</time>
      </trkpt>
      <trkpt lat="42.34489" lon="1.42597">
        <ele>697.53</ele>
        <time>2024-09-28T07:01:00.999Z</time>
      </trkpt>
      <trkpt lat="42.3447" lon="1.4257">
        <ele>697.33</ele>
        <time>2024-09-28T07:01:05.999Z</time>
      </trkpt>
      <trkpt lat="42.3445" lon="1.42542">
        <ele>697.23</ele>
        <time>2024-09-28T07:01:10.999Z</time>
      </trkpt>
      <trkpt lat="42.34432" lon="1.42513">
        <ele>697.07</ele>
        <time>2024-09-28T07:01:15.999Z</time>
      </trkpt>
      <trkpt lat="42.34413" lon="1.42483">
        <ele>696.79</ele>
        <time>2024-09-28T07:01:20.999Z</time>
      </trkpt>
      <trkpt lat="42.34394" lon="1.42453">
        <ele>696.48</ele>
        <time>2024-09-28T07:01:25.999Z</time>
      </trkpt>
      <trkpt lat="42.34374" lon="1.42422">
        <ele>696.19</ele>
        <time>2024-09-28T07:01:30.999Z</time>
      </trkpt>
      <trkpt lat="42.34353" lon="1.42391">
        <ele>696.1</ele>
        <time>2024-09-28T07:01:35.999Z</time>
      </trkpt>
      <trkpt lat="42.34332" lon="1.42361">
        <ele>696.11</ele>
        <time>2024-09-28T07:01:40.999Z</time>
      </trkpt>
      <trkpt lat="42.34311" lon="1.4233">
        <ele>696.26</ele>
        <time>2024-09-28T07:01:45.999Z</time>
      </trkpt>
      <trkpt lat="42.34291" lon="1.42299">
        <ele>696.33</ele>
        <time>2024-09-28T07:01:50.999Z</time>
      </trkpt>
      <trkpt lat="42.34272" lon="1.42269">
        <ele>696.17</ele>
        <time>2024-09-28T07:01:55.999Z</time>
      </trkpt>
      <trkpt lat="42.34251" lon="1.42238">
        <ele>696.04</ele>
        <time>2024-09-28T07:02:00.999Z</time>
      </trkpt>
      <trkpt lat="42.34229" lon="1.42206">
        <ele>695.82</ele>
        <time>2024-09-28T07:02:05.999Z</time>
      </trkpt>
      <trkpt lat="42.34206" lon="1.42172">
        <ele>695.64</ele>
        <time>2024-09-28T07:02:10.999Z</time>
      </trkpt>
      <trkpt lat="42.34187" lon="1.42142">
        <ele>695.37</ele>
        <time>2024-09-28T07:02:15.999Z</time>
      </trkpt>
      <trkpt lat="42.34167" lon="1.42132">
        <ele>695.12</ele>
        <time>2024-09-28T07:02:20.999Z</time>
      </trkpt>
      <trkpt lat="42.34167" lon="1.42145">
        <ele>695.16</ele>
        <time>2024-09-28T07:02:26.999Z</time>
      </trkpt>
      <trkpt lat="42.34174" lon="1.42153">
        <ele>695.31</ele>
        <time>2024-09-28T07:02:33.999Z</time>
      </trkpt>
      <trkpt lat="42.34177" lon="1.42166">
        <ele>695.32</ele>
        <time>2024-09-28T07:03:52.999Z</time>
      </trkpt>
      <trkpt lat="42.34187" lon="1.42183">
        <ele>695.27</ele>
        <time>2024-09-28T07:03:57.999Z</time>
      </trkpt>
      <trkpt lat="42.34195" lon="1.42196">
        <ele>695.22</ele>
        <time>2024-09-28T07:04:02.999Z</time>
      </trkpt>
      <trkpt lat="42.34204" lon="1.42208">
        <ele>695.2</ele>
        <time>2024-09-28T07:04:07.999Z</time>
      </trkpt>
      <trkpt lat="42.34212" lon="1.42221">
        <ele>695.18</ele>
        <time>2024-09-28T07:04:12.999Z</time>
      </trkpt>
      <trkpt lat="42.3422" lon="1.42235">
        <ele>695.16</ele>
        <time>2024-09-28T07:04:17.999Z</time>
      </trkpt>
      <trkpt lat="42.34231" lon="1.42251">
        <ele>695.14</ele>
        <time>2024-09-28T07:04:22.999Z</time>
      </trkpt>
      <trkpt lat="42.34242" lon="1.42274">
        <ele>694.98</ele>
        <time>2024-09-28T07:04:27.999Z</time>
      </trkpt>
      <trkpt lat="42.34245" lon="1.42301">
        <ele>694.86</ele>
        <time>2024-09-28T07:04:32.999Z</time>
      </trkpt>
      <trkpt lat="42.34239" lon="1.42315">
        <ele>694.78</ele>
        <time>2024-09-28T07:04:37.999Z</time>
      </trkpt>
      <trkpt lat="42.34229" lon="1.42328">
        <ele>694.66</ele>
        <time>2024-09-28T07:04:42.999Z</time>
      </trkpt>
      <trkpt lat="42.34212" lon="1.42329">
        <ele>694.52</ele>
        <time>2024-09-28T07:04:47.999Z</time>
      </trkpt>
      <trkpt lat="42.34202" lon="1.42331">
        <ele>694.39</ele>
        <time>2024-09-28T07:04:52.999Z</time>
      </trkpt>
      <trkpt lat="42.34211" lon="1.42326">
        <ele>695.48</ele>
        <time>2024-09-28T07:14:25.000Z</time>
      </trkpt>
      <trkpt lat="42.34223" lon="1.42328">
        <ele>695.6</ele>
        <time>2024-09-28T07:14:30.000Z</time>
      </trkpt>
      <trkpt lat="42.34235" lon="1.42322">
        <ele>695.71</ele>
        <time>2024-09-28T07:14:35.000Z</time>
      </trkpt>
      <trkpt lat="42.34247" lon="1.42308">
        <ele>696.05</ele>
        <time>2024-09-28T07:14:40.000Z</time>
      </trkpt>
      <trkpt lat="42.34264" lon="1.4229">
        <ele>696.43</ele>
        <time>2024-09-28T07:14:45.000Z</time>
      </trkpt>
      <trkpt lat="42.34276" lon="1.42273">
        <ele>696.46</ele>
        <time>2024-09-28T07:14:50.000Z</time>
      </trkpt>
      <trkpt lat="42.34282" lon="1.42259">
        <ele>696.47</ele>
        <time>2024-09-28T07:14:55.000Z</time>
      </trkpt>
      <trkpt lat="42.34276" lon="1.42248">
        <ele>696.49</ele>
        <time>2024-09-28T07:15:11.000Z</time>
      </trkpt>
      <trkpt lat="42.34266" lon="1.42235">
        <ele>696.47</ele>
        <time>2024-09-28T07:15:16.000Z</time>
      </trkpt>
      <trkpt lat="42.34256" lon="1.42221">
        <ele>696.44</ele>
        <time>2024-09-28T07:15:21.000Z</time>
      </trkpt>
      <trkpt lat="42.34245" lon="1.42207">
        <ele>696.39</ele>
        <time>2024-09-28T07:15:26.000Z</time>
      </trkpt>
      <trkpt lat="42.34233" lon="1.42191">
        <ele>696.33</ele>
        <time>2024-09-28T07:15:31.000Z</time>
      </trkpt>
      <trkpt lat="42.34219" lon="1.42173">
        <ele>695.73</ele>
        <time>2024-09-28T07:15:36.000Z</time>
      </trkpt>
      <trkpt lat="42.34203" lon="1.42151">
        <ele>695.36</ele>
        <time>2024-09-28T07:15:41.000Z</time>
      </trkpt>
      <trkpt lat="42.34184" lon="1.42124">
        <ele>695.04</ele>
        <time>2024-09-28T07:15:46.000Z</time>
      </trkpt>
      <trkpt lat="42.34162" lon="1.42093">
        <ele>694.67</ele>
        <time>2024-09-28T07:15:51.000Z</time>
      </trkpt>
      <trkpt lat="42.34137" lon="1.42059">
        <ele>694.12</ele>
        <time>2024-09-28T07:15:56.000Z</time>
      </trkpt>
      <trkpt lat="42.3411" lon="1.42024">
        <ele>693.5</ele>
        <time>2024-09-28T07:16:01.000Z</time>
      </trkpt>
      <trkpt lat="42.34083" lon="1.41987">
        <ele>692.89</ele>
        <time>2024-09-28T07:16:06.000Z</time>
      </trkpt>
      <trkpt lat="42.34057" lon="1.41951">
        <ele>692.25</ele>
        <time>2024-09-28T07:16:11.000Z</time>
      </trkpt>
      <trkpt lat="42.34032" lon="1.41916">
        <ele>691.6</ele>
        <time>2024-09-28T07:16:16.000Z</time>
      </trkpt>
      <trkpt lat="42.34009" lon="1.41882">
        <ele>690.86</ele>
        <time>2024-09-28T07:16:21.000Z</time>
      </trkpt>
      <trkpt lat="42.33987" lon="1.41849">
        <ele>690.16</ele>
        <time>2024-09-28T07:16:26.000Z</time>
      </trkpt>
      <trkpt lat="42.33965" lon="1.41817">
        <ele>689.6</ele>
        <time>2024-09-28T07:16:31.000Z</time>
      </trkpt>
      <trkpt lat="42.33943" lon="1.41784">
        <ele>688.88</ele>
        <time>2024-09-28T07:16:36.000Z</time>
      </trkpt>
      <trkpt lat="42.3392" lon="1.4175">
        <ele>688.17</ele>
        <time>2024-09-28T07:16:41.000Z</time>
      </trkpt>
      <trkpt lat="42.33898" lon="1.41716">
        <ele>687.31</ele>
        <time>2024-09-28T07:16:46.000Z</time>
      </trkpt>
      <trkpt lat="42.33875" lon="1.41683">
        <ele>686.53</ele>
        <time>2024-09-28T07:16:51.000Z</time>
      </trkpt>
      <trkpt lat="42.33852" lon="1.41649">
        <ele>685.77</ele>
        <time>2024-09-28T07:16:56.000Z</time>
      </trkpt>
      <trkpt lat="42.3383" lon="1.41616">
        <ele>684.95</ele>
        <time>2024-09-28T07:17:01.000Z</time>
      </trkpt>
      <trkpt lat="42.33807" lon="1.41582">
        <ele>684.19</ele>
        <time>2024-09-28T07:17:06.000Z</time>
      </trkpt>
      <trkpt lat="42.33785" lon="1.41548">
        <ele>683.58</ele>
        <time>2024-09-28T07:17:11.000Z</time>
      </trkpt>
      <trkpt lat="42.33764" lon="1.41518">
        <ele>682.96</ele>
        <time>2024-09-28T07:17:16.000Z</time>
      </trkpt>
      <trkpt lat="42.33744" lon="1.41488">
        <ele>682.25</ele>
        <time>2024-09-28T07:17:21.000Z</time>
      </trkpt>
      <trkpt lat="42.33724" lon="1.41458">
        <ele>681.55</ele>
        <time>2024-09-28T07:17:26.000Z</time>
      </trkpt>
      <trkpt lat="42.33703" lon="1.41429">
        <ele>680.92</ele>
        <time>2024-09-28T07:17:31.000Z</time>
      </trkpt>
      <trkpt lat="42.33683" lon="1.41398">
        <ele>680.36</ele>
        <time>2024-09-28T07:17:36.000Z</time>
      </trkpt>
      <trkpt lat="42.33662" lon="1.41368">
        <ele>679.88</ele>
        <time>2024-09-28T07:17:41.000Z</time>
      </trkpt>
      <trkpt lat="42.33642" lon="1.41338">
        <ele>679.26</ele>
        <time>2024-09-28T07:17:46.000Z</time>
      </trkpt>
      <trkpt lat="42.33622" lon="1.41307">
        <ele>678.57</ele>
        <time>2024-09-28T07:17:51.000Z</time>
      </trkpt>
      <trkpt lat="42.336" lon="1.41277">
        <ele>677.99</ele>
        <time>2024-09-28T07:17:56.000Z</time>
      </trkpt>
      <trkpt lat="42.3358" lon="1.41246">
        <ele>677.34</ele>
        <time>2024-09-28T07:18:01.000Z</time>
      </trkpt>
      <trkpt lat="42.33559" lon="1.41215">
        <ele>676.81</ele>
        <time>2024-09-28T07:18:06.000Z</time>
      </trkpt>
      <trkpt lat="42.33539" lon="1.41186">
        <ele>676.26</ele>
        <time>2024-09-28T07:18:11.000Z</time>
      </trkpt>
      <trkpt lat="42.3352" lon="1.41156">
        <ele>675.88</ele>
        <time>2024-09-28T07:18:16.000Z</time>
      </trkpt>
      <trkpt lat="42.33501" lon="1.41128">
        <ele>675.53</ele>
        <time>2024-09-28T07:18:21.000Z</time>
      </trkpt>
      <trkpt lat="42.33482" lon="1.41099">
        <ele>675.13</ele>
        <time>2024-09-28T07:18:26.000Z</time>
      </trkpt>
      <trkpt lat="42.33462" lon="1.4107">
        <ele>674.71</ele>
        <time>2024-09-28T07:18:31.000Z</time>
      </trkpt>
      <trkpt lat="42.33442" lon="1.4104">
        <ele>674.17</ele>
        <time>2024-09-28T07:18:36.000Z</time>
      </trkpt>
      <trkpt lat="42.33421" lon="1.41009">
        <ele>673.67</ele>
        <time>2024-09-28T07:18:41.000Z</time>
      </trkpt>
      <trkpt lat="42.334" lon="1.40978">
        <ele>673.23</ele>
        <time>2024-09-28T07:18:46.000Z</time>
      </trkpt>
      <trkpt lat="42.33379" lon="1.40947">
        <ele>672.69</ele>
        <time>2024-09-28T07:18:51.000Z</time>
      </trkpt>
      <trkpt lat="42.33358" lon="1.40915">
        <ele>672.21</ele>
        <time>2024-09-28T07:18:56.000Z</time>
      </trkpt>
      <trkpt lat="42.33337" lon="1.40884">
        <ele>671.63</ele>
        <time>2024-09-28T07:19:01.000Z</time>
      </trkpt>
      <trkpt lat="42.33316" lon="1.40853">
        <ele>671.25</ele>
        <time>2024-09-28T07:19:06.000Z</time>
      </trkpt>
      <trkpt lat="42.33295" lon="1.40823">
        <ele>670.89</ele>
        <time>2024-09-28T07:19:11.000Z</time>
      </trkpt>
      <trkpt lat="42.33275" lon="1.40792">
        <ele>670.46</ele>
        <time>2024-09-28T07:19:16.000Z</time>
      </trkpt>
      <trkpt lat="42.33254" lon="1.40762">
        <ele>670.03</ele>
        <time>2024-09-28T07:19:21.000Z</time>
      </trkpt>
      <trkpt lat="42.33232" lon="1.40732">
        <ele>669.72</ele>
        <time>2024-09-28T07:19:26.000Z</time>
      </trkpt>
      <trkpt lat="42.33208" lon="1.40703">
        <ele>669.43</ele>
        <time>2024-09-28T07:19:31.000Z</time>
      </trkpt>
      <trkpt lat="42.33183" lon="1.40674">
        <ele>668.91</ele>
        <time>2024-09-28T07:19:36.000Z</time>
      </trkpt>
      <trkpt lat="42.33156" lon="1.40644">
        <ele>668.49</ele>
        <time>2024-09-28T07:19:41.000Z</time>
      </trkpt>
      <trkpt lat="42.33128" lon="1.40614">
        <ele>668.33</ele>
        <time>2024-09-28T07:19:46.000Z</time>
      </trkpt>
      <trkpt lat="42.33099" lon="1.40583">
        <ele>668.3</ele>
        <time>2024-09-28T07:19:51.000Z</time>
      </trkpt>
      <trkpt lat="42.33071" lon="1.40551">
        <ele>668.23</ele>
        <time>2024-09-28T07:19:56.000Z</time>
      </trkpt>
      <trkpt lat="42.33041" lon="1.40517">
        <ele>668.13</ele>
        <time>2024-09-28T07:20:01.000Z</time>
      </trkpt>
      <trkpt lat="42.33009" lon="1.40481">
        <ele>667.98</ele>
        <time>2024-09-28T07:20:06.000Z</time>
      </trkpt>
      <trkpt lat="42.32977" lon="1.40446">
        <ele>667.7</ele>
        <time>2024-09-28T07:20:11.000Z</time>
      </trkpt>
      <trkpt lat="42.32945" lon="1.4041">
        <ele>667.16</ele>
        <time>2024-09-28T07:20:16.000Z</time>
      </trkpt>
      <trkpt lat="42.32914" lon="1.40375">
        <ele>666.82</ele>
        <time>2024-09-28T07:20:21.000Z</time>
      </trkpt>
      <trkpt lat="42.32883" lon="1.4034">
        <ele>666.41</ele>
        <time>2024-09-28T07:20:26.000Z</time>
      </trkpt>
      <trkpt lat="42.32851" lon="1.40305">
        <ele>665.77</ele>
        <time>2024-09-28T07:20:31.000Z</time>
      </trkpt>
      <trkpt lat="42.32818" lon="1.40267">
        <ele>664.95</ele>
        <time>2024-09-28T07:20:36.000Z</time>
      </trkpt>
      <trkpt lat="42.32782" lon="1.40227">
        <ele>663.9</ele>
        <time>2024-09-28T07:20:41.000Z</time>
      </trkpt>
      <trkpt lat="42.32747" lon="1.40188">
        <ele>663.33</ele>
        <time>2024-09-28T07:20:46.000Z</time>
      </trkpt>
      <trkpt lat="42.32715" lon="1.4015">
        <ele>662.81</ele>
        <time>2024-09-28T07:20:51.000Z</time>
      </trkpt>
      <trkpt lat="42.32692" lon="1.40108">
        <ele>662.1</ele>
        <time>2024-09-28T07:20:56.000Z</time>
      </trkpt>
      <trkpt lat="42.32669" lon="1.40068">
        <ele>661.34</ele>
        <time>2024-09-28T07:21:01.000Z</time>
      </trkpt>
      <trkpt lat="42.32647" lon="1.40029">
        <ele>660.37</ele>
        <time>2024-09-28T07:21:06.000Z</time>
      </trkpt>
      <trkpt lat="42.32626" lon="1.39988">
        <ele>659.04</ele>
        <time>2024-09-28T07:21:11.000Z</time>
      </trkpt>
      <trkpt lat="42.32609" lon="1.39942">
        <ele>657.75</ele>
        <time>2024-09-28T07:21:16.000Z</time>
      </trkpt>
      <trkpt lat="42.32608" lon="1.39893">
        <ele>657.09</ele>
        <time>2024-09-28T07:21:21.000Z</time>
      </trkpt>
      <trkpt lat="42.32602" lon="1.39846">
        <ele>656.38</ele>
        <time>2024-09-28T07:21:26.999Z</time>
      </trkpt>
      <trkpt lat="42.32598" lon="1.39827">
        <ele>656.28</ele>
        <time>2024-09-28T07:21:31.999Z</time>
      </trkpt>
      <trkpt lat="42.32597" lon="1.39814">
        <ele>654.52</ele>
        <time>2024-09-28T07:22:34.999Z</time>
      </trkpt>
      <trkpt lat="42.32593" lon="1.39797">
        <ele>653.99</ele>
        <time>2024-09-28T07:22:39.999Z</time>
      </trkpt>
      <trkpt lat="42.32589" lon="1.39776">
        <ele>653.53</ele>
        <time>2024-09-28T07:22:44.999Z</time>
      </trkpt>
      <trkpt lat="42.32585" lon="1.3975">
        <ele>651.49</ele>
        <time>2024-09-28T07:22:49.999Z</time>
      </trkpt>
      <trkpt lat="42.32581" lon="1.39721">
        <ele>650.03</ele>
        <time>2024-09-28T07:22:54.999Z</time>
      </trkpt>
      <trkpt lat="42.32577" lon="1.39687">
        <ele>649.57</ele>
        <time>2024-09-28T07:22:59.999Z</time>
      </trkpt>
      <trkpt lat="42.32573" lon="1.39653">
        <ele>649.45</ele>
        <time>2024-09-28T07:23:04.999Z</time>
      </trkpt>
      <trkpt lat="42.32569" lon="1.39622">
        <ele>649.45</ele>
        <time>2024-09-28T07:23:09.999Z</time>
      </trkpt>
      <trkpt lat="42.32566" lon="1.39593">
        <ele>649.51</ele>
        <time>2024-09-28T07:23:14.999Z</time>
      </trkpt>
      <trkpt lat="42.32562" lon="1.39562">
        <ele>649.61</ele>
        <time>2024-09-28T07:23:19.999Z</time>
      </trkpt>
      <trkpt lat="42.3256" lon="1.39531">
        <ele>649.67</ele>
        <time>2024-09-28T07:23:24.999Z</time>
      </trkpt>
      <trkpt lat="42.32559" lon="1.39501">
        <ele>649.79</ele>
        <time>2024-09-28T07:23:29.999Z</time>
      </trkpt>
      <trkpt lat="42.32563" lon="1.39474">
        <ele>649.9</ele>
        <time>2024-09-28T07:23:34.999Z</time>
      </trkpt>
      <trkpt lat="42.32569" lon="1.39449">
        <ele>650.06</ele>
        <time>2024-09-28T07:23:39.999Z</time>
      </trkpt>
      <trkpt lat="42.32577" lon="1.39423">
        <ele>650.12</ele>
        <time>2024-09-28T07:23:44.999Z</time>
      </trkpt>
      <trkpt lat="42.32585" lon="1.39396">
        <ele>650.1</ele>
        <time>2024-09-28T07:23:49.999Z</time>
      </trkpt>
      <trkpt lat="42.32595" lon="1.39366">
        <ele>650.03</ele>
        <time>2024-09-28T07:23:54.999Z</time>
      </trkpt>
      <trkpt lat="42.32604" lon="1.39335">
        <ele>649.96</ele>
        <time>2024-09-28T07:23:59.999Z</time>
      </trkpt>
      <trkpt lat="42.32614" lon="1.39302">
        <ele>649.83</ele>
        <time>2024-09-28T07:24:04.999Z</time>
      </trkpt>
      <trkpt lat="42.32625" lon="1.39268">
        <ele>649.65</ele>
        <time>2024-09-28T07:24:09.999Z</time>
      </trkpt>
      <trkpt lat="42.32635" lon="1.39239">
        <ele>649.45</ele>
        <time>2024-09-28T07:24:14.999Z</time>
      </trkpt>
      <trkpt lat="42.32645" lon="1.39209">
        <ele>649.32</ele>
        <time>2024-09-28T07:24:19.999Z</time>
      </trkpt>
      <trkpt lat="42.32653" lon="1.39184">
        <ele>649.26</ele>
        <time>2024-09-28T07:24:24.999Z</time>
      </trkpt>
      <trkpt lat="42.32663" lon="1.39159">
        <ele>649.22</ele>
        <time>2024-09-28T07:24:29.999Z</time>
      </trkpt>
      <trkpt lat="42.32675" lon="1.39137">
        <ele>649.23</ele>
        <time>2024-09-28T07:24:34.999Z</time>
      </trkpt>
      <trkpt lat="42.32685" lon="1.39118">
        <ele>649.24</ele>
        <time>2024-09-28T07:24:39.999Z</time>
      </trkpt>
      <trkpt lat="42.32697" lon="1.391">
        <ele>649.24</ele>
        <time>2024-09-28T07:24:44.999Z</time>
      </trkpt>
      <trkpt lat="42.32711" lon="1.39083">
        <ele>649.24</ele>
        <time>2024-09-28T07:24:49.999Z</time>
      </trkpt>
      <trkpt lat="42.32726" lon="1.39068">
        <ele>649.24</ele>
        <time>2024-09-28T07:24:54.999Z</time>
      </trkpt>
      <trkpt lat="42.3274" lon="1.39052">
        <ele>649.32</ele>
        <time>2024-09-28T07:24:59.999Z</time>
      </trkpt>
      <trkpt lat="42.32759" lon="1.39041">
        <ele>649.55</ele>
        <time>2024-09-28T07:25:04.999Z</time>
      </trkpt>
      <trkpt lat="42.32777" lon="1.39032">
        <ele>649.67</ele>
        <time>2024-09-28T07:25:09.999Z</time>
      </trkpt>
      <trkpt lat="42.32794" lon="1.39025">
        <ele>649.68</ele>
        <time>2024-09-28T07:25:14.999Z</time>
      </trkpt>
      <trkpt lat="42.3281" lon="1.39019">
        <ele>649.68</ele>
        <time>2024-09-28T07:25:19.999Z</time>
      </trkpt>
      <trkpt lat="42.32826" lon="1.39016">
        <ele>649.69</ele>
        <time>2024-09-28T07:25:24.999Z</time>
      </trkpt>
      <trkpt lat="42.32837" lon="1.39015">
        <ele>649.69</ele>
        <time>2024-09-28T07:25:29.999Z</time>
      </trkpt>
      <trkpt lat="42.32847" lon="1.39015">
        <ele>649.68</ele>
        <time>2024-09-28T07:25:34.999Z</time>
      </trkpt>
      <trkpt lat="42.32857" lon="1.39015">
        <ele>649.67</ele>
        <time>2024-09-28T07:25:39.999Z</time>
      </trkpt>
      <trkpt lat="42.32867" lon="1.39015">
        <ele>649.67</ele>
        <time>2024-09-28T07:25:44.999Z</time>
      </trkpt>
      <trkpt lat="42.32878" lon="1.39017">
        <ele>649.66</ele>
        <time>2024-09-28T07:25:50.999Z</time>
      </trkpt>
      <trkpt lat="42.32887" lon="1.39018">
        <ele>649.66</ele>
        <time>2024-09-28T07:25:55.999Z</time>
      </trkpt>
      <trkpt lat="42.32897" lon="1.3902">
        <ele>649.68</ele>
        <time>2024-09-28T07:26:01.999Z</time>
      </trkpt>
      <trkpt lat="42.32907" lon="1.39022">
        <ele>649.7</ele>
        <time>2024-09-28T07:26:06.999Z</time>
      </trkpt>
      <trkpt lat="42.32917" lon="1.39024">
        <ele>649.73</ele>
        <time>2024-09-28T07:26:12.999Z</time>
      </trkpt>
      <trkpt lat="42.32926" lon="1.39027">
        <ele>649.77</ele>
        <time>2024-09-28T07:26:17.999Z</time>
      </trkpt>
      <trkpt lat="42.32935" lon="1.39029">
        <ele>649.83</ele>
        <time>2024-09-28T07:26:23.999Z</time>
      </trkpt>
      <trkpt lat="42.32945" lon="1.39032">
        <ele>649.91</ele>
        <time>2024-09-28T07:26:29.999Z</time>
      </trkpt>
      <trkpt lat="42.32955" lon="1.39034">
        <ele>650</ele>
        <time>2024-09-28T07:26:35.999Z</time>
      </trkpt>
      <trkpt lat="42.32964" lon="1.39035">
        <ele>650.15</ele>
        <time>2024-09-28T07:26:42.999Z</time>
      </trkpt>
      <trkpt lat="42.32973" lon="1.3903">
        <ele>650.37</ele>
        <time>2024-09-28T07:26:50.999Z</time>
      </trkpt>
      <trkpt lat="42.3298" lon="1.39019">
        <ele>650.6</ele>
        <time>2024-09-28T07:26:58.999Z</time>
      </trkpt>
      <trkpt lat="42.32984" lon="1.39008">
        <ele>650.84</ele>
        <time>2024-09-28T07:27:05.999Z</time>
      </trkpt>
      <trkpt lat="42.32989" lon="1.38996">
        <ele>651.18</ele>
        <time>2024-09-28T07:27:13.999Z</time>
      </trkpt>
      <trkpt lat="42.32992" lon="1.38984">
        <ele>651.5</ele>
        <time>2024-09-28T07:27:20.999Z</time>
      </trkpt>
      <trkpt lat="42.32997" lon="1.38972">
        <ele>651.91</ele>
        <time>2024-09-28T07:27:28.999Z</time>
      </trkpt>
      <trkpt lat="42.33001" lon="1.38961">
        <ele>652.34</ele>
        <time>2024-09-28T07:27:36.999Z</time>
      </trkpt>
      <trkpt lat="42.33004" lon="1.38947">
        <ele>652.79</ele>
        <time>2024-09-28T07:27:44.999Z</time>
      </trkpt>
      <trkpt lat="42.33007" lon="1.38935">
        <ele>653.2</ele>
        <time>2024-09-28T07:27:51.999Z</time>
      </trkpt>
      <trkpt lat="42.33007" lon="1.38923">
        <ele>653.63</ele>
        <time>2024-09-28T07:27:58.999Z</time>
      </trkpt>
      <trkpt lat="42.33005" lon="1.3891">
        <ele>654.03</ele>
        <time>2024-09-28T07:28:04.999Z</time>
      </trkpt>
      <trkpt lat="42.33002" lon="1.38898">
        <ele>654.5</ele>
        <time>2024-09-28T07:28:11.999Z</time>
      </trkpt>
      <trkpt lat="42.32994" lon="1.3889">
        <ele>655</ele>
        <time>2024-09-28T07:28:18.999Z</time>
      </trkpt>
      <trkpt lat="42.32985" lon="1.38887">
        <ele>655.55</ele>
        <time>2024-09-28T07:28:25.999Z</time>
      </trkpt>
      <trkpt lat="42.32977" lon="1.38893">
        <ele>656.01</ele>
        <time>2024-09-28T07:28:31.999Z</time>
      </trkpt>
      <trkpt lat="42.32971" lon="1.38906">
        <ele>656.47</ele>
        <time>2024-09-28T07:28:37.999Z</time>
      </trkpt>
      <trkpt lat="42.3297" lon="1.38919">
        <ele>656.9</ele>
        <time>2024-09-28T07:28:42.999Z</time>
      </trkpt>
      <trkpt lat="42.32968" lon="1.38932">
        <ele>657.52</ele>
        <time>2024-09-28T07:28:48.999Z</time>
      </trkpt>
      <trkpt lat="42.32967" lon="1.38946">
        <ele>658.33</ele>
        <time>2024-09-28T07:28:55.999Z</time>
      </trkpt>
      <trkpt lat="42.32961" lon="1.38957">
        <ele>659.18</ele>
        <time>2024-09-28T07:29:02.999Z</time>
      </trkpt>
      <trkpt lat="42.32953" lon="1.38961">
        <ele>659.89</ele>
        <time>2024-09-28T07:29:08.999Z</time>
      </trkpt>
      <trkpt lat="42.32943" lon="1.38959">
        <ele>660.61</ele>
        <time>2024-09-28T07:29:14.999Z</time>
      </trkpt>
      <trkpt lat="42.32936" lon="1.38951">
        <ele>661.34</ele>
        <time>2024-09-28T07:29:20.999Z</time>
      </trkpt>
      <trkpt lat="42.3293" lon="1.3894">
        <ele>662.16</ele>
        <time>2024-09-28T07:29:27.999Z</time>
      </trkpt>
      <trkpt lat="42.32924" lon="1.38929">
        <ele>662.98</ele>
        <time>2024-09-28T07:29:34.999Z</time>
      </trkpt>
      <trkpt lat="42.32918" lon="1.38919">
        <ele>663.8</ele>
        <time>2024-09-28T07:29:41.999Z</time>
      </trkpt>
      <trkpt lat="42.32912" lon="1.38907">
        <ele>664.64</ele>
        <time>2024-09-28T07:29:48.999Z</time>
      </trkpt>
      <trkpt lat="42.32906" lon="1.38897">
        <ele>665.46</ele>
        <time>2024-09-28T07:29:55.999Z</time>
      </trkpt>
      <trkpt lat="42.329" lon="1.38886">
        <ele>666.22</ele>
        <time>2024-09-28T07:30:02.999Z</time>
      </trkpt>
      <trkpt lat="42.32894" lon="1.38875">
        <ele>666.95</ele>
        <time>2024-09-28T07:30:09.999Z</time>
      </trkpt>
      <trkpt lat="42.32888" lon="1.38864">
        <ele>667.65</ele>
        <time>2024-09-28T07:30:16.999Z</time>
      </trkpt>
      <trkpt lat="42.32882" lon="1.38855">
        <ele>668.22</ele>
        <time>2024-09-28T07:30:22.999Z</time>
      </trkpt>
      <trkpt lat="42.32876" lon="1.38844">
        <ele>668.85</ele>
        <time>2024-09-28T07:30:29.999Z</time>
      </trkpt>
      <trkpt lat="42.32871" lon="1.38833">
        <ele>669.45</ele>
        <time>2024-09-28T07:30:36.999Z</time>
      </trkpt>
      <trkpt lat="42.32867" lon="1.38821">
        <ele>670.03</ele>
        <time>2024-09-28T07:30:43.999Z</time>
      </trkpt>
      <trkpt lat="42.32864" lon="1.38808">
        <ele>670.61</ele>
        <time>2024-09-28T07:30:50.999Z</time>
      </trkpt>
      <trkpt lat="42.32861" lon="1.38795">
        <ele>671.18</ele>
        <time>2024-09-28T07:30:57.999Z</time>
      </trkpt>
      <trkpt lat="42.3286" lon="1.38781">
        <ele>671.75</ele>
        <time>2024-09-28T07:31:04.999Z</time>
      </trkpt>
      <trkpt lat="42.32859" lon="1.38768">
        <ele>672.33</ele>
        <time>2024-09-28T07:31:11.999Z</time>
      </trkpt>
      <trkpt lat="42.32859" lon="1.38755">
        <ele>672.95</ele>
        <time>2024-09-28T07:31:18.999Z</time>
      </trkpt>
      <trkpt lat="42.32859" lon="1.38742">
        <ele>673.61</ele>
        <time>2024-09-28T07:31:25.999Z</time>
      </trkpt>
      <trkpt lat="42.3286" lon="1.38729">
        <ele>674.29</ele>
        <time>2024-09-28T07:31:32.999Z</time>
      </trkpt>
      <trkpt lat="42.32862" lon="1.38716">
        <ele>675.01</ele>
        <time>2024-09-28T07:31:39.999Z</time>
      </trkpt>
      <trkpt lat="42.32865" lon="1.38704">
        <ele>675.77</ele>
        <time>2024-09-28T07:31:46.999Z</time>
      </trkpt>
      <trkpt lat="42.32868" lon="1.38692">
        <ele>676.73</ele>
        <time>2024-09-28T07:31:54.999Z</time>
      </trkpt>
      <trkpt lat="42.32872" lon="1.3868">
        <ele>677.57</ele>
        <time>2024-09-28T07:32:01.999Z</time>
      </trkpt>
      <trkpt lat="42.32876" lon="1.38668">
        <ele>678.37</ele>
        <time>2024-09-28T07:32:08.999Z</time>
      </trkpt>
      <trkpt lat="42.32879" lon="1.38655">
        <ele>679.05</ele>
        <time>2024-09-28T07:32:14.999Z</time>
      </trkpt>
      <trkpt lat="42.32882" lon="1.38643">
        <ele>679.77</ele>
        <time>2024-09-28T07:32:20.999Z</time>
      </trkpt>
      <trkpt lat="42.32884" lon="1.3863">
        <ele>680.72</ele>
        <time>2024-09-28T07:32:27.999Z</time>
      </trkpt>
      <trkpt lat="42.32886" lon="1.38617">
        <ele>682.04</ele>
        <time>2024-09-28T07:32:36.999Z</time>
      </trkpt>
      <trkpt lat="42.32888" lon="1.38603">
        <ele>682.9</ele>
        <time>2024-09-28T07:32:42.999Z</time>
      </trkpt>
      <trkpt lat="42.3289" lon="1.3859">
        <ele>683.83</ele>
        <time>2024-09-28T07:32:48.999Z</time>
      </trkpt>
      <trkpt lat="42.32892" lon="1.38578">
        <ele>684.84</ele>
        <time>2024-09-28T07:32:54.999Z</time>
      </trkpt>
      <trkpt lat="42.32895" lon="1.38567">
        <ele>686.05</ele>
        <time>2024-09-28T07:33:01.999Z</time>
      </trkpt>
      <trkpt lat="42.32898" lon="1.38554">
        <ele>687.19</ele>
        <time>2024-09-28T07:33:08.999Z</time>
      </trkpt>
      <trkpt lat="42.32902" lon="1.38542">
        <ele>688.25</ele>
        <time>2024-09-28T07:33:15.999Z</time>
      </trkpt>
      <trkpt lat="42.32907" lon="1.38531">
        <ele>689.53</ele>
        <time>2024-09-28T07:33:23.999Z</time>
      </trkpt>
      <trkpt lat="42.32913" lon="1.38521">
        <ele>690.72</ele>
        <time>2024-09-28T07:33:30.999Z</time>
      </trkpt>
      <trkpt lat="42.32921" lon="1.38511">
        <ele>691.96</ele>
        <time>2024-09-28T07:33:37.999Z</time>
      </trkpt>
      <trkpt lat="42.32927" lon="1.38502">
        <ele>693.03</ele>
        <time>2024-09-28T07:33:43.999Z</time>
      </trkpt>
      <trkpt lat="42.32935" lon="1.38495">
        <ele>694.11</ele>
        <time>2024-09-28T07:33:49.999Z</time>
      </trkpt>
      <trkpt lat="42.32943" lon="1.38485">
        <ele>695.34</ele>
        <time>2024-09-28T07:33:56.999Z</time>
      </trkpt>
      <trkpt lat="42.3295" lon="1.38476">
        <ele>696.54</ele>
        <time>2024-09-28T07:34:03.999Z</time>
      </trkpt>
      <trkpt lat="42.32957" lon="1.38466">
        <ele>697.69</ele>
        <time>2024-09-28T07:34:10.999Z</time>
      </trkpt>
      <trkpt lat="42.32963" lon="1.38456">
        <ele>698.64</ele>
        <time>2024-09-28T07:34:16.999Z</time>
      </trkpt>
      <trkpt lat="42.3297" lon="1.38447">
        <ele>699.55</ele>
        <time>2024-09-28T07:34:22.999Z</time>
      </trkpt>
      <trkpt lat="42.32975" lon="1.38437">
        <ele>700.42</ele>
        <time>2024-09-28T07:34:29.000Z</time>
      </trkpt>
      <trkpt lat="42.32981" lon="1.38425">
        <ele>701.4</ele>
        <time>2024-09-28T07:34:36.000Z</time>
      </trkpt>
      <trkpt lat="42.32984" lon="1.38414">
        <ele>702.2</ele>
        <time>2024-09-28T07:34:42.000Z</time>
      </trkpt>
      <trkpt lat="42.32986" lon="1.38401">
        <ele>702.98</ele>
        <time>2024-09-28T07:34:48.000Z</time>
      </trkpt>
      <trkpt lat="42.3299" lon="1.38388">
        <ele>703.72</ele>
        <time>2024-09-28T07:34:54.000Z</time>
      </trkpt>
      <trkpt lat="42.32992" lon="1.38376">
        <ele>704.38</ele>
        <time>2024-09-28T07:35:00.000Z</time>
      </trkpt>
      <trkpt lat="42.32994" lon="1.38363">
        <ele>705.07</ele>
        <time>2024-09-28T07:35:07.000Z</time>
      </trkpt>
      <trkpt lat="42.32996" lon="1.38351">
        <ele>705.61</ele>
        <time>2024-09-28T07:35:13.000Z</time>
      </trkpt>
      <trkpt lat="42.32997" lon="1.38339">
        <ele>706.11</ele>
        <time>2024-09-28T07:35:19.000Z</time>
      </trkpt>
      <trkpt lat="42.32999" lon="1.38326">
        <ele>706.58</ele>
        <time>2024-09-28T07:35:25.000Z</time>
      </trkpt>
      <trkpt lat="42.33001" lon="1.38313">
        <ele>707.1</ele>
        <time>2024-09-28T07:35:32.000Z</time>
      </trkpt>
      <trkpt lat="42.33003" lon="1.38301">
        <ele>707.54</ele>
        <time>2024-09-28T07:35:38.000Z</time>
      </trkpt>
      <trkpt lat="42.33004" lon="1.38288">
        <ele>707.97</ele>
        <time>2024-09-28T07:35:44.000Z</time>
      </trkpt>
      <trkpt lat="42.33005" lon="1.38275">
        <ele>708.58</ele>
        <time>2024-09-28T07:35:51.000Z</time>
      </trkpt>
      <trkpt lat="42.33006" lon="1.38262">
        <ele>709.34</ele>
        <time>2024-09-28T07:35:58.000Z</time>
      </trkpt>
      <trkpt lat="42.33007" lon="1.38248">
        <ele>710.23</ele>
        <time>2024-09-28T07:36:05.000Z</time>
      </trkpt>
      <trkpt lat="42.33008" lon="1.38235">
        <ele>711.2</ele>
        <time>2024-09-28T07:36:12.000Z</time>
      </trkpt>
      <trkpt lat="42.33008" lon="1.38222">
        <ele>712.07</ele>
        <time>2024-09-28T07:36:18.000Z</time>
      </trkpt>
      <trkpt lat="42.33006" lon="1.38209">
        <ele>713.03</ele>
        <time>2024-09-28T07:36:25.000Z</time>
      </trkpt>
      <trkpt lat="42.33001" lon="1.38198">
        <ele>713.93</ele>
        <time>2024-09-28T07:36:32.000Z</time>
      </trkpt>
      <trkpt lat="42.32992" lon="1.38191">
        <ele>714.76</ele>
        <time>2024-09-28T07:36:39.000Z</time>
      </trkpt>
      <trkpt lat="42.32982" lon="1.38188">
        <ele>715.58</ele>
        <time>2024-09-28T07:36:46.000Z</time>
      </trkpt>
      <trkpt lat="42.32972" lon="1.3819">
        <ele>716.42</ele>
        <time>2024-09-28T07:36:53.000Z</time>
      </trkpt>
      <trkpt lat="42.32963" lon="1.38195">
        <ele>717.22</ele>
        <time>2024-09-28T07:37:00.000Z</time>
      </trkpt>
      <trkpt lat="42.32954" lon="1.38203">
        <ele>718</ele>
        <time>2024-09-28T07:37:07.000Z</time>
      </trkpt>
      <trkpt lat="42.32946" lon="1.3821">
        <ele>718.72</ele>
        <time>2024-09-28T07:37:14.000Z</time>
      </trkpt>
      <trkpt lat="42.32938" lon="1.38218">
        <ele>719.45</ele>
        <time>2024-09-28T07:37:21.000Z</time>
      </trkpt>
      <trkpt lat="42.32929" lon="1.38224">
        <ele>720.05</ele>
        <time>2024-09-28T07:37:27.000Z</time>
      </trkpt>
      <trkpt lat="42.32919" lon="1.38226">
        <ele>720.69</ele>
        <time>2024-09-28T07:37:33.000Z</time>
      </trkpt>
      <trkpt lat="42.3291" lon="1.38224">
        <ele>721.38</ele>
        <time>2024-09-28T07:37:39.000Z</time>
      </trkpt>
      <trkpt lat="42.32901" lon="1.38218">
        <ele>722.09</ele>
        <time>2024-09-28T07:37:45.000Z</time>
      </trkpt>
      <trkpt lat="42.32895" lon="1.38209">
        <ele>722.79</ele>
        <time>2024-09-28T07:37:50.000Z</time>
      </trkpt>
      <trkpt lat="42.32887" lon="1.38199">
        <ele>723.89</ele>
        <time>2024-09-28T07:37:57.000Z</time>
      </trkpt>
      <trkpt lat="42.32881" lon="1.3819">
        <ele>724.85</ele>
        <time>2024-09-28T07:38:03.000Z</time>
      </trkpt>
      <trkpt lat="42.32874" lon="1.38181">
        <ele>725.98</ele>
        <time>2024-09-28T07:38:10.000Z</time>
      </trkpt>
      <trkpt lat="42.32866" lon="1.38171">
        <ele>727.09</ele>
        <time>2024-09-28T07:38:17.000Z</time>
      </trkpt>
      <trkpt lat="42.32859" lon="1.38163">
        <ele>728.11</ele>
        <time>2024-09-28T07:38:24.000Z</time>
      </trkpt>
      <trkpt lat="42.32852" lon="1.38154">
        <ele>729.04</ele>
        <time>2024-09-28T07:38:31.000Z</time>
      </trkpt>
      <trkpt lat="42.32845" lon="1.38144">
        <ele>729.9</ele>
        <time>2024-09-28T07:38:38.000Z</time>
      </trkpt>
      <trkpt lat="42.32841" lon="1.38131">
        <ele>730.59</ele>
        <time>2024-09-28T07:38:44.000Z</time>
      </trkpt>
      <trkpt lat="42.3284" lon="1.38119">
        <ele>731.35</ele>
        <time>2024-09-28T07:38:51.000Z</time>
      </trkpt>
      <trkpt lat="42.32843" lon="1.38107">
        <ele>732.09</ele>
        <time>2024-09-28T07:38:58.000Z</time>
      </trkpt>
      <trkpt lat="42.32849" lon="1.38095">
        <ele>732.81</ele>
        <time>2024-09-28T07:39:05.000Z</time>
      </trkpt>
      <trkpt lat="42.32853" lon="1.38084">
        <ele>733.4</ele>
        <time>2024-09-28T07:39:11.000Z</time>
      </trkpt>
      <trkpt lat="42.32855" lon="1.38072">
        <ele>734.08</ele>
        <time>2024-09-28T07:39:17.000Z</time>
      </trkpt>
      <trkpt lat="42.32857" lon="1.38058">
        <ele>734.88</ele>
        <time>2024-09-28T07:39:23.000Z</time>
      </trkpt>
      <trkpt lat="42.32858" lon="1.38043">
        <ele>735.81</ele>
        <time>2024-09-28T07:39:29.000Z</time>
      </trkpt>
      <trkpt lat="42.32858" lon="1.38028">
        <ele>736.59</ele>
        <time>2024-09-28T07:39:34.000Z</time>
      </trkpt>
      <trkpt lat="42.32857" lon="1.38016">
        <ele>737.35</ele>
        <time>2024-09-28T07:39:39.000Z</time>
      </trkpt>
      <trkpt lat="42.32853" lon="1.38003">
        <ele>738.21</ele>
        <time>2024-09-28T07:39:45.000Z</time>
      </trkpt>
      <trkpt lat="42.32847" lon="1.37992">
        <ele>739.02</ele>
        <time>2024-09-28T07:39:51.000Z</time>
      </trkpt>
      <trkpt lat="42.3284" lon="1.37982">
        <ele>739.79</ele>
        <time>2024-09-28T07:39:57.000Z</time>
      </trkpt>
      <trkpt lat="42.32833" lon="1.37973">
        <ele>740.52</ele>
        <time>2024-09-28T07:40:03.000Z</time>
      </trkpt>
      <trkpt lat="42.32826" lon="1.37966">
        <ele>741.23</ele>
        <time>2024-09-28T07:40:09.000Z</time>
      </trkpt>
      <trkpt lat="42.32818" lon="1.37958">
        <ele>741.92</ele>
        <time>2024-09-28T07:40:15.000Z</time>
      </trkpt>
      <trkpt lat="42.32811" lon="1.37951">
        <ele>742.59</ele>
        <time>2024-09-28T07:40:21.000Z</time>
      </trkpt>
      <trkpt lat="42.32803" lon="1.37943">
        <ele>743.24</ele>
        <time>2024-09-28T07:40:27.000Z</time>
      </trkpt>
      <trkpt lat="42.32796" lon="1.37935">
        <ele>743.88</ele>
        <time>2024-09-28T07:40:33.000Z</time>
      </trkpt>
      <trkpt lat="42.32788" lon="1.37927">
        <ele>744.62</ele>
        <time>2024-09-28T07:40:40.000Z</time>
      </trkpt>
      <trkpt lat="42.32781" lon="1.37919">
        <ele>745.35</ele>
        <time>2024-09-28T07:40:47.000Z</time>
      </trkpt>
      <trkpt lat="42.32773" lon="1.37912">
        <ele>746.12</ele>
        <time>2024-09-28T07:40:54.000Z</time>
      </trkpt>
      <trkpt lat="42.32765" lon="1.37904">
        <ele>746.94</ele>
        <time>2024-09-28T07:41:01.000Z</time>
      </trkpt>
      <trkpt lat="42.32758" lon="1.37895">
        <ele>747.78</ele>
        <time>2024-09-28T07:41:08.000Z</time>
      </trkpt>
      <trkpt lat="42.3275" lon="1.37887">
        <ele>748.61</ele>
        <time>2024-09-28T07:41:15.000Z</time>
      </trkpt>
      <trkpt lat="42.32742" lon="1.37878">
        <ele>749.52</ele>
        <time>2024-09-28T07:41:23.000Z</time>
      </trkpt>
      <trkpt lat="42.32735" lon="1.37871">
        <ele>750.25</ele>
        <time>2024-09-28T07:41:30.000Z</time>
      </trkpt>
      <trkpt lat="42.32727" lon="1.37862">
        <ele>750.91</ele>
        <time>2024-09-28T07:41:37.000Z</time>
      </trkpt>
      <trkpt lat="42.32719" lon="1.37852">
        <ele>751.45</ele>
        <time>2024-09-28T07:41:43.000Z</time>
      </trkpt>
      <trkpt lat="42.32711" lon="1.37843">
        <ele>751.93</ele>
        <time>2024-09-28T07:41:48.000Z</time>
      </trkpt>
      <trkpt lat="42.32705" lon="1.37833">
        <ele>752.55</ele>
        <time>2024-09-28T07:41:54.000Z</time>
      </trkpt>
      <trkpt lat="42.32699" lon="1.3782">
        <ele>753.2</ele>
        <time>2024-09-28T07:42:00.000Z</time>
      </trkpt>
      <trkpt lat="42.32695" lon="1.37809">
        <ele>753.76</ele>
        <time>2024-09-28T07:42:05.000Z</time>
      </trkpt>
      <trkpt lat="42.3269" lon="1.37798">
        <ele>754.34</ele>
        <time>2024-09-28T07:42:10.000Z</time>
      </trkpt>
      <trkpt lat="42.32685" lon="1.37788">
        <ele>754.92</ele>
        <time>2024-09-28T07:42:15.000Z</time>
      </trkpt>
      <trkpt lat="42.32678" lon="1.3778">
        <ele>755.56</ele>
        <time>2024-09-28T07:42:21.000Z</time>
      </trkpt>
      <trkpt lat="42.32669" lon="1.37773">
        <ele>756.39</ele>
        <time>2024-09-28T07:42:29.000Z</time>
      </trkpt>
      <trkpt lat="42.32661" lon="1.37767">
        <ele>757.1</ele>
        <time>2024-09-28T07:42:36.000Z</time>
      </trkpt>
      <trkpt lat="42.32652" lon="1.37761">
        <ele>757.78</ele>
        <time>2024-09-28T07:42:43.000Z</time>
      </trkpt>
      <trkpt lat="42.32643" lon="1.37754">
        <ele>758.47</ele>
        <time>2024-09-28T07:42:50.000Z</time>
      </trkpt>
      <trkpt lat="42.32634" lon="1.37747">
        <ele>759.17</ele>
        <time>2024-09-28T07:42:57.000Z</time>
      </trkpt>
      <trkpt lat="42.32626" lon="1.3774">
        <ele>759.85</ele>
        <time>2024-09-28T07:43:04.000Z</time>
      </trkpt>
      <trkpt lat="42.32618" lon="1.37732">
        <ele>760.43</ele>
        <time>2024-09-28T07:43:10.000Z</time>
      </trkpt>
      <trkpt lat="42.32611" lon="1.37723">
        <ele>760.99</ele>
        <time>2024-09-28T07:43:16.000Z</time>
      </trkpt>
      <trkpt lat="42.32606" lon="1.37713">
        <ele>761.54</ele>
        <time>2024-09-28T07:43:22.000Z</time>
      </trkpt>
      <trkpt lat="42.32601" lon="1.37702">
        <ele>762.09</ele>
        <time>2024-09-28T07:43:28.000Z</time>
      </trkpt>
      <trkpt lat="42.32597" lon="1.3769">
        <ele>762.93</ele>
        <time>2024-09-28T07:43:35.000Z</time>
      </trkpt>
      <trkpt lat="42.32594" lon="1.37678">
        <ele>764.02</ele>
        <time>2024-09-28T07:43:42.000Z</time>
      </trkpt>
      <trkpt lat="42.32591" lon="1.37665">
        <ele>765.33</ele>
        <time>2024-09-28T07:43:49.000Z</time>
      </trkpt>
      <trkpt lat="42.32588" lon="1.37652">
        <ele>766.8</ele>
        <time>2024-09-28T07:43:56.000Z</time>
      </trkpt>
      <trkpt lat="42.32585" lon="1.3764">
        <ele>768.28</ele>
        <time>2024-09-28T07:44:03.000Z</time>
      </trkpt>
      <trkpt lat="42.32581" lon="1.37628">
        <ele>769.74</ele>
        <time>2024-09-28T07:44:10.000Z</time>
      </trkpt>
      <trkpt lat="42.32574" lon="1.37617">
        <ele>771.11</ele>
        <time>2024-09-28T07:44:17.000Z</time>
      </trkpt>
      <trkpt lat="42.32565" lon="1.37611">
        <ele>772.4</ele>
        <time>2024-09-28T07:44:24.000Z</time>
      </trkpt>
      <trkpt lat="42.32555" lon="1.37606">
        <ele>773.62</ele>
        <time>2024-09-28T07:44:31.000Z</time>
      </trkpt>
      <trkpt lat="42.32547" lon="1.37601">
        <ele>774.75</ele>
        <time>2024-09-28T07:44:38.000Z</time>
      </trkpt>
      <trkpt lat="42.32539" lon="1.37592">
        <ele>775.83</ele>
        <time>2024-09-28T07:44:45.000Z</time>
      </trkpt>
      <trkpt lat="42.32533" lon="1.37582">
        <ele>776.87</ele>
        <time>2024-09-28T07:44:52.000Z</time>
      </trkpt>
      <trkpt lat="42.32538" lon="1.3757">
        <ele>778.7</ele>
        <time>2024-09-28T07:45:03.000Z</time>
      </trkpt>
      <trkpt lat="42.32545" lon="1.37561">
        <ele>779.84</ele>
        <time>2024-09-28T07:45:10.000Z</time>
      </trkpt>
      <trkpt lat="42.32552" lon="1.37551">
        <ele>780.74</ele>
        <time>2024-09-28T07:45:16.000Z</time>
      </trkpt>
      <trkpt lat="42.32551" lon="1.37539">
        <ele>801</ele>
        <time>2024-09-28T07:53:10.999Z</time>
      </trkpt>
      <trkpt lat="42.32548" lon="1.37526">
        <ele>802.49</ele>
        <time>2024-09-28T07:53:24.999Z</time>
      </trkpt>
      <trkpt lat="42.32541" lon="1.37517">
        <ele>803.31</ele>
        <time>2024-09-28T07:53:30.999Z</time>
      </trkpt>
      <trkpt lat="42.32531" lon="1.37515">
        <ele>803.92</ele>
        <time>2024-09-28T07:53:35.999Z</time>
      </trkpt>
      <trkpt lat="42.32522" lon="1.37512">
        <ele>804.48</ele>
        <time>2024-09-28T07:53:40.999Z</time>
      </trkpt>
      <trkpt lat="42.32514" lon="1.37507">
        <ele>804.99</ele>
        <time>2024-09-28T07:53:45.999Z</time>
      </trkpt>
      <trkpt lat="42.32505" lon="1.37502">
        <ele>805.46</ele>
        <time>2024-09-28T07:53:50.999Z</time>
      </trkpt>
      <trkpt lat="42.32496" lon="1.37499">
        <ele>805.88</ele>
        <time>2024-09-28T07:53:55.999Z</time>
      </trkpt>
      <trkpt lat="42.32487" lon="1.37495">
        <ele>806.27</ele>
        <time>2024-09-28T07:54:00.999Z</time>
      </trkpt>
      <trkpt lat="42.32479" lon="1.3749">
        <ele>806.63</ele>
        <time>2024-09-28T07:54:05.999Z</time>
      </trkpt>
      <trkpt lat="42.3247" lon="1.37485">
        <ele>806.96</ele>
        <time>2024-09-28T07:54:10.999Z</time>
      </trkpt>
      <trkpt lat="42.32462" lon="1.37479">
        <ele>807.27</ele>
        <time>2024-09-28T07:54:15.999Z</time>
      </trkpt>
      <trkpt lat="42.32453" lon="1.37473">
        <ele>807.55</ele>
        <time>2024-09-28T07:54:20.999Z</time>
      </trkpt>
      <trkpt lat="42.32446" lon="1.37464">
        <ele>807.82</ele>
        <time>2024-09-28T07:54:25.999Z</time>
      </trkpt>
      <trkpt lat="42.3244" lon="1.37453">
        <ele>808.06</ele>
        <time>2024-09-28T07:54:30.999Z</time>
      </trkpt>
      <trkpt lat="42.32435" lon="1.37443">
        <ele>808.29</ele>
        <time>2024-09-28T07:54:35.999Z</time>
      </trkpt>
      <trkpt lat="42.3243" lon="1.3743">
        <ele>808.54</ele>
        <time>2024-09-28T07:54:41.999Z</time>
      </trkpt>
      <trkpt lat="42.32427" lon="1.37419">
        <ele>808.77</ele>
        <time>2024-09-28T07:54:47.999Z</time>
      </trkpt>
      <trkpt lat="42.32422" lon="1.37407">
        <ele>808.98</ele>
        <time>2024-09-28T07:54:53.999Z</time>
      </trkpt>
      <trkpt lat="42.32419" lon="1.37395">
        <ele>809.15</ele>
        <time>2024-09-28T07:54:58.999Z</time>
      </trkpt>
      <trkpt lat="42.32416" lon="1.37383">
        <ele>809.32</ele>
        <time>2024-09-28T07:55:03.999Z</time>
      </trkpt>
      <trkpt lat="42.32413" lon="1.37371">
        <ele>809.49</ele>
        <time>2024-09-28T07:55:08.999Z</time>
      </trkpt>
      <trkpt lat="42.32409" lon="1.37359">
        <ele>809.67</ele>
        <time>2024-09-28T07:55:13.999Z</time>
      </trkpt>
      <trkpt lat="42.32405" lon="1.37345">
        <ele>809.91</ele>
        <time>2024-09-28T07:55:19.999Z</time>
      </trkpt>
      <trkpt lat="42.32402" lon="1.37333">
        <ele>810.12</ele>
        <time>2024-09-28T07:55:24.999Z</time>
      </trkpt>
      <trkpt lat="42.32399" lon="1.3732">
        <ele>810.37</ele>
        <time>2024-09-28T07:55:30.999Z</time>
      </trkpt>
      <trkpt lat="42.32395" lon="1.37308">
        <ele>810.64</ele>
        <time>2024-09-28T07:55:36.999Z</time>
      </trkpt>
      <trkpt lat="42.32392" lon="1.37294">
        <ele>810.93</ele>
        <time>2024-09-28T07:55:42.999Z</time>
      </trkpt>
      <trkpt lat="42.3239" lon="1.37281">
        <ele>811.24</ele>
        <time>2024-09-28T07:55:48.999Z</time>
      </trkpt>
      <trkpt lat="42.3239" lon="1.37268">
        <ele>811.56</ele>
        <time>2024-09-28T07:55:54.999Z</time>
      </trkpt>
      <trkpt lat="42.3239" lon="1.37255">
        <ele>811.93</ele>
        <time>2024-09-28T07:56:01.999Z</time>
      </trkpt>
      <trkpt lat="42.3239" lon="1.37241">
        <ele>812.31</ele>
        <time>2024-09-28T07:56:08.999Z</time>
      </trkpt>
      <trkpt lat="42.32391" lon="1.37229">
        <ele>812.69</ele>
        <time>2024-09-28T07:56:15.999Z</time>
      </trkpt>
      <trkpt lat="42.32389" lon="1.37215">
        <ele>813.18</ele>
        <time>2024-09-28T07:56:23.999Z</time>
      </trkpt>
      <trkpt lat="42.32389" lon="1.37202">
        <ele>813.58</ele>
        <time>2024-09-28T07:56:29.999Z</time>
      </trkpt>
      <trkpt lat="42.32388" lon="1.37189">
        <ele>814.08</ele>
        <time>2024-09-28T07:56:36.999Z</time>
      </trkpt>
      <trkpt lat="42.32386" lon="1.37176">
        <ele>814.57</ele>
        <time>2024-09-28T07:56:43.999Z</time>
      </trkpt>
      <trkpt lat="42.32381" lon="1.37165">
        <ele>815.05</ele>
        <time>2024-09-28T07:56:50.999Z</time>
      </trkpt>
      <trkpt lat="42.32373" lon="1.37158">
        <ele>815.63</ele>
        <time>2024-09-28T07:56:58.999Z</time>
      </trkpt>
      <trkpt lat="42.32364" lon="1.37154">
        <ele>816.14</ele>
        <time>2024-09-28T07:57:04.999Z</time>
      </trkpt>
      <trkpt lat="42.32355" lon="1.37153">
        <ele>816.8</ele>
        <time>2024-09-28T07:57:11.999Z</time>
      </trkpt>
      <trkpt lat="42.32345" lon="1.37152">
        <ele>817.44</ele>
        <time>2024-09-28T07:57:17.999Z</time>
      </trkpt>
      <trkpt lat="42.32337" lon="1.37147">
        <ele>818.14</ele>
        <time>2024-09-28T07:57:23.999Z</time>
      </trkpt>
      <trkpt lat="42.32331" lon="1.37136">
        <ele>818.9</ele>
        <time>2024-09-28T07:57:29.999Z</time>
      </trkpt>
      <trkpt lat="42.32325" lon="1.37123">
        <ele>819.83</ele>
        <time>2024-09-28T07:57:36.999Z</time>
      </trkpt>
      <trkpt lat="42.32321" lon="1.37112">
        <ele>820.81</ele>
        <time>2024-09-28T07:57:43.999Z</time>
      </trkpt>
      <trkpt lat="42.32317" lon="1.371">
        <ele>821.79</ele>
        <time>2024-09-28T07:57:50.999Z</time>
      </trkpt>
      <trkpt lat="42.32314" lon="1.37087">
        <ele>822.76</ele>
        <time>2024-09-28T07:57:57.999Z</time>
      </trkpt>
      <trkpt lat="42.32311" lon="1.37075">
        <ele>823.57</ele>
        <time>2024-09-28T07:58:03.999Z</time>
      </trkpt>
      <trkpt lat="42.32309" lon="1.37063">
        <ele>824.4</ele>
        <time>2024-09-28T07:58:09.999Z</time>
      </trkpt>
      <trkpt lat="42.32307" lon="1.3705">
        <ele>825.24</ele>
        <time>2024-09-28T07:58:15.999Z</time>
      </trkpt>
      <trkpt lat="42.32305" lon="1.37038">
        <ele>826.06</ele>
        <time>2024-09-28T07:58:21.999Z</time>
      </trkpt>
      <trkpt lat="42.32304" lon="1.37024">
        <ele>826.95</ele>
        <time>2024-09-28T07:58:28.999Z</time>
      </trkpt>
      <trkpt lat="42.32304" lon="1.37011">
        <ele>827.75</ele>
        <time>2024-09-28T07:58:35.999Z</time>
      </trkpt>
      <trkpt lat="42.32302" lon="1.36999">
        <ele>828.52</ele>
        <time>2024-09-28T07:58:42.999Z</time>
      </trkpt>
      <trkpt lat="42.32297" lon="1.36987">
        <ele>829.24</ele>
        <time>2024-09-28T07:58:49.999Z</time>
      </trkpt>
      <trkpt lat="42.32292" lon="1.36975">
        <ele>829.95</ele>
        <time>2024-09-28T07:58:56.999Z</time>
      </trkpt>
      <trkpt lat="42.32287" lon="1.36963">
        <ele>830.64</ele>
        <time>2024-09-28T07:59:03.999Z</time>
      </trkpt>
      <trkpt lat="42.3228" lon="1.36952">
        <ele>831.33</ele>
        <time>2024-09-28T07:59:10.999Z</time>
      </trkpt>
      <trkpt lat="42.32274" lon="1.36941">
        <ele>832.03</ele>
        <time>2024-09-28T07:59:17.999Z</time>
      </trkpt>
      <trkpt lat="42.32268" lon="1.36932">
        <ele>832.63</ele>
        <time>2024-09-28T07:59:23.999Z</time>
      </trkpt>
      <trkpt lat="42.32261" lon="1.36922">
        <ele>833.33</ele>
        <time>2024-09-28T07:59:31.000Z</time>
      </trkpt>
      <trkpt lat="42.32255" lon="1.36911">
        <ele>834.04</ele>
        <time>2024-09-28T07:59:38.000Z</time>
      </trkpt>
      <trkpt lat="42.32249" lon="1.369">
        <ele>834.64</ele>
        <time>2024-09-28T07:59:44.000Z</time>
      </trkpt>
      <trkpt lat="42.32242" lon="1.36891">
        <ele>835.27</ele>
        <time>2024-09-28T07:59:50.000Z</time>
      </trkpt>
      <trkpt lat="42.32236" lon="1.36879">
        <ele>836.04</ele>
        <time>2024-09-28T07:59:57.000Z</time>
      </trkpt>
      <trkpt lat="42.32231" lon="1.36868">
        <ele>836.85</ele>
        <time>2024-09-28T08:00:04.000Z</time>
      </trkpt>
      <trkpt lat="42.32226" lon="1.36857">
        <ele>837.69</ele>
        <time>2024-09-28T08:00:11.000Z</time>
      </trkpt>
      <trkpt lat="42.32222" lon="1.36846">
        <ele>838.55</ele>
        <time>2024-09-28T08:00:18.000Z</time>
      </trkpt>
      <trkpt lat="42.32219" lon="1.36832">
        <ele>839.6</ele>
        <time>2024-09-28T08:00:26.000Z</time>
      </trkpt>
      <trkpt lat="42.32216" lon="1.3682">
        <ele>840.57</ele>
        <time>2024-09-28T08:00:33.000Z</time>
      </trkpt>
      <trkpt lat="42.32213" lon="1.36807">
        <ele>841.64</ele>
        <time>2024-09-28T08:00:40.000Z</time>
      </trkpt>
      <trkpt lat="42.32212" lon="1.36794">
        <ele>842.78</ele>
        <time>2024-09-28T08:00:47.000Z</time>
      </trkpt>
      <trkpt lat="42.32211" lon="1.36782">
        <ele>843.98</ele>
        <time>2024-09-28T08:00:54.000Z</time>
      </trkpt>
      <trkpt lat="42.32212" lon="1.36769">
        <ele>845.22</ele>
        <time>2024-09-28T08:01:01.000Z</time>
      </trkpt>
      <trkpt lat="42.32214" lon="1.36757">
        <ele>846.46</ele>
        <time>2024-09-28T08:01:08.000Z</time>
      </trkpt>
      <trkpt lat="42.32216" lon="1.36745">
        <ele>847.71</ele>
        <time>2024-09-28T08:01:15.000Z</time>
      </trkpt>
      <trkpt lat="42.3222" lon="1.36732">
        <ele>849.12</ele>
        <time>2024-09-28T08:01:23.000Z</time>
      </trkpt>
      <trkpt lat="42.32222" lon="1.36719">
        <ele>850.52</ele>
        <time>2024-09-28T08:01:31.000Z</time>
      </trkpt>
      <trkpt lat="42.32225" lon="1.36706">
        <ele>851.9</ele>
        <time>2024-09-28T08:01:39.000Z</time>
      </trkpt>
      <trkpt lat="42.32226" lon="1.36694">
        <ele>853.07</ele>
        <time>2024-09-28T08:01:46.000Z</time>
      </trkpt>
      <trkpt lat="42.32226" lon="1.36681">
        <ele>854.2</ele>
        <time>2024-09-28T08:01:53.000Z</time>
      </trkpt>
      <trkpt lat="42.32226" lon="1.36668">
        <ele>855.3</ele>
        <time>2024-09-28T08:02:00.000Z</time>
      </trkpt>
      <trkpt lat="42.32225" lon="1.36655">
        <ele>856.35</ele>
        <time>2024-09-28T08:02:07.000Z</time>
      </trkpt>
      <trkpt lat="42.32223" lon="1.36643">
        <ele>857.37</ele>
        <time>2024-09-28T08:02:14.000Z</time>
      </trkpt>
      <trkpt lat="42.32221" lon="1.36631">
        <ele>858.37</ele>
        <time>2024-09-28T08:02:21.000Z</time>
      </trkpt>
      <trkpt lat="42.32219" lon="1.36619">
        <ele>859.2</ele>
        <time>2024-09-28T08:02:27.000Z</time>
      </trkpt>
      <trkpt lat="42.32219" lon="1.36606">
        <ele>860.15</ele>
        <time>2024-09-28T08:02:34.000Z</time>
      </trkpt>
      <trkpt lat="42.32221" lon="1.36593">
        <ele>861.07</ele>
        <time>2024-09-28T08:02:41.000Z</time>
      </trkpt>
      <trkpt lat="42.32224" lon="1.36581">
        <ele>862.21</ele>
        <time>2024-09-28T08:02:50.000Z</time>
      </trkpt>
      <trkpt lat="42.3223" lon="1.36569">
        <ele>863.17</ele>
        <time>2024-09-28T08:02:58.000Z</time>
      </trkpt>
      <trkpt lat="42.32236" lon="1.3656">
        <ele>864.1</ele>
        <time>2024-09-28T08:03:06.000Z</time>
      </trkpt>
      <trkpt lat="42.32241" lon="1.36549">
        <ele>864.88</ele>
        <time>2024-09-28T08:03:13.000Z</time>
      </trkpt>
      <trkpt lat="42.32247" lon="1.36539">
        <ele>865.65</ele>
        <time>2024-09-28T08:03:20.000Z</time>
      </trkpt>
      <trkpt lat="42.32253" lon="1.36529">
        <ele>866.54</ele>
        <time>2024-09-28T08:03:28.000Z</time>
      </trkpt>
      <trkpt lat="42.32259" lon="1.36517">
        <ele>867.48</ele>
        <time>2024-09-28T08:03:36.000Z</time>
      </trkpt>
      <trkpt lat="42.32264" lon="1.36506">
        <ele>868.5</ele>
        <time>2024-09-28T08:03:44.000Z</time>
      </trkpt>
      <trkpt lat="42.32269" lon="1.36496">
        <ele>869.46</ele>
        <time>2024-09-28T08:03:51.000Z</time>
      </trkpt>
      <trkpt lat="42.32275" lon="1.36486">
        <ele>870.55</ele>
        <time>2024-09-28T08:03:58.000Z</time>
      </trkpt>
      <trkpt lat="42.32278" lon="1.36473">
        <ele>871.91</ele>
        <time>2024-09-28T08:04:05.000Z</time>
      </trkpt>
      <trkpt lat="42.32281" lon="1.3646">
        <ele>873.53</ele>
        <time>2024-09-28T08:04:12.000Z</time>
      </trkpt>
      <trkpt lat="42.32281" lon="1.36447">
        <ele>875.05</ele>
        <time>2024-09-28T08:04:18.000Z</time>
      </trkpt>
      <trkpt lat="42.32283" lon="1.36434">
        <ele>876.59</ele>
        <time>2024-09-28T08:04:24.000Z</time>
      </trkpt>
      <trkpt lat="42.32281" lon="1.36421">
        <ele>878.56</ele>
        <time>2024-09-28T08:04:32.000Z</time>
      </trkpt>
      <trkpt lat="42.32275" lon="1.36411">
        <ele>879.98</ele>
        <time>2024-09-28T08:04:38.000Z</time>
      </trkpt>
      <trkpt lat="42.32266" lon="1.36406">
        <ele>881.6</ele>
        <time>2024-09-28T08:04:45.000Z</time>
      </trkpt>
      <trkpt lat="42.32258" lon="1.36402">
        <ele>883.15</ele>
        <time>2024-09-28T08:04:52.000Z</time>
      </trkpt>
      <trkpt lat="42.32248" lon="1.36405">
        <ele>884.23</ele>
        <time>2024-09-28T08:04:57.000Z</time>
      </trkpt>
      <trkpt lat="42.32238" lon="1.36407">
        <ele>885.86</ele>
        <time>2024-09-28T08:05:05.000Z</time>
      </trkpt>
      <trkpt lat="42.32229" lon="1.36409">
        <ele>887.2</ele>
        <time>2024-09-28T08:05:12.000Z</time>
      </trkpt>
      <trkpt lat="42.32219" lon="1.36411">
        <ele>888.34</ele>
        <time>2024-09-28T08:05:18.000Z</time>
      </trkpt>
      <trkpt lat="42.32209" lon="1.36413">
        <ele>889.46</ele>
        <time>2024-09-28T08:05:24.000Z</time>
      </trkpt>
      <trkpt lat="42.32199" lon="1.36413">
        <ele>890.87</ele>
        <time>2024-09-28T08:05:32.000Z</time>
      </trkpt>
      <trkpt lat="42.32189" lon="1.36412">
        <ele>891.98</ele>
        <time>2024-09-28T08:05:39.000Z</time>
      </trkpt>
      <trkpt lat="42.32179" lon="1.36412">
        <ele>893</ele>
        <time>2024-09-28T08:05:46.000Z</time>
      </trkpt>
      <trkpt lat="42.32169" lon="1.36409">
        <ele>893.92</ele>
        <time>2024-09-28T08:05:53.000Z</time>
      </trkpt>
      <trkpt lat="42.3216" lon="1.36405">
        <ele>894.79</ele>
        <time>2024-09-28T08:06:00.000Z</time>
      </trkpt>
      <trkpt lat="42.3215" lon="1.36401">
        <ele>895.6</ele>
        <time>2024-09-28T08:06:07.000Z</time>
      </trkpt>
      <trkpt lat="42.32142" lon="1.36397">
        <ele>896.27</ele>
        <time>2024-09-28T08:06:13.000Z</time>
      </trkpt>
      <trkpt lat="42.32133" lon="1.36392">
        <ele>896.9</ele>
        <time>2024-09-28T08:06:19.000Z</time>
      </trkpt>
      <trkpt lat="42.32126" lon="1.36384">
        <ele>897.53</ele>
        <time>2024-09-28T08:06:25.000Z</time>
      </trkpt>
      <trkpt lat="42.32117" lon="1.36376">
        <ele>898.14</ele>
        <time>2024-09-28T08:06:31.000Z</time>
      </trkpt>
      <trkpt lat="42.32111" lon="1.36366">
        <ele>898.76</ele>
        <time>2024-09-28T08:06:37.000Z</time>
      </trkpt>
      <trkpt lat="42.32103" lon="1.36358">
        <ele>899.4</ele>
        <time>2024-09-28T08:06:43.000Z</time>
      </trkpt>
      <trkpt lat="42.32095" lon="1.36348">
        <ele>900.07</ele>
        <time>2024-09-28T08:06:49.000Z</time>
      </trkpt>
      <trkpt lat="42.32089" lon="1.36337">
        <ele>900.74</ele>
        <time>2024-09-28T08:06:55.000Z</time>
      </trkpt>
      <trkpt lat="42.32083" lon="1.36328">
        <ele>901.41</ele>
        <time>2024-09-28T08:07:01.000Z</time>
      </trkpt>
      <trkpt lat="42.32076" lon="1.36318">
        <ele>902.07</ele>
        <time>2024-09-28T08:07:07.000Z</time>
      </trkpt>
      <trkpt lat="42.3207" lon="1.36307">
        <ele>902.73</ele>
        <time>2024-09-28T08:07:13.000Z</time>
      </trkpt>
      <trkpt lat="42.32063" lon="1.36296">
        <ele>903.37</ele>
        <time>2024-09-28T08:07:19.000Z</time>
      </trkpt>
      <trkpt lat="42.32057" lon="1.36287">
        <ele>903.89</ele>
        <time>2024-09-28T08:07:24.000Z</time>
      </trkpt>
      <trkpt lat="42.32051" lon="1.36277">
        <ele>904.5</ele>
        <time>2024-09-28T08:07:30.000Z</time>
      </trkpt>
      <trkpt lat="42.32045" lon="1.36266">
        <ele>905.09</ele>
        <time>2024-09-28T08:07:36.000Z</time>
      </trkpt>
      <trkpt lat="42.32041" lon="1.36253">
        <ele>905.66</ele>
        <time>2024-09-28T08:07:42.000Z</time>
      </trkpt>
      <trkpt lat="42.32038" lon="1.3624">
        <ele>906.23</ele>
        <time>2024-09-28T08:07:48.000Z</time>
      </trkpt>
      <trkpt lat="42.32037" lon="1.36228">
        <ele>906.86</ele>
        <time>2024-09-28T08:07:55.000Z</time>
      </trkpt>
      <trkpt lat="42.32038" lon="1.36215">
        <ele>907.39</ele>
        <time>2024-09-28T08:08:01.000Z</time>
      </trkpt>
      <trkpt lat="42.3204" lon="1.36203">
        <ele>908.01</ele>
        <time>2024-09-28T08:08:08.000Z</time>
      </trkpt>
      <trkpt lat="42.32042" lon="1.36191">
        <ele>908.63</ele>
        <time>2024-09-28T08:08:15.000Z</time>
      </trkpt>
      <trkpt lat="42.32047" lon="1.36179">
        <ele>909.24</ele>
        <time>2024-09-28T08:08:22.000Z</time>
      </trkpt>
      <trkpt lat="42.3205" lon="1.36166">
        <ele>909.85</ele>
        <time>2024-09-28T08:08:29.000Z</time>
      </trkpt>
      <trkpt lat="42.32053" lon="1.36153">
        <ele>910.46</ele>
        <time>2024-09-28T08:08:36.000Z</time>
      </trkpt>
      <trkpt lat="42.32056" lon="1.36141">
        <ele>911.06</ele>
        <time>2024-09-28T08:08:43.000Z</time>
      </trkpt>
      <trkpt lat="42.32059" lon="1.36128">
        <ele>911.65</ele>
        <time>2024-09-28T08:08:50.000Z</time>
      </trkpt>
      <trkpt lat="42.32062" lon="1.36115">
        <ele>912.24</ele>
        <time>2024-09-28T08:08:57.000Z</time>
      </trkpt>
      <trkpt lat="42.32066" lon="1.36103">
        <ele>912.83</ele>
        <time>2024-09-28T08:09:04.000Z</time>
      </trkpt>
      <trkpt lat="42.3207" lon="1.36091">
        <ele>913.42</ele>
        <time>2024-09-28T08:09:11.000Z</time>
      </trkpt>
      <trkpt lat="42.32077" lon="1.36081">
        <ele>914.07</ele>
        <time>2024-09-28T08:09:19.000Z</time>
      </trkpt>
      <trkpt lat="42.32083" lon="1.36072">
        <ele>914.69</ele>
        <time>2024-09-28T08:09:27.000Z</time>
      </trkpt>
      <trkpt lat="42.32091" lon="1.36065">
        <ele>915.21</ele>
        <time>2024-09-28T08:09:34.000Z</time>
      </trkpt>
      <trkpt lat="42.32096" lon="1.36053">
        <ele>915.64</ele>
        <time>2024-09-28T08:09:40.000Z</time>
      </trkpt>
      <trkpt lat="42.32097" lon="1.3604">
        <ele>916.07</ele>
        <time>2024-09-28T08:09:46.000Z</time>
      </trkpt>
      <trkpt lat="42.32093" lon="1.36028">
        <ele>916.52</ele>
        <time>2024-09-28T08:09:52.000Z</time>
      </trkpt>
      <trkpt lat="42.32086" lon="1.36017">
        <ele>917.1</ele>
        <time>2024-09-28T08:09:59.000Z</time>
      </trkpt>
      <trkpt lat="42.32078" lon="1.3601">
        <ele>917.68</ele>
        <time>2024-09-28T08:10:06.000Z</time>
      </trkpt>
      <trkpt lat="42.3207" lon="1.36004">
        <ele>918.3</ele>
        <time>2024-09-28T08:10:13.000Z</time>
      </trkpt>
      <trkpt lat="42.32061" lon="1.36001">
        <ele>918.97</ele>
        <time>2024-09-28T08:10:20.000Z</time>
      </trkpt>
      <trkpt lat="42.3205" lon="1.35996">
        <ele>919.78</ele>
        <time>2024-09-28T08:10:27.000Z</time>
      </trkpt>
      <trkpt lat="42.3204" lon="1.35995">
        <ele>920.7</ele>
        <time>2024-09-28T08:10:34.000Z</time>
      </trkpt>
      <trkpt lat="42.32031" lon="1.35995">
        <ele>921.55</ele>
        <time>2024-09-28T08:10:40.000Z</time>
      </trkpt>
      <trkpt lat="42.32021" lon="1.35994">
        <ele>922.56</ele>
        <time>2024-09-28T08:10:47.000Z</time>
      </trkpt>
      <trkpt lat="42.3201" lon="1.35992">
        <ele>923.61</ele>
        <time>2024-09-28T08:10:54.000Z</time>
      </trkpt>
      <trkpt lat="42.32001" lon="1.3599">
        <ele>924.49</ele>
        <time>2024-09-28T08:11:00.000Z</time>
      </trkpt>
      <trkpt lat="42.31992" lon="1.35988">
        <ele>925.53</ele>
        <time>2024-09-28T08:11:07.000Z</time>
      </trkpt>
      <trkpt lat="42.31983" lon="1.35983">
        <ele>926.48</ele>
        <time>2024-09-28T08:11:13.000Z</time>
      </trkpt>
      <trkpt lat="42.31976" lon="1.35973">
        <ele>927.67</ele>
        <time>2024-09-28T08:11:20.000Z</time>
      </trkpt>
      <trkpt lat="42.31969" lon="1.35964">
        <ele>928.69</ele>
        <time>2024-09-28T08:11:26.000Z</time>
      </trkpt>
      <trkpt lat="42.31963" lon="1.35953">
        <ele>929.91</ele>
        <time>2024-09-28T08:11:33.000Z</time>
      </trkpt>
      <trkpt lat="42.31959" lon="1.35941">
        <ele>931.06</ele>
        <time>2024-09-28T08:11:38.999Z</time>
      </trkpt>
      <trkpt lat="42.31955" lon="1.35928">
        <ele>932.47</ele>
        <time>2024-09-28T08:11:45.999Z</time>
      </trkpt>
      <trkpt lat="42.31953" lon="1.35916">
        <ele>933.7</ele>
        <time>2024-09-28T08:11:51.999Z</time>
      </trkpt>
      <trkpt lat="42.31951" lon="1.35903">
        <ele>934.93</ele>
        <time>2024-09-28T08:11:57.999Z</time>
      </trkpt>
      <trkpt lat="42.3195" lon="1.3589">
        <ele>936.32</ele>
        <time>2024-09-28T08:12:04.999Z</time>
      </trkpt>
      <trkpt lat="42.3195" lon="1.35877">
        <ele>937.65</ele>
        <time>2024-09-28T08:12:11.999Z</time>
      </trkpt>
      <trkpt lat="42.3195" lon="1.35864">
        <ele>938.73</ele>
        <time>2024-09-28T08:12:17.999Z</time>
      </trkpt>
      <trkpt lat="42.31951" lon="1.35851">
        <ele>939.76</ele>
        <time>2024-09-28T08:12:23.999Z</time>
      </trkpt>
      <trkpt lat="42.31952" lon="1.35838">
        <ele>940.92</ele>
        <time>2024-09-28T08:12:30.999Z</time>
      </trkpt>
      <trkpt lat="42.31958" lon="1.35828">
        <ele>942.03</ele>
        <time>2024-09-28T08:12:37.999Z</time>
      </trkpt>
      <trkpt lat="42.31967" lon="1.3583">
        <ele>942.92</ele>
        <time>2024-09-28T08:12:43.999Z</time>
      </trkpt>
      <trkpt lat="42.31969" lon="1.35844">
        <ele>943.91</ele>
        <time>2024-09-28T08:12:50.999Z</time>
      </trkpt>
      <trkpt lat="42.31969" lon="1.35857">
        <ele>944.86</ele>
        <time>2024-09-28T08:12:57.999Z</time>
      </trkpt>
      <trkpt lat="42.31969" lon="1.3587">
        <ele>945.76</ele>
        <time>2024-09-28T08:13:04.999Z</time>
      </trkpt>
      <trkpt lat="42.3197" lon="1.35883">
        <ele>946.61</ele>
        <time>2024-09-28T08:13:11.999Z</time>
      </trkpt>
      <trkpt lat="42.31973" lon="1.35896">
        <ele>947.31</ele>
        <time>2024-09-28T08:13:17.999Z</time>
      </trkpt>
      <trkpt lat="42.31977" lon="1.35908">
        <ele>947.97</ele>
        <time>2024-09-28T08:13:23.999Z</time>
      </trkpt>
      <trkpt lat="42.31983" lon="1.35919">
        <ele>948.61</ele>
        <time>2024-09-28T08:13:29.999Z</time>
      </trkpt>
      <trkpt lat="42.31991" lon="1.35927">
        <ele>949.31</ele>
        <time>2024-09-28T08:13:36.999Z</time>
      </trkpt>
      <trkpt lat="42.32" lon="1.35933">
        <ele>949.98</ele>
        <time>2024-09-28T08:13:43.999Z</time>
      </trkpt>
      <trkpt lat="42.32009" lon="1.35936">
        <ele>950.7</ele>
        <time>2024-09-28T08:13:51.999Z</time>
      </trkpt>
      <trkpt lat="42.32019" lon="1.35936">
        <ele>951.41</ele>
        <time>2024-09-28T08:13:59.999Z</time>
      </trkpt>
      <trkpt lat="42.3203" lon="1.35935">
        <ele>952.02</ele>
        <time>2024-09-28T08:14:06.999Z</time>
      </trkpt>
      <trkpt lat="42.32039" lon="1.35936">
        <ele>952.81</ele>
        <time>2024-09-28T08:14:15.999Z</time>
      </trkpt>
      <trkpt lat="42.32049" lon="1.35936">
        <ele>953.47</ele>
        <time>2024-09-28T08:14:23.999Z</time>
      </trkpt>
      <trkpt lat="42.32058" lon="1.35935">
        <ele>953.95</ele>
        <time>2024-09-28T08:14:29.999Z</time>
      </trkpt>
      <trkpt lat="42.32068" lon="1.35932">
        <ele>954.5</ele>
        <time>2024-09-28T08:14:36.999Z</time>
      </trkpt>
      <trkpt lat="42.32079" lon="1.35932">
        <ele>954.98</ele>
        <time>2024-09-28T08:14:42.999Z</time>
      </trkpt>
      <trkpt lat="42.32089" lon="1.35932">
        <ele>955.53</ele>
        <time>2024-09-28T08:14:49.999Z</time>
      </trkpt>
      <trkpt lat="42.321" lon="1.35933">
        <ele>956.07</ele>
        <time>2024-09-28T08:14:56.999Z</time>
      </trkpt>
      <trkpt lat="42.32109" lon="1.35934">
        <ele>956.61</ele>
        <time>2024-09-28T08:15:03.999Z</time>
      </trkpt>
      <trkpt lat="42.32118" lon="1.35936">
        <ele>957.22</ele>
        <time>2024-09-28T08:15:11.999Z</time>
      </trkpt>
      <trkpt lat="42.32129" lon="1.35938">
        <ele>957.73</ele>
        <time>2024-09-28T08:15:18.999Z</time>
      </trkpt>
      <trkpt lat="42.32138" lon="1.35938">
        <ele>958.31</ele>
        <time>2024-09-28T08:15:26.999Z</time>
      </trkpt>
      <trkpt lat="42.32148" lon="1.3594">
        <ele>958.82</ele>
        <time>2024-09-28T08:15:33.999Z</time>
      </trkpt>
      <trkpt lat="42.32157" lon="1.3594">
        <ele>959.33</ele>
        <time>2024-09-28T08:15:40.999Z</time>
      </trkpt>
      <trkpt lat="42.32167" lon="1.35938">
        <ele>959.92</ele>
        <time>2024-09-28T08:15:48.999Z</time>
      </trkpt>
      <trkpt lat="42.32176" lon="1.35937">
        <ele>960.38</ele>
        <time>2024-09-28T08:15:54.999Z</time>
      </trkpt>
      <trkpt lat="42.32186" lon="1.35936">
        <ele>960.93</ele>
        <time>2024-09-28T08:16:01.999Z</time>
      </trkpt>
      <trkpt lat="42.32195" lon="1.35935">
        <ele>961.41</ele>
        <time>2024-09-28T08:16:07.999Z</time>
      </trkpt>
      <trkpt lat="42.32204" lon="1.35937">
        <ele>961.93</ele>
        <time>2024-09-28T08:16:13.999Z</time>
      </trkpt>
      <trkpt lat="42.32212" lon="1.35945">
        <ele>962.57</ele>
        <time>2024-09-28T08:16:20.999Z</time>
      </trkpt>
      <trkpt lat="42.32216" lon="1.35958">
        <ele>963.14</ele>
        <time>2024-09-28T08:16:26.999Z</time>
      </trkpt>
      <trkpt lat="42.32217" lon="1.3597">
        <ele>963.8</ele>
        <time>2024-09-28T08:16:33.999Z</time>
      </trkpt>
      <trkpt lat="42.32218" lon="1.35982">
        <ele>964.28</ele>
        <time>2024-09-28T08:16:38.999Z</time>
      </trkpt>
      <trkpt lat="42.32218" lon="1.35995">
        <ele>964.87</ele>
        <time>2024-09-28T08:16:44.999Z</time>
      </trkpt>
      <trkpt lat="42.32219" lon="1.36008">
        <ele>965.5</ele>
        <time>2024-09-28T08:16:50.999Z</time>
      </trkpt>
      <trkpt lat="42.32218" lon="1.36021">
        <ele>966.33</ele>
        <time>2024-09-28T08:16:57.999Z</time>
      </trkpt>
      <trkpt lat="42.32219" lon="1.36033">
        <ele>967.09</ele>
        <time>2024-09-28T08:17:03.999Z</time>
      </trkpt>
      <trkpt lat="42.32218" lon="1.36047">
        <ele>968.01</ele>
        <time>2024-09-28T08:17:10.999Z</time>
      </trkpt>
      <trkpt lat="42.3222" lon="1.36061">
        <ele>968.83</ele>
        <time>2024-09-28T08:17:16.999Z</time>
      </trkpt>
      <trkpt lat="42.32221" lon="1.36074">
        <ele>969.66</ele>
        <time>2024-09-28T08:17:22.999Z</time>
      </trkpt>
      <trkpt lat="42.32221" lon="1.36087">
        <ele>970.5</ele>
        <time>2024-09-28T08:17:28.999Z</time>
      </trkpt>
      <trkpt lat="42.32224" lon="1.36101">
        <ele>971.34</ele>
        <time>2024-09-28T08:17:34.999Z</time>
      </trkpt>
      <trkpt lat="42.32226" lon="1.36115">
        <ele>972.18</ele>
        <time>2024-09-28T08:17:40.999Z</time>
      </trkpt>
      <trkpt lat="42.32228" lon="1.36128">
        <ele>973.02</ele>
        <time>2024-09-28T08:17:46.999Z</time>
      </trkpt>
      <trkpt lat="42.3223" lon="1.3614">
        <ele>973.86</ele>
        <time>2024-09-28T08:17:52.999Z</time>
      </trkpt>
      <trkpt lat="42.32235" lon="1.36152">
        <ele>974.7</ele>
        <time>2024-09-28T08:17:58.999Z</time>
      </trkpt>
      <trkpt lat="42.32242" lon="1.36161">
        <ele>975.67</ele>
        <time>2024-09-28T08:18:05.999Z</time>
      </trkpt>
      <trkpt lat="42.32251" lon="1.36163">
        <ele>976.5</ele>
        <time>2024-09-28T08:18:11.999Z</time>
      </trkpt>
      <trkpt lat="42.3226" lon="1.36159">
        <ele>977.33</ele>
        <time>2024-09-28T08:18:17.999Z</time>
      </trkpt>
      <trkpt lat="42.32267" lon="1.3615">
        <ele>978.39</ele>
        <time>2024-09-28T08:18:25.999Z</time>
      </trkpt>
      <trkpt lat="42.32271" lon="1.36137">
        <ele>979.16</ele>
        <time>2024-09-28T08:18:31.999Z</time>
      </trkpt>
      <trkpt lat="42.32272" lon="1.36124">
        <ele>980.05</ele>
        <time>2024-09-28T08:18:38.999Z</time>
      </trkpt>
      <trkpt lat="42.32271" lon="1.3611">
        <ele>980.93</ele>
        <time>2024-09-28T08:18:45.999Z</time>
      </trkpt>
      <trkpt lat="42.3227" lon="1.36097">
        <ele>981.8</ele>
        <time>2024-09-28T08:18:52.999Z</time>
      </trkpt>
      <trkpt lat="42.32269" lon="1.36085">
        <ele>982.65</ele>
        <time>2024-09-28T08:18:59.999Z</time>
      </trkpt>
      <trkpt lat="42.32268" lon="1.36071">
        <ele>983.49</ele>
        <time>2024-09-28T08:19:06.999Z</time>
      </trkpt>
      <trkpt lat="42.32268" lon="1.36058">
        <ele>984.3</ele>
        <time>2024-09-28T08:19:13.999Z</time>
      </trkpt>
      <trkpt lat="42.32268" lon="1.36046">
        <ele>985.08</ele>
        <time>2024-09-28T08:19:20.999Z</time>
      </trkpt>
      <trkpt lat="42.32268" lon="1.36032">
        <ele>985.83</ele>
        <time>2024-09-28T08:19:27.999Z</time>
      </trkpt>
      <trkpt lat="42.32268" lon="1.3602">
        <ele>986.58</ele>
        <time>2024-09-28T08:19:34.999Z</time>
      </trkpt>
      <trkpt lat="42.32268" lon="1.36007">
        <ele>987.32</ele>
        <time>2024-09-28T08:19:41.999Z</time>
      </trkpt>
      <trkpt lat="42.32273" lon="1.35996">
        <ele>988.07</ele>
        <time>2024-09-28T08:19:48.999Z</time>
      </trkpt>
      <trkpt lat="42.32282" lon="1.35995">
        <ele>989</ele>
        <time>2024-09-28T08:19:57.999Z</time>
      </trkpt>
      <trkpt lat="42.32291" lon="1.36">
        <ele>989.61</ele>
        <time>2024-09-28T08:20:03.999Z</time>
      </trkpt>
      <trkpt lat="42.32299" lon="1.36008">
        <ele>990.31</ele>
        <time>2024-09-28T08:20:10.999Z</time>
      </trkpt>
      <trkpt lat="42.32306" lon="1.36015">
        <ele>991</ele>
        <time>2024-09-28T08:20:17.999Z</time>
      </trkpt>
      <trkpt lat="42.32315" lon="1.36022">
        <ele>991.78</ele>
        <time>2024-09-28T08:20:25.999Z</time>
      </trkpt>
      <trkpt lat="42.32325" lon="1.36026">
        <ele>992.45</ele>
        <time>2024-09-28T08:20:32.999Z</time>
      </trkpt>
      <trkpt lat="42.32335" lon="1.36026">
        <ele>993.01</ele>
        <time>2024-09-28T08:20:38.999Z</time>
      </trkpt>
      <trkpt lat="42.32345" lon="1.36026">
        <ele>993.66</ele>
        <time>2024-09-28T08:20:45.999Z</time>
      </trkpt>
      <trkpt lat="42.32354" lon="1.36023">
        <ele>994.56</ele>
        <time>2024-09-28T08:20:55.999Z</time>
      </trkpt>
      <trkpt lat="42.32363" lon="1.36014">
        <ele>995.26</ele>
        <time>2024-09-28T08:21:03.999Z</time>
      </trkpt>
      <trkpt lat="42.32369" lon="1.36004">
        <ele>995.97</ele>
        <time>2024-09-28T08:21:11.999Z</time>
      </trkpt>
      <trkpt lat="42.32372" lon="1.35992">
        <ele>996.46</ele>
        <time>2024-09-28T08:21:16.999Z</time>
      </trkpt>
      <trkpt lat="42.32373" lon="1.35979">
        <ele>997.09</ele>
        <time>2024-09-28T08:21:22.999Z</time>
      </trkpt>
      <trkpt lat="42.32373" lon="1.35967">
        <ele>997.89</ele>
        <time>2024-09-28T08:21:29.999Z</time>
      </trkpt>
      <trkpt lat="42.32369" lon="1.35954">
        <ele>998.83</ele>
        <time>2024-09-28T08:21:37.999Z</time>
      </trkpt>
      <trkpt lat="42.32364" lon="1.35941">
        <ele>999.99</ele>
        <time>2024-09-28T08:21:46.999Z</time>
      </trkpt>
      <trkpt lat="42.3236" lon="1.35929">
        <ele>1001.15</ele>
        <time>2024-09-28T08:21:54.999Z</time>
      </trkpt>
      <trkpt lat="42.32355" lon="1.35918">
        <ele>1002.45</ele>
        <time>2024-09-28T08:22:02.999Z</time>
      </trkpt>
      <trkpt lat="42.32348" lon="1.35909">
        <ele>1003.71</ele>
        <time>2024-09-28T08:22:09.999Z</time>
      </trkpt>
      <trkpt lat="42.32341" lon="1.35901">
        <ele>1005.09</ele>
        <time>2024-09-28T08:22:16.999Z</time>
      </trkpt>
      <trkpt lat="42.32334" lon="1.35891">
        <ele>1006.48</ele>
        <time>2024-09-28T08:22:23.999Z</time>
      </trkpt>
      <trkpt lat="42.32326" lon="1.35883">
        <ele>1008.02</ele>
        <time>2024-09-28T08:22:31.999Z</time>
      </trkpt>
      <trkpt lat="42.32319" lon="1.35875">
        <ele>1009.35</ele>
        <time>2024-09-28T08:22:38.999Z</time>
      </trkpt>
      <trkpt lat="42.32313" lon="1.35864">
        <ele>1010.91</ele>
        <time>2024-09-28T08:22:46.999Z</time>
      </trkpt>
      <trkpt lat="42.32309" lon="1.35852">
        <ele>1012.3</ele>
        <time>2024-09-28T08:22:53.999Z</time>
      </trkpt>
      <trkpt lat="42.32306" lon="1.3584">
        <ele>1013.67</ele>
        <time>2024-09-28T08:23:00.999Z</time>
      </trkpt>
      <trkpt lat="42.323" lon="1.3583">
        <ele>1015.03</ele>
        <time>2024-09-28T08:23:07.999Z</time>
      </trkpt>
      <trkpt lat="42.32294" lon="1.35819">
        <ele>1016.4</ele>
        <time>2024-09-28T08:23:14.999Z</time>
      </trkpt>
      <trkpt lat="42.32286" lon="1.35811">
        <ele>1017.72</ele>
        <time>2024-09-28T08:23:21.999Z</time>
      </trkpt>
      <trkpt lat="42.32278" lon="1.35804">
        <ele>1019.02</ele>
        <time>2024-09-28T08:23:28.999Z</time>
      </trkpt>
      <trkpt lat="42.32269" lon="1.35797">
        <ele>1020.29</ele>
        <time>2024-09-28T08:23:35.999Z</time>
      </trkpt>
      <trkpt lat="42.32262" lon="1.3579">
        <ele>1021.35</ele>
        <time>2024-09-28T08:23:41.999Z</time>
      </trkpt>
      <trkpt lat="42.32255" lon="1.3578">
        <ele>1022.38</ele>
        <time>2024-09-28T08:23:47.999Z</time>
      </trkpt>
      <trkpt lat="42.3225" lon="1.35768">
        <ele>1023.55</ele>
        <time>2024-09-28T08:23:55.000Z</time>
      </trkpt>
      <trkpt lat="42.32245" lon="1.35756">
        <ele>1024.68</ele>
        <time>2024-09-28T08:24:02.000Z</time>
      </trkpt>
      <trkpt lat="42.32244" lon="1.35743">
        <ele>1025.78</ele>
        <time>2024-09-28T08:24:09.000Z</time>
      </trkpt>
      <trkpt lat="42.32244" lon="1.3573">
        <ele>1026.88</ele>
        <time>2024-09-28T08:24:16.000Z</time>
      </trkpt>
      <trkpt lat="42.32246" lon="1.35718">
        <ele>1027.83</ele>
        <time>2024-09-28T08:24:22.000Z</time>
      </trkpt>
      <trkpt lat="42.3225" lon="1.35707">
        <ele>1028.95</ele>
        <time>2024-09-28T08:24:29.000Z</time>
      </trkpt>
      <trkpt lat="42.32255" lon="1.35695">
        <ele>1030.21</ele>
        <time>2024-09-28T08:24:37.000Z</time>
      </trkpt>
      <trkpt lat="42.32259" lon="1.35684">
        <ele>1031.14</ele>
        <time>2024-09-28T08:24:43.000Z</time>
      </trkpt>
      <trkpt lat="42.32264" lon="1.35673">
        <ele>1032.2</ele>
        <time>2024-09-28T08:24:50.000Z</time>
      </trkpt>
      <trkpt lat="42.32268" lon="1.35661">
        <ele>1033.1</ele>
        <time>2024-09-28T08:24:56.000Z</time>
      </trkpt>
      <trkpt lat="42.3227" lon="1.35649">
        <ele>1034.14</ele>
        <time>2024-09-28T08:25:03.000Z</time>
      </trkpt>
      <trkpt lat="42.32272" lon="1.35635">
        <ele>1035.17</ele>
        <time>2024-09-28T08:25:10.000Z</time>
      </trkpt>
      <trkpt lat="42.32272" lon="1.35622">
        <ele>1036.19</ele>
        <time>2024-09-28T08:25:17.000Z</time>
      </trkpt>
      <trkpt lat="42.3227" lon="1.35608">
        <ele>1037.2</ele>
        <time>2024-09-28T08:25:24.000Z</time>
      </trkpt>
      <trkpt lat="42.32268" lon="1.35594">
        <ele>1040.51</ele>
        <time>2024-09-28T08:26:26.000Z</time>
      </trkpt>
      <trkpt lat="42.32265" lon="1.35582">
        <ele>1041.37</ele>
        <time>2024-09-28T08:26:31.000Z</time>
      </trkpt>
      <trkpt lat="42.32259" lon="1.3557">
        <ele>1042.32</ele>
        <time>2024-09-28T08:26:37.000Z</time>
      </trkpt>
      <trkpt lat="42.32255" lon="1.35559">
        <ele>1043.07</ele>
        <time>2024-09-28T08:26:42.000Z</time>
      </trkpt>
      <trkpt lat="42.3225" lon="1.35546">
        <ele>1043.92</ele>
        <time>2024-09-28T08:26:48.000Z</time>
      </trkpt>
      <trkpt lat="42.32248" lon="1.35534">
        <ele>1044.73</ele>
        <time>2024-09-28T08:26:54.000Z</time>
      </trkpt>
      <trkpt lat="42.32249" lon="1.3552">
        <ele>1045.64</ele>
        <time>2024-09-28T08:27:01.000Z</time>
      </trkpt>
      <trkpt lat="42.32253" lon="1.35509">
        <ele>1046.38</ele>
        <time>2024-09-28T08:27:07.000Z</time>
      </trkpt>
      <trkpt lat="42.3226" lon="1.35499">
        <ele>1047.34</ele>
        <time>2024-09-28T08:27:15.000Z</time>
      </trkpt>
      <trkpt lat="42.32268" lon="1.35494">
        <ele>1048.12</ele>
        <time>2024-09-28T08:27:22.000Z</time>
      </trkpt>
      <trkpt lat="42.32277" lon="1.35489">
        <ele>1048.66</ele>
        <time>2024-09-28T08:27:27.000Z</time>
      </trkpt>
      <trkpt lat="42.32285" lon="1.35484">
        <ele>1049.4</ele>
        <time>2024-09-28T08:27:34.000Z</time>
      </trkpt>
      <trkpt lat="42.32294" lon="1.3548">
        <ele>1050.3</ele>
        <time>2024-09-28T08:27:43.000Z</time>
      </trkpt>
      <trkpt lat="42.32302" lon="1.35473">
        <ele>1051.04</ele>
        <time>2024-09-28T08:27:51.000Z</time>
      </trkpt>
      <trkpt lat="42.32309" lon="1.35464">
        <ele>1051.69</ele>
        <time>2024-09-28T08:27:59.000Z</time>
      </trkpt>
      <trkpt lat="42.32316" lon="1.35456">
        <ele>1052.14</ele>
        <time>2024-09-28T08:28:05.000Z</time>
      </trkpt>
      <trkpt lat="42.32321" lon="1.35446">
        <ele>1052.49</ele>
        <time>2024-09-28T08:28:10.000Z</time>
      </trkpt>
      <trkpt lat="42.32325" lon="1.35433">
        <ele>1052.91</ele>
        <time>2024-09-28T08:28:16.000Z</time>
      </trkpt>
      <trkpt lat="42.32329" lon="1.3542">
        <ele>1053.36</ele>
        <time>2024-09-28T08:28:22.000Z</time>
      </trkpt>
      <trkpt lat="42.32332" lon="1.35408">
        <ele>1053.75</ele>
        <time>2024-09-28T08:28:27.000Z</time>
      </trkpt>
      <trkpt lat="42.32333" lon="1.35395">
        <ele>1054.24</ele>
        <time>2024-09-28T08:28:33.000Z</time>
      </trkpt>
      <trkpt lat="42.32333" lon="1.35383">
        <ele>1054.86</ele>
        <time>2024-09-28T08:28:40.000Z</time>
      </trkpt>
      <trkpt lat="42.32331" lon="1.35369">
        <ele>1055.52</ele>
        <time>2024-09-28T08:28:47.000Z</time>
      </trkpt>
      <trkpt lat="42.3233" lon="1.35356">
        <ele>1056.22</ele>
        <time>2024-09-28T08:28:54.000Z</time>
      </trkpt>
      <trkpt lat="42.32327" lon="1.35343">
        <ele>1056.93</ele>
        <time>2024-09-28T08:29:01.000Z</time>
      </trkpt>
      <trkpt lat="42.32327" lon="1.3533">
        <ele>1057.71</ele>
        <time>2024-09-28T08:29:08.000Z</time>
      </trkpt>
      <trkpt lat="42.32329" lon="1.35318">
        <ele>1058.43</ele>
        <time>2024-09-28T08:29:14.000Z</time>
      </trkpt>
      <trkpt lat="42.32333" lon="1.35305">
        <ele>1059.33</ele>
        <time>2024-09-28T08:29:21.000Z</time>
      </trkpt>
      <trkpt lat="42.32341" lon="1.35299">
        <ele>1060.64</ele>
        <time>2024-09-28T08:29:31.000Z</time>
      </trkpt>
      <trkpt lat="42.3235" lon="1.35296">
        <ele>1061.26</ele>
        <time>2024-09-28T08:29:36.000Z</time>
      </trkpt>
      <trkpt lat="42.3236" lon="1.35294">
        <ele>1062.25</ele>
        <time>2024-09-28T08:29:44.000Z</time>
      </trkpt>
      <trkpt lat="42.3237" lon="1.35292">
        <ele>1062.85</ele>
        <time>2024-09-28T08:29:49.000Z</time>
      </trkpt>
      <trkpt lat="42.3238" lon="1.35289">
        <ele>1063.67</ele>
        <time>2024-09-28T08:29:56.000Z</time>
      </trkpt>
      <trkpt lat="42.3239" lon="1.35286">
        <ele>1064.95</ele>
        <time>2024-09-28T08:30:07.000Z</time>
      </trkpt>
      <trkpt lat="42.32401" lon="1.35282">
        <ele>1065.89</ele>
        <time>2024-09-28T08:30:15.000Z</time>
      </trkpt>
      <trkpt lat="42.3241" lon="1.35279">
        <ele>1066.91</ele>
        <time>2024-09-28T08:30:24.000Z</time>
      </trkpt>
      <trkpt lat="42.32418" lon="1.35274">
        <ele>1067.73</ele>
        <time>2024-09-28T08:30:31.000Z</time>
      </trkpt>
      <trkpt lat="42.32427" lon="1.35268">
        <ele>1068.56</ele>
        <time>2024-09-28T08:30:38.000Z</time>
      </trkpt>
      <trkpt lat="42.32433" lon="1.35259">
        <ele>1069.3</ele>
        <time>2024-09-28T08:30:44.000Z</time>
      </trkpt>
      <trkpt lat="42.32438" lon="1.35246">
        <ele>1070.02</ele>
        <time>2024-09-28T08:30:49.000Z</time>
      </trkpt>
      <trkpt lat="42.32441" lon="1.35233">
        <ele>1071.12</ele>
        <time>2024-09-28T08:30:55.000Z</time>
      </trkpt>
      <trkpt lat="42.32439" lon="1.35219">
        <ele>1072.41</ele>
        <time>2024-09-28T08:31:01.000Z</time>
      </trkpt>
      <trkpt lat="42.32435" lon="1.35206">
        <ele>1073.78</ele>
        <time>2024-09-28T08:31:07.000Z</time>
      </trkpt>
      <trkpt lat="42.32428" lon="1.35196">
        <ele>1074.91</ele>
        <time>2024-09-28T08:31:12.000Z</time>
      </trkpt>
      <trkpt lat="42.32418" lon="1.35185">
        <ele>1076.02</ele>
        <time>2024-09-28T08:31:17.000Z</time>
      </trkpt>
      <trkpt lat="42.32408" lon="1.35171">
        <ele>1077.11</ele>
        <time>2024-09-28T08:31:22.000Z</time>
      </trkpt>
      <trkpt lat="42.32399" lon="1.3516">
        <ele>1078.22</ele>
        <time>2024-09-28T08:31:27.000Z</time>
      </trkpt>
      <trkpt lat="42.32391" lon="1.35153">
        <ele>1079.36</ele>
        <time>2024-09-28T08:31:32.000Z</time>
      </trkpt>
      <trkpt lat="42.32383" lon="1.35146">
        <ele>1082.24</ele>
        <time>2024-09-28T08:31:50.000Z</time>
      </trkpt>
      <trkpt lat="42.32385" lon="1.35133">
        <ele>1101.41</ele>
        <time>2024-09-28T08:41:20.999Z</time>
      </trkpt>
      <trkpt lat="42.32392" lon="1.35109">
        <ele>1101.91</ele>
        <time>2024-09-28T08:41:25.999Z</time>
      </trkpt>
      <trkpt lat="42.32396" lon="1.35093">
        <ele>1102.38</ele>
        <time>2024-09-28T08:41:30.999Z</time>
      </trkpt>
      <trkpt lat="42.32398" lon="1.35079">
        <ele>1102.81</ele>
        <time>2024-09-28T08:41:35.999Z</time>
      </trkpt>
      <trkpt lat="42.32398" lon="1.35064">
        <ele>1103.22</ele>
        <time>2024-09-28T08:41:40.999Z</time>
      </trkpt>
      <trkpt lat="42.32393" lon="1.35052">
        <ele>1103.6</ele>
        <time>2024-09-28T08:41:45.999Z</time>
      </trkpt>
      <trkpt lat="42.32384" lon="1.35044">
        <ele>1104.01</ele>
        <time>2024-09-28T08:41:51.999Z</time>
      </trkpt>
      <trkpt lat="42.32376" lon="1.35037">
        <ele>1104.33</ele>
        <time>2024-09-28T08:41:56.999Z</time>
      </trkpt>
      <trkpt lat="42.32369" lon="1.35028">
        <ele>1104.63</ele>
        <time>2024-09-28T08:42:01.999Z</time>
      </trkpt>
      <trkpt lat="42.32364" lon="1.35017">
        <ele>1104.91</ele>
        <time>2024-09-28T08:42:06.999Z</time>
      </trkpt>
      <trkpt lat="42.32361" lon="1.35004">
        <ele>1105.17</ele>
        <time>2024-09-28T08:42:11.999Z</time>
      </trkpt>
      <trkpt lat="42.32359" lon="1.34992">
        <ele>1105.42</ele>
        <time>2024-09-28T08:42:16.999Z</time>
      </trkpt>
      <trkpt lat="42.3236" lon="1.34978">
        <ele>1105.65</ele>
        <time>2024-09-28T08:42:21.999Z</time>
      </trkpt>
      <trkpt lat="42.32361" lon="1.34963">
        <ele>1105.88</ele>
        <time>2024-09-28T08:42:26.999Z</time>
      </trkpt>
      <trkpt lat="42.3236" lon="1.34948">
        <ele>1106.09</ele>
        <time>2024-09-28T08:42:31.999Z</time>
      </trkpt>
      <trkpt lat="42.32357" lon="1.34933">
        <ele>1106.29</ele>
        <time>2024-09-28T08:42:36.999Z</time>
      </trkpt>
      <trkpt lat="42.32353" lon="1.34917">
        <ele>1106.48</ele>
        <time>2024-09-28T08:42:41.999Z</time>
      </trkpt>
      <trkpt lat="42.3235" lon="1.34902">
        <ele>1106.67</ele>
        <time>2024-09-28T08:42:46.999Z</time>
      </trkpt>
      <trkpt lat="42.32349" lon="1.34886">
        <ele>1106.85</ele>
        <time>2024-09-28T08:42:51.999Z</time>
      </trkpt>
      <trkpt lat="42.32352" lon="1.34871">
        <ele>1107.03</ele>
        <time>2024-09-28T08:42:56.999Z</time>
      </trkpt>
      <trkpt lat="42.32357" lon="1.34859">
        <ele>1107.2</ele>
        <time>2024-09-28T08:43:01.999Z</time>
      </trkpt>
      <trkpt lat="42.32364" lon="1.34851">
        <ele>1107.38</ele>
        <time>2024-09-28T08:43:07.999Z</time>
      </trkpt>
      <trkpt lat="42.32373" lon="1.34843">
        <ele>1107.55</ele>
        <time>2024-09-28T08:43:13.999Z</time>
      </trkpt>
      <trkpt lat="42.32382" lon="1.34837">
        <ele>1107.73</ele>
        <time>2024-09-28T08:43:20.999Z</time>
      </trkpt>
      <trkpt lat="42.32391" lon="1.3483">
        <ele>1107.89</ele>
        <time>2024-09-28T08:43:27.999Z</time>
      </trkpt>
      <trkpt lat="42.32401" lon="1.34827">
        <ele>1108.01</ele>
        <time>2024-09-28T08:43:33.999Z</time>
      </trkpt>
      <trkpt lat="42.3241" lon="1.34824">
        <ele>1108.14</ele>
        <time>2024-09-28T08:43:39.999Z</time>
      </trkpt>
      <trkpt lat="42.3242" lon="1.34822">
        <ele>1108.28</ele>
        <time>2024-09-28T08:43:46.999Z</time>
      </trkpt>
      <trkpt lat="42.3243" lon="1.3482">
        <ele>1108.41</ele>
        <time>2024-09-28T08:43:52.999Z</time>
      </trkpt>
      <trkpt lat="42.32441" lon="1.34821">
        <ele>1108.59</ele>
        <time>2024-09-28T08:43:59.999Z</time>
      </trkpt>
      <trkpt lat="42.32449" lon="1.34825">
        <ele>1108.77</ele>
        <time>2024-09-28T08:44:06.999Z</time>
      </trkpt>
      <trkpt lat="42.32458" lon="1.34826">
        <ele>1108.93</ele>
        <time>2024-09-28T08:44:12.999Z</time>
      </trkpt>
      <trkpt lat="42.32468" lon="1.34827">
        <ele>1109.1</ele>
        <time>2024-09-28T08:44:18.999Z</time>
      </trkpt>
      <trkpt lat="42.32478" lon="1.34827">
        <ele>1109.3</ele>
        <time>2024-09-28T08:44:25.999Z</time>
      </trkpt>
      <trkpt lat="42.32487" lon="1.34827">
        <ele>1109.49</ele>
        <time>2024-09-28T08:44:31.999Z</time>
      </trkpt>
      <trkpt lat="42.32497" lon="1.34826">
        <ele>1109.72</ele>
        <time>2024-09-28T08:44:38.999Z</time>
      </trkpt>
      <trkpt lat="42.32507" lon="1.34826">
        <ele>1110.01</ele>
        <time>2024-09-28T08:44:47.999Z</time>
      </trkpt>
      <trkpt lat="42.32517" lon="1.34824">
        <ele>1110.26</ele>
        <time>2024-09-28T08:44:55.999Z</time>
      </trkpt>
      <trkpt lat="42.32526" lon="1.34823">
        <ele>1110.43</ele>
        <time>2024-09-28T08:45:01.999Z</time>
      </trkpt>
      <trkpt lat="42.32536" lon="1.3482">
        <ele>1110.6</ele>
        <time>2024-09-28T08:45:07.999Z</time>
      </trkpt>
      <trkpt lat="42.32546" lon="1.34818">
        <ele>1110.75</ele>
        <time>2024-09-28T08:45:12.999Z</time>
      </trkpt>
      <trkpt lat="42.32556" lon="1.34816">
        <ele>1110.95</ele>
        <time>2024-09-28T08:45:18.999Z</time>
      </trkpt>
      <trkpt lat="42.32565" lon="1.3482">
        <ele>1111.27</ele>
        <time>2024-09-28T08:45:26.999Z</time>
      </trkpt>
      <trkpt lat="42.32575" lon="1.34823">
        <ele>1111.69</ele>
        <time>2024-09-28T08:45:33.999Z</time>
      </trkpt>
      <trkpt lat="42.32585" lon="1.34824">
        <ele>1112.07</ele>
        <time>2024-09-28T08:45:39.999Z</time>
      </trkpt>
      <trkpt lat="42.32595" lon="1.34825">
        <ele>1112.35</ele>
        <time>2024-09-28T08:45:44.999Z</time>
      </trkpt>
      <trkpt lat="42.32605" lon="1.34822">
        <ele>1112.64</ele>
        <time>2024-09-28T08:45:49.999Z</time>
      </trkpt>
      <trkpt lat="42.32614" lon="1.34816">
        <ele>1112.97</ele>
        <time>2024-09-28T08:45:54.999Z</time>
      </trkpt>
      <trkpt lat="42.32625" lon="1.34803">
        <ele>1113.32</ele>
        <time>2024-09-28T08:45:59.999Z</time>
      </trkpt>
      <trkpt lat="42.32636" lon="1.34783">
        <ele>1113.72</ele>
        <time>2024-09-28T08:46:04.999Z</time>
      </trkpt>
      <trkpt lat="42.32641" lon="1.3476">
        <ele>1114.17</ele>
        <time>2024-09-28T08:46:09.999Z</time>
      </trkpt>
      <trkpt lat="42.32646" lon="1.34735">
        <ele>1116.65</ele>
        <time>2024-09-28T08:46:14.999Z</time>
      </trkpt>
      <trkpt lat="42.32652" lon="1.3471">
        <ele>1118.53</ele>
        <time>2024-09-28T08:46:19.999Z</time>
      </trkpt>
      <trkpt lat="42.32656" lon="1.34684">
        <ele>1120.36</ele>
        <time>2024-09-28T08:46:24.999Z</time>
      </trkpt>
      <trkpt lat="42.3266" lon="1.34656">
        <ele>1122.6</ele>
        <time>2024-09-28T08:46:29.999Z</time>
      </trkpt>
      <trkpt lat="42.32665" lon="1.34626">
        <ele>1124.94</ele>
        <time>2024-09-28T08:46:34.999Z</time>
      </trkpt>
      <trkpt lat="42.32667" lon="1.34596">
        <ele>1127.03</ele>
        <time>2024-09-28T08:46:39.999Z</time>
      </trkpt>
      <trkpt lat="42.32662" lon="1.34571">
        <ele>1128.02</ele>
        <time>2024-09-28T08:46:44.999Z</time>
      </trkpt>
      <trkpt lat="42.32653" lon="1.34551">
        <ele>1128.33</ele>
        <time>2024-09-28T08:46:49.999Z</time>
      </trkpt>
      <trkpt lat="42.32643" lon="1.34532">
        <ele>1128.71</ele>
        <time>2024-09-28T08:46:54.999Z</time>
      </trkpt>
      <trkpt lat="42.32637" lon="1.34512">
        <ele>1129.15</ele>
        <time>2024-09-28T08:46:59.999Z</time>
      </trkpt>
      <trkpt lat="42.32635" lon="1.34489">
        <ele>1129.59</ele>
        <time>2024-09-28T08:47:04.999Z</time>
      </trkpt>
      <trkpt lat="42.32636" lon="1.34466">
        <ele>1130.07</ele>
        <time>2024-09-28T08:47:09.999Z</time>
      </trkpt>
      <trkpt lat="42.32632" lon="1.34444">
        <ele>1130.57</ele>
        <time>2024-09-28T08:47:14.999Z</time>
      </trkpt>
      <trkpt lat="42.32622" lon="1.34426">
        <ele>1131.08</ele>
        <time>2024-09-28T08:47:19.999Z</time>
      </trkpt>
      <trkpt lat="42.32607" lon="1.34412">
        <ele>1132.35</ele>
        <time>2024-09-28T08:47:24.999Z</time>
      </trkpt>
      <trkpt lat="42.32592" lon="1.34396">
        <ele>1133.04</ele>
        <time>2024-09-28T08:47:29.999Z</time>
      </trkpt>
      <trkpt lat="42.32582" lon="1.34376">
        <ele>1133.51</ele>
        <time>2024-09-28T08:47:34.999Z</time>
      </trkpt>
      <trkpt lat="42.32578" lon="1.34352">
        <ele>1135.31</ele>
        <time>2024-09-28T08:47:39.999Z</time>
      </trkpt>
      <trkpt lat="42.32577" lon="1.34323">
        <ele>1137.81</ele>
        <time>2024-09-28T08:47:44.999Z</time>
      </trkpt>
      <trkpt lat="42.32576" lon="1.34293">
        <ele>1138.96</ele>
        <time>2024-09-28T08:47:49.999Z</time>
      </trkpt>
      <trkpt lat="42.32575" lon="1.3426">
        <ele>1139.61</ele>
        <time>2024-09-28T08:47:54.999Z</time>
      </trkpt>
      <trkpt lat="42.32574" lon="1.34225">
        <ele>1140.06</ele>
        <time>2024-09-28T08:47:59.999Z</time>
      </trkpt>
      <trkpt lat="42.32573" lon="1.34188">
        <ele>1140.42</ele>
        <time>2024-09-28T08:48:04.999Z</time>
      </trkpt>
      <trkpt lat="42.32577" lon="1.34151">
        <ele>1140.75</ele>
        <time>2024-09-28T08:48:10.000Z</time>
      </trkpt>
      <trkpt lat="42.3259" lon="1.34123">
        <ele>1141.06</ele>
        <time>2024-09-28T08:48:15.000Z</time>
      </trkpt>
      <trkpt lat="42.32607" lon="1.34106">
        <ele>1141.27</ele>
        <time>2024-09-28T08:48:20.000Z</time>
      </trkpt>
      <trkpt lat="42.32626" lon="1.34093">
        <ele>1141.32</ele>
        <time>2024-09-28T08:48:25.000Z</time>
      </trkpt>
      <trkpt lat="42.32646" lon="1.34083">
        <ele>1141.31</ele>
        <time>2024-09-28T08:48:30.000Z</time>
      </trkpt>
      <trkpt lat="42.32665" lon="1.34074">
        <ele>1141.31</ele>
        <time>2024-09-28T08:48:35.000Z</time>
      </trkpt>
      <trkpt lat="42.32685" lon="1.34067">
        <ele>1141.35</ele>
        <time>2024-09-28T08:48:40.000Z</time>
      </trkpt>
      <trkpt lat="42.32705" lon="1.34062">
        <ele>1141.36</ele>
        <time>2024-09-28T08:48:45.000Z</time>
      </trkpt>
      <trkpt lat="42.32723" lon="1.34059">
        <ele>1141.36</ele>
        <time>2024-09-28T08:48:50.000Z</time>
      </trkpt>
      <trkpt lat="42.3274" lon="1.34056">
        <ele>1141.35</ele>
        <time>2024-09-28T08:48:55.000Z</time>
      </trkpt>
      <trkpt lat="42.32757" lon="1.34052">
        <ele>1141.34</ele>
        <time>2024-09-28T08:49:00.000Z</time>
      </trkpt>
      <trkpt lat="42.32774" lon="1.34048">
        <ele>1141.33</ele>
        <time>2024-09-28T08:49:05.000Z</time>
      </trkpt>
      <trkpt lat="42.32788" lon="1.34043">
        <ele>1141.32</ele>
        <time>2024-09-28T08:49:10.000Z</time>
      </trkpt>
      <trkpt lat="42.32804" lon="1.34037">
        <ele>1141.31</ele>
        <time>2024-09-28T08:49:15.000Z</time>
      </trkpt>
      <trkpt lat="42.3282" lon="1.34031">
        <ele>1141.3</ele>
        <time>2024-09-28T08:49:20.000Z</time>
      </trkpt>
      <trkpt lat="42.32836" lon="1.34027">
        <ele>1141.29</ele>
        <time>2024-09-28T08:49:25.000Z</time>
      </trkpt>
      <trkpt lat="42.32852" lon="1.34024">
        <ele>1141.3</ele>
        <time>2024-09-28T08:49:30.000Z</time>
      </trkpt>
      <trkpt lat="42.32866" lon="1.34022">
        <ele>1141.3</ele>
        <time>2024-09-28T08:49:35.000Z</time>
      </trkpt>
      <trkpt lat="42.32882" lon="1.34022">
        <ele>1141.32</ele>
        <time>2024-09-28T08:49:40.000Z</time>
      </trkpt>
      <trkpt lat="42.32897" lon="1.34023">
        <ele>1141.37</ele>
        <time>2024-09-28T08:49:45.000Z</time>
      </trkpt>
      <trkpt lat="42.32909" lon="1.34024">
        <ele>1141.44</ele>
        <time>2024-09-28T08:49:50.000Z</time>
      </trkpt>
      <trkpt lat="42.32919" lon="1.34026">
        <ele>1141.54</ele>
        <time>2024-09-28T08:49:55.000Z</time>
      </trkpt>
      <trkpt lat="42.32929" lon="1.34029">
        <ele>1141.65</ele>
        <time>2024-09-28T08:50:00.000Z</time>
      </trkpt>
      <trkpt lat="42.32939" lon="1.34032">
        <ele>1141.76</ele>
        <time>2024-09-28T08:50:05.000Z</time>
      </trkpt>
      <trkpt lat="42.3295" lon="1.34033">
        <ele>1141.88</ele>
        <time>2024-09-28T08:50:10.000Z</time>
      </trkpt>
      <trkpt lat="42.32961" lon="1.34035">
        <ele>1142</ele>
        <time>2024-09-28T08:50:15.000Z</time>
      </trkpt>
      <trkpt lat="42.32972" lon="1.34035">
        <ele>1142.13</ele>
        <time>2024-09-28T08:50:20.000Z</time>
      </trkpt>
      <trkpt lat="42.32984" lon="1.34035">
        <ele>1142.28</ele>
        <time>2024-09-28T08:50:25.000Z</time>
      </trkpt>
      <trkpt lat="42.32993" lon="1.34034">
        <ele>1142.43</ele>
        <time>2024-09-28T08:50:30.000Z</time>
      </trkpt>
      <trkpt lat="42.33003" lon="1.34033">
        <ele>1142.58</ele>
        <time>2024-09-28T08:50:35.000Z</time>
      </trkpt>
      <trkpt lat="42.33014" lon="1.34031">
        <ele>1142.72</ele>
        <time>2024-09-28T08:50:40.000Z</time>
      </trkpt>
      <trkpt lat="42.33025" lon="1.3403">
        <ele>1142.86</ele>
        <time>2024-09-28T08:50:45.000Z</time>
      </trkpt>
      <trkpt lat="42.33035" lon="1.3403">
        <ele>1143.01</ele>
        <time>2024-09-28T08:50:50.000Z</time>
      </trkpt>
      <trkpt lat="42.33046" lon="1.34031">
        <ele>1143.15</ele>
        <time>2024-09-28T08:50:55.000Z</time>
      </trkpt>
      <trkpt lat="42.33056" lon="1.34035">
        <ele>1143.36</ele>
        <time>2024-09-28T08:51:01.000Z</time>
      </trkpt>
      <trkpt lat="42.33066" lon="1.34041">
        <ele>1143.56</ele>
        <time>2024-09-28T08:51:06.000Z</time>
      </trkpt>
      <trkpt lat="42.33074" lon="1.34046">
        <ele>1143.77</ele>
        <time>2024-09-28T08:51:11.000Z</time>
      </trkpt>
      <trkpt lat="42.33083" lon="1.34053">
        <ele>1144.09</ele>
        <time>2024-09-28T08:51:17.000Z</time>
      </trkpt>
      <trkpt lat="42.33092" lon="1.34059">
        <ele>1144.37</ele>
        <time>2024-09-28T08:51:22.000Z</time>
      </trkpt>
      <trkpt lat="42.33101" lon="1.34064">
        <ele>1144.66</ele>
        <time>2024-09-28T08:51:27.000Z</time>
      </trkpt>
      <trkpt lat="42.33111" lon="1.34067">
        <ele>1144.98</ele>
        <time>2024-09-28T08:51:32.000Z</time>
      </trkpt>
      <trkpt lat="42.33121" lon="1.34069">
        <ele>1145.31</ele>
        <time>2024-09-28T08:51:37.000Z</time>
      </trkpt>
      <trkpt lat="42.33132" lon="1.34069">
        <ele>1145.65</ele>
        <time>2024-09-28T08:51:42.000Z</time>
      </trkpt>
      <trkpt lat="42.33143" lon="1.34067">
        <ele>1145.99</ele>
        <time>2024-09-28T08:51:47.000Z</time>
      </trkpt>
      <trkpt lat="42.33155" lon="1.34064">
        <ele>1146.35</ele>
        <time>2024-09-28T08:51:52.000Z</time>
      </trkpt>
      <trkpt lat="42.33167" lon="1.34062">
        <ele>1146.75</ele>
        <time>2024-09-28T08:51:57.000Z</time>
      </trkpt>
      <trkpt lat="42.33177" lon="1.34058">
        <ele>1147.18</ele>
        <time>2024-09-28T08:52:02.000Z</time>
      </trkpt>
      <trkpt lat="42.33188" lon="1.34056">
        <ele>1147.62</ele>
        <time>2024-09-28T08:52:07.000Z</time>
      </trkpt>
      <trkpt lat="42.33199" lon="1.34053">
        <ele>1148.07</ele>
        <time>2024-09-28T08:52:12.000Z</time>
      </trkpt>
      <trkpt lat="42.3321" lon="1.34051">
        <ele>1148.53</ele>
        <time>2024-09-28T08:52:17.000Z</time>
      </trkpt>
      <trkpt lat="42.33221" lon="1.34048">
        <ele>1148.99</ele>
        <time>2024-09-28T08:52:22.000Z</time>
      </trkpt>
      <trkpt lat="42.33232" lon="1.34045">
        <ele>1149.46</ele>
        <time>2024-09-28T08:52:27.000Z</time>
      </trkpt>
      <trkpt lat="42.33243" lon="1.34041">
        <ele>1149.92</ele>
        <time>2024-09-28T08:52:32.000Z</time>
      </trkpt>
      <trkpt lat="42.33253" lon="1.34035">
        <ele>1150.38</ele>
        <time>2024-09-28T08:52:37.000Z</time>
      </trkpt>
      <trkpt lat="42.3326" lon="1.34028">
        <ele>1150.86</ele>
        <time>2024-09-28T08:52:42.000Z</time>
      </trkpt>
      <trkpt lat="42.33267" lon="1.34018">
        <ele>1151.33</ele>
        <time>2024-09-28T08:52:47.000Z</time>
      </trkpt>
      <trkpt lat="42.33273" lon="1.34008">
        <ele>1151.8</ele>
        <time>2024-09-28T08:52:52.000Z</time>
      </trkpt>
      <trkpt lat="42.3328" lon="1.33997">
        <ele>1152.26</ele>
        <time>2024-09-28T08:52:57.000Z</time>
      </trkpt>
      <trkpt lat="42.33287" lon="1.33987">
        <ele>1152.77</ele>
        <time>2024-09-28T08:53:02.000Z</time>
      </trkpt>
      <trkpt lat="42.33295" lon="1.33978">
        <ele>1153.37</ele>
        <time>2024-09-28T08:53:08.000Z</time>
      </trkpt>
      <trkpt lat="42.33303" lon="1.33972">
        <ele>1153.86</ele>
        <time>2024-09-28T08:53:13.000Z</time>
      </trkpt>
      <trkpt lat="42.33313" lon="1.33968">
        <ele>1154.45</ele>
        <time>2024-09-28T08:53:19.000Z</time>
      </trkpt>
      <trkpt lat="42.33322" lon="1.33967">
        <ele>1154.94</ele>
        <time>2024-09-28T08:53:24.000Z</time>
      </trkpt>
      <trkpt lat="42.33332" lon="1.33967">
        <ele>1155.48</ele>
        <time>2024-09-28T08:53:29.000Z</time>
      </trkpt>
      <trkpt lat="42.33341" lon="1.33972">
        <ele>1156.14</ele>
        <time>2024-09-28T08:53:35.000Z</time>
      </trkpt>
      <trkpt lat="42.33348" lon="1.33979">
        <ele>1156.78</ele>
        <time>2024-09-28T08:53:41.000Z</time>
      </trkpt>
      <trkpt lat="42.33355" lon="1.33988">
        <ele>1157.41</ele>
        <time>2024-09-28T08:53:47.000Z</time>
      </trkpt>
      <trkpt lat="42.33361" lon="1.33999">
        <ele>1158.03</ele>
        <time>2024-09-28T08:53:53.000Z</time>
      </trkpt>
      <trkpt lat="42.33365" lon="1.3401">
        <ele>1158.57</ele>
        <time>2024-09-28T08:53:58.000Z</time>
      </trkpt>
      <trkpt lat="42.33371" lon="1.34022">
        <ele>1159.21</ele>
        <time>2024-09-28T08:54:04.000Z</time>
      </trkpt>
      <trkpt lat="42.33374" lon="1.34033">
        <ele>1159.98</ele>
        <time>2024-09-28T08:54:11.000Z</time>
      </trkpt>
      <trkpt lat="42.33381" lon="1.34043">
        <ele>1160.66</ele>
        <time>2024-09-28T08:54:17.000Z</time>
      </trkpt>
      <trkpt lat="42.33388" lon="1.34053">
        <ele>1161.3</ele>
        <time>2024-09-28T08:54:23.000Z</time>
      </trkpt>
      <trkpt lat="42.33397" lon="1.3406">
        <ele>1161.92</ele>
        <time>2024-09-28T08:54:29.000Z</time>
      </trkpt>
      <trkpt lat="42.33407" lon="1.34061">
        <ele>1162.57</ele>
        <time>2024-09-28T08:54:35.000Z</time>
      </trkpt>
      <trkpt lat="42.33417" lon="1.34062">
        <ele>1163.22</ele>
        <time>2024-09-28T08:54:41.000Z</time>
      </trkpt>
      <trkpt lat="42.33427" lon="1.34057">
        <ele>1163.9</ele>
        <time>2024-09-28T08:54:47.000Z</time>
      </trkpt>
      <trkpt lat="42.33435" lon="1.3405">
        <ele>1164.46</ele>
        <time>2024-09-28T08:54:52.000Z</time>
      </trkpt>
      <trkpt lat="42.33445" lon="1.34038">
        <ele>1165.03</ele>
        <time>2024-09-28T08:54:57.000Z</time>
      </trkpt>
      <trkpt lat="42.33456" lon="1.34025">
        <ele>1165.67</ele>
        <time>2024-09-28T08:55:02.000Z</time>
      </trkpt>
      <trkpt lat="42.33467" lon="1.34013">
        <ele>1166.42</ele>
        <time>2024-09-28T08:55:07.000Z</time>
      </trkpt>
      <trkpt lat="42.33479" lon="1.34005">
        <ele>1167.27</ele>
        <time>2024-09-28T08:55:12.000Z</time>
      </trkpt>
      <trkpt lat="42.33491" lon="1.34002">
        <ele>1168.16</ele>
        <time>2024-09-28T08:55:17.000Z</time>
      </trkpt>
      <trkpt lat="42.33504" lon="1.34003">
        <ele>1169.06</ele>
        <time>2024-09-28T08:55:22.000Z</time>
      </trkpt>
      <trkpt lat="42.33516" lon="1.34008">
        <ele>1169.97</ele>
        <time>2024-09-28T08:55:27.000Z</time>
      </trkpt>
      <trkpt lat="42.33526" lon="1.34015">
        <ele>1170.85</ele>
        <time>2024-09-28T08:55:32.000Z</time>
      </trkpt>
      <trkpt lat="42.33541" lon="1.34016">
        <ele>1171.71</ele>
        <time>2024-09-28T08:55:37.000Z</time>
      </trkpt>
      <trkpt lat="42.33554" lon="1.34">
        <ele>1172.54</ele>
        <time>2024-09-28T08:55:42.000Z</time>
      </trkpt>
      <trkpt lat="42.33568" lon="1.33982">
        <ele>1177.29</ele>
        <time>2024-09-28T08:55:47.000Z</time>
      </trkpt>
      <trkpt lat="42.33587" lon="1.33971">
        <ele>1180.35</ele>
        <time>2024-09-28T08:55:52.000Z</time>
      </trkpt>
      <trkpt lat="42.33606" lon="1.33971">
        <ele>1180.96</ele>
        <time>2024-09-28T08:55:57.000Z</time>
      </trkpt>
      <trkpt lat="42.33615" lon="1.33974">
        <ele>1181.13</ele>
        <time>2024-09-28T08:56:02.000Z</time>
      </trkpt>
      <trkpt lat="42.33627" lon="1.33979">
        <ele>1181.34</ele>
        <time>2024-09-28T08:56:07.000Z</time>
      </trkpt>
      <trkpt lat="42.3364" lon="1.33977">
        <ele>1181.58</ele>
        <time>2024-09-28T08:56:12.000Z</time>
      </trkpt>
      <trkpt lat="42.33649" lon="1.33965">
        <ele>1181.83</ele>
        <time>2024-09-28T08:56:17.000Z</time>
      </trkpt>
      <trkpt lat="42.33652" lon="1.33945">
        <ele>1182.11</ele>
        <time>2024-09-28T08:56:22.000Z</time>
      </trkpt>
      <trkpt lat="42.33652" lon="1.33923">
        <ele>1182.44</ele>
        <time>2024-09-28T08:56:27.000Z</time>
      </trkpt>
      <trkpt lat="42.33655" lon="1.33901">
        <ele>1182.84</ele>
        <time>2024-09-28T08:56:32.000Z</time>
      </trkpt>
      <trkpt lat="42.33662" lon="1.3388">
        <ele>1183.28</ele>
        <time>2024-09-28T08:56:37.000Z</time>
      </trkpt>
      <trkpt lat="42.33671" lon="1.33861">
        <ele>1183.7</ele>
        <time>2024-09-28T08:56:42.000Z</time>
      </trkpt>
      <trkpt lat="42.33685" lon="1.33844">
        <ele>1186.25</ele>
        <time>2024-09-28T08:56:47.000Z</time>
      </trkpt>
      <trkpt lat="42.33703" lon="1.33828">
        <ele>1187.84</ele>
        <time>2024-09-28T08:56:52.000Z</time>
      </trkpt>
      <trkpt lat="42.3372" lon="1.33811">
        <ele>1188.59</ele>
        <time>2024-09-28T08:56:57.000Z</time>
      </trkpt>
      <trkpt lat="42.33736" lon="1.33792">
        <ele>1189.12</ele>
        <time>2024-09-28T08:57:02.000Z</time>
      </trkpt>
      <trkpt lat="42.33753" lon="1.33774">
        <ele>1189.58</ele>
        <time>2024-09-28T08:57:07.000Z</time>
      </trkpt>
      <trkpt lat="42.3377" lon="1.33757">
        <ele>1189.99</ele>
        <time>2024-09-28T08:57:12.000Z</time>
      </trkpt>
      <trkpt lat="42.33786" lon="1.33743">
        <ele>1190.13</ele>
        <time>2024-09-28T08:57:17.000Z</time>
      </trkpt>
      <trkpt lat="42.33801" lon="1.3373">
        <ele>1190.15</ele>
        <time>2024-09-28T08:57:22.000Z</time>
      </trkpt>
      <trkpt lat="42.33817" lon="1.33717">
        <ele>1190.2</ele>
        <time>2024-09-28T08:57:27.000Z</time>
      </trkpt>
      <trkpt lat="42.33834" lon="1.33707">
        <ele>1190.42</ele>
        <time>2024-09-28T08:57:32.000Z</time>
      </trkpt>
      <trkpt lat="42.33853" lon="1.33701">
        <ele>1190.88</ele>
        <time>2024-09-28T08:57:37.000Z</time>
      </trkpt>
      <trkpt lat="42.33872" lon="1.33695">
        <ele>1191.18</ele>
        <time>2024-09-28T08:57:42.000Z</time>
      </trkpt>
      <trkpt lat="42.33892" lon="1.3369">
        <ele>1191.37</ele>
        <time>2024-09-28T08:57:47.000Z</time>
      </trkpt>
      <trkpt lat="42.3391" lon="1.33683">
        <ele>1191.46</ele>
        <time>2024-09-28T08:57:52.000Z</time>
      </trkpt>
      <trkpt lat="42.33928" lon="1.33672">
        <ele>1191.6</ele>
        <time>2024-09-28T08:57:57.000Z</time>
      </trkpt>
      <trkpt lat="42.33942" lon="1.33654">
        <ele>1191.75</ele>
        <time>2024-09-28T08:58:02.000Z</time>
      </trkpt>
      <trkpt lat="42.33952" lon="1.33635">
        <ele>1191.79</ele>
        <time>2024-09-28T08:58:07.000Z</time>
      </trkpt>
      <trkpt lat="42.33961" lon="1.33617">
        <ele>1191.85</ele>
        <time>2024-09-28T08:58:12.000Z</time>
      </trkpt>
      <trkpt lat="42.33971" lon="1.33599">
        <ele>1191.94</ele>
        <time>2024-09-28T08:58:17.000Z</time>
      </trkpt>
      <trkpt lat="42.33983" lon="1.33584">
        <ele>1192.05</ele>
        <time>2024-09-28T08:58:22.000Z</time>
      </trkpt>
      <trkpt lat="42.33997" lon="1.3357">
        <ele>1192.18</ele>
        <time>2024-09-28T08:58:27.000Z</time>
      </trkpt>
      <trkpt lat="42.3401" lon="1.33559">
        <ele>1192.32</ele>
        <time>2024-09-28T08:58:32.000Z</time>
      </trkpt>
      <trkpt lat="42.34021" lon="1.3355">
        <ele>1192.49</ele>
        <time>2024-09-28T08:58:37.000Z</time>
      </trkpt>
      <trkpt lat="42.34031" lon="1.33541">
        <ele>1192.67</ele>
        <time>2024-09-28T08:58:42.000Z</time>
      </trkpt>
      <trkpt lat="42.3404" lon="1.33528">
        <ele>1192.85</ele>
        <time>2024-09-28T08:58:47.000Z</time>
      </trkpt>
      <trkpt lat="42.34049" lon="1.33513">
        <ele>1193.04</ele>
        <time>2024-09-28T08:58:52.000Z</time>
      </trkpt>
      <trkpt lat="42.34057" lon="1.33498">
        <ele>1193.23</ele>
        <time>2024-09-28T08:58:57.000Z</time>
      </trkpt>
      <trkpt lat="42.34065" lon="1.33478">
        <ele>1193.41</ele>
        <time>2024-09-28T08:59:02.000Z</time>
      </trkpt>
      <trkpt lat="42.34072" lon="1.33458">
        <ele>1193.61</ele>
        <time>2024-09-28T08:59:07.000Z</time>
      </trkpt>
      <trkpt lat="42.3408" lon="1.33439">
        <ele>1193.8</ele>
        <time>2024-09-28T08:59:12.000Z</time>
      </trkpt>
      <trkpt lat="42.34087" lon="1.33422">
        <ele>1193.98</ele>
        <time>2024-09-28T08:59:17.000Z</time>
      </trkpt>
      <trkpt lat="42.34094" lon="1.33409">
        <ele>1194.17</ele>
        <time>2024-09-28T08:59:22.000Z</time>
      </trkpt>
      <trkpt lat="42.34101" lon="1.33395">
        <ele>1194.35</ele>
        <time>2024-09-28T08:59:27.000Z</time>
      </trkpt>
      <trkpt lat="42.34108" lon="1.33385">
        <ele>1194.54</ele>
        <time>2024-09-28T08:59:32.000Z</time>
      </trkpt>
      <trkpt lat="42.34116" lon="1.33376">
        <ele>1194.76</ele>
        <time>2024-09-28T08:59:38.000Z</time>
      </trkpt>
      <trkpt lat="42.34124" lon="1.33368">
        <ele>1194.96</ele>
        <time>2024-09-28T08:59:43.000Z</time>
      </trkpt>
      <trkpt lat="42.34132" lon="1.3336">
        <ele>1195.15</ele>
        <time>2024-09-28T08:59:48.000Z</time>
      </trkpt>
      <trkpt lat="42.34141" lon="1.33352">
        <ele>1195.34</ele>
        <time>2024-09-28T08:59:53.000Z</time>
      </trkpt>
      <trkpt lat="42.34151" lon="1.33345">
        <ele>1195.53</ele>
        <time>2024-09-28T08:59:58.000Z</time>
      </trkpt>
      <trkpt lat="42.34159" lon="1.33337">
        <ele>1195.71</ele>
        <time>2024-09-28T09:00:03.000Z</time>
      </trkpt>
      <trkpt lat="42.34168" lon="1.33328">
        <ele>1195.9</ele>
        <time>2024-09-28T09:00:08.000Z</time>
      </trkpt>
      <trkpt lat="42.34176" lon="1.33319">
        <ele>1196.08</ele>
        <time>2024-09-28T09:00:13.000Z</time>
      </trkpt>
      <trkpt lat="42.34184" lon="1.33309">
        <ele>1196.27</ele>
        <time>2024-09-28T09:00:18.000Z</time>
      </trkpt>
      <trkpt lat="42.34192" lon="1.33299">
        <ele>1196.46</ele>
        <time>2024-09-28T09:00:23.000Z</time>
      </trkpt>
      <trkpt lat="42.342" lon="1.33289">
        <ele>1196.65</ele>
        <time>2024-09-28T09:00:28.000Z</time>
      </trkpt>
      <trkpt lat="42.34209" lon="1.33277">
        <ele>1196.89</ele>
        <time>2024-09-28T09:00:33.999Z</time>
      </trkpt>
      <trkpt lat="42.34217" lon="1.33268">
        <ele>1197.09</ele>
        <time>2024-09-28T09:00:38.999Z</time>
      </trkpt>
      <trkpt lat="42.34224" lon="1.3326">
        <ele>1197.29</ele>
        <time>2024-09-28T09:00:43.999Z</time>
      </trkpt>
      <trkpt lat="42.34232" lon="1.33253">
        <ele>1197.53</ele>
        <time>2024-09-28T09:00:49.999Z</time>
      </trkpt>
      <trkpt lat="42.34241" lon="1.33245">
        <ele>1197.78</ele>
        <time>2024-09-28T09:00:55.999Z</time>
      </trkpt>
      <trkpt lat="42.3425" lon="1.33239">
        <ele>1198.02</ele>
        <time>2024-09-28T09:01:01.999Z</time>
      </trkpt>
      <trkpt lat="42.34259" lon="1.33233">
        <ele>1198.28</ele>
        <time>2024-09-28T09:01:07.999Z</time>
      </trkpt>
      <trkpt lat="42.34268" lon="1.33227">
        <ele>1198.54</ele>
        <time>2024-09-28T09:01:13.999Z</time>
      </trkpt>
      <trkpt lat="42.34278" lon="1.33222">
        <ele>1198.8</ele>
        <time>2024-09-28T09:01:19.999Z</time>
      </trkpt>
      <trkpt lat="42.34288" lon="1.33217">
        <ele>1199.07</ele>
        <time>2024-09-28T09:01:25.999Z</time>
      </trkpt>
      <trkpt lat="42.34297" lon="1.33213">
        <ele>1199.34</ele>
        <time>2024-09-28T09:01:31.999Z</time>
      </trkpt>
      <trkpt lat="42.34307" lon="1.33209">
        <ele>1199.61</ele>
        <time>2024-09-28T09:01:37.999Z</time>
      </trkpt>
      <trkpt lat="42.34316" lon="1.33206">
        <ele>1199.84</ele>
        <time>2024-09-28T09:01:42.999Z</time>
      </trkpt>
      <trkpt lat="42.34325" lon="1.33203">
        <ele>1200.08</ele>
        <time>2024-09-28T09:01:47.999Z</time>
      </trkpt>
      <trkpt lat="42.34334" lon="1.332">
        <ele>1200.36</ele>
        <time>2024-09-28T09:01:53.999Z</time>
      </trkpt>
      <trkpt lat="42.34344" lon="1.33196">
        <ele>1200.65</ele>
        <time>2024-09-28T09:01:59.999Z</time>
      </trkpt>
      <trkpt lat="42.34355" lon="1.33192">
        <ele>1200.96</ele>
        <time>2024-09-28T09:02:05.999Z</time>
      </trkpt>
      <trkpt lat="42.34364" lon="1.33188">
        <ele>1201.27</ele>
        <time>2024-09-28T09:02:11.999Z</time>
      </trkpt>
      <trkpt lat="42.34374" lon="1.33183">
        <ele>1201.59</ele>
        <time>2024-09-28T09:02:17.999Z</time>
      </trkpt>
      <trkpt lat="42.34383" lon="1.33178">
        <ele>1201.87</ele>
        <time>2024-09-28T09:02:22.999Z</time>
      </trkpt>
      <trkpt lat="42.34392" lon="1.33173">
        <ele>1202.15</ele>
        <time>2024-09-28T09:02:27.999Z</time>
      </trkpt>
      <trkpt lat="42.34401" lon="1.33168">
        <ele>1202.44</ele>
        <time>2024-09-28T09:02:32.999Z</time>
      </trkpt>
      <trkpt lat="42.34409" lon="1.33162">
        <ele>1202.76</ele>
        <time>2024-09-28T09:02:37.999Z</time>
      </trkpt>
      <trkpt lat="42.34418" lon="1.33157">
        <ele>1203.13</ele>
        <time>2024-09-28T09:02:42.999Z</time>
      </trkpt>
      <trkpt lat="42.34427" lon="1.33151">
        <ele>1203.53</ele>
        <time>2024-09-28T09:02:47.999Z</time>
      </trkpt>
      <trkpt lat="42.34436" lon="1.33143">
        <ele>1203.95</ele>
        <time>2024-09-28T09:02:52.999Z</time>
      </trkpt>
      <trkpt lat="42.34448" lon="1.33137">
        <ele>1204.41</ele>
        <time>2024-09-28T09:02:57.999Z</time>
      </trkpt>
      <trkpt lat="42.34459" lon="1.33129">
        <ele>1204.88</ele>
        <time>2024-09-28T09:03:02.999Z</time>
      </trkpt>
      <trkpt lat="42.34472" lon="1.33123">
        <ele>1205.38</ele>
        <time>2024-09-28T09:03:07.999Z</time>
      </trkpt>
      <trkpt lat="42.34486" lon="1.33117">
        <ele>1205.9</ele>
        <time>2024-09-28T09:03:12.999Z</time>
      </trkpt>
      <trkpt lat="42.345" lon="1.33114">
        <ele>1206.43</ele>
        <time>2024-09-28T09:03:17.999Z</time>
      </trkpt>
      <trkpt lat="42.34515" lon="1.33112">
        <ele>1206.98</ele>
        <time>2024-09-28T09:03:22.999Z</time>
      </trkpt>
      <trkpt lat="42.34529" lon="1.33109">
        <ele>1207.55</ele>
        <time>2024-09-28T09:03:27.999Z</time>
      </trkpt>
      <trkpt lat="42.34543" lon="1.33107">
        <ele>1208.14</ele>
        <time>2024-09-28T09:03:32.999Z</time>
      </trkpt>
      <trkpt lat="42.34558" lon="1.33105">
        <ele>1208.74</ele>
        <time>2024-09-28T09:03:37.999Z</time>
      </trkpt>
      <trkpt lat="42.34573" lon="1.33101">
        <ele>1209.39</ele>
        <time>2024-09-28T09:03:42.999Z</time>
      </trkpt>
      <trkpt lat="42.34586" lon="1.33097">
        <ele>1210.07</ele>
        <time>2024-09-28T09:03:47.999Z</time>
      </trkpt>
      <trkpt lat="42.34596" lon="1.33093">
        <ele>1210.75</ele>
        <time>2024-09-28T09:03:52.999Z</time>
      </trkpt>
      <trkpt lat="42.34605" lon="1.33088">
        <ele>1211.44</ele>
        <time>2024-09-28T09:03:57.999Z</time>
      </trkpt>
      <trkpt lat="42.34614" lon="1.33083">
        <ele>1212.13</ele>
        <time>2024-09-28T09:04:02.999Z</time>
      </trkpt>
      <trkpt lat="42.34623" lon="1.33076">
        <ele>1212.82</ele>
        <time>2024-09-28T09:04:07.999Z</time>
      </trkpt>
      <trkpt lat="42.34632" lon="1.33069">
        <ele>1213.51</ele>
        <time>2024-09-28T09:04:12.999Z</time>
      </trkpt>
      <trkpt lat="42.34641" lon="1.33062">
        <ele>1214.2</ele>
        <time>2024-09-28T09:04:17.999Z</time>
      </trkpt>
      <trkpt lat="42.3465" lon="1.33053">
        <ele>1214.89</ele>
        <time>2024-09-28T09:04:22.999Z</time>
      </trkpt>
      <trkpt lat="42.34658" lon="1.33043">
        <ele>1215.57</ele>
        <time>2024-09-28T09:04:27.999Z</time>
      </trkpt>
      <trkpt lat="42.34667" lon="1.33034">
        <ele>1216.23</ele>
        <time>2024-09-28T09:04:32.999Z</time>
      </trkpt>
      <trkpt lat="42.34676" lon="1.33024">
        <ele>1216.89</ele>
        <time>2024-09-28T09:04:37.999Z</time>
      </trkpt>
      <trkpt lat="42.34684" lon="1.33014">
        <ele>1217.55</ele>
        <time>2024-09-28T09:04:42.999Z</time>
      </trkpt>
      <trkpt lat="42.34694" lon="1.33006">
        <ele>1218.21</ele>
        <time>2024-09-28T09:04:47.999Z</time>
      </trkpt>
      <trkpt lat="42.34703" lon="1.32997">
        <ele>1218.87</ele>
        <time>2024-09-28T09:04:52.999Z</time>
      </trkpt>
      <trkpt lat="42.34712" lon="1.3299">
        <ele>1219.52</ele>
        <time>2024-09-28T09:04:57.999Z</time>
      </trkpt>
      <trkpt lat="42.34722" lon="1.32984">
        <ele>1220.17</ele>
        <time>2024-09-28T09:05:02.999Z</time>
      </trkpt>
      <trkpt lat="42.34733" lon="1.3298">
        <ele>1220.87</ele>
        <time>2024-09-28T09:05:07.999Z</time>
      </trkpt>
      <trkpt lat="42.34744" lon="1.32979">
        <ele>1221.71</ele>
        <time>2024-09-28T09:05:13.999Z</time>
      </trkpt>
      <trkpt lat="42.34754" lon="1.32979">
        <ele>1222.43</ele>
        <time>2024-09-28T09:05:18.999Z</time>
      </trkpt>
      <trkpt lat="42.34764" lon="1.32982">
        <ele>1223.16</ele>
        <time>2024-09-28T09:05:23.999Z</time>
      </trkpt>
      <trkpt lat="42.34774" lon="1.32986">
        <ele>1223.9</ele>
        <time>2024-09-28T09:05:28.999Z</time>
      </trkpt>
      <trkpt lat="42.34783" lon="1.32993">
        <ele>1224.65</ele>
        <time>2024-09-28T09:05:33.999Z</time>
      </trkpt>
      <trkpt lat="42.34791" lon="1.33">
        <ele>1225.39</ele>
        <time>2024-09-28T09:05:38.999Z</time>
      </trkpt>
      <trkpt lat="42.34799" lon="1.33009">
        <ele>1226.11</ele>
        <time>2024-09-28T09:05:43.999Z</time>
      </trkpt>
      <trkpt lat="42.34806" lon="1.33018">
        <ele>1226.84</ele>
        <time>2024-09-28T09:05:48.999Z</time>
      </trkpt>
      <trkpt lat="42.34813" lon="1.33027">
        <ele>1227.57</ele>
        <time>2024-09-28T09:05:53.999Z</time>
      </trkpt>
      <trkpt lat="42.3482" lon="1.33035">
        <ele>1228.31</ele>
        <time>2024-09-28T09:05:58.999Z</time>
      </trkpt>
      <trkpt lat="42.34828" lon="1.33043">
        <ele>1229.05</ele>
        <time>2024-09-28T09:06:03.999Z</time>
      </trkpt>
      <trkpt lat="42.34836" lon="1.33052">
        <ele>1229.78</ele>
        <time>2024-09-28T09:06:08.999Z</time>
      </trkpt>
      <trkpt lat="42.34847" lon="1.3306">
        <ele>1230.52</ele>
        <time>2024-09-28T09:06:13.999Z</time>
      </trkpt>
      <trkpt lat="42.34859" lon="1.33068">
        <ele>1231.29</ele>
        <time>2024-09-28T09:06:18.999Z</time>
      </trkpt>
      <trkpt lat="42.34873" lon="1.33075">
        <ele>1232.04</ele>
        <time>2024-09-28T09:06:23.999Z</time>
      </trkpt>
      <trkpt lat="42.34888" lon="1.33076">
        <ele>1232.75</ele>
        <time>2024-09-28T09:06:28.999Z</time>
      </trkpt>
      <trkpt lat="42.34904" lon="1.33073">
        <ele>1233.41</ele>
        <time>2024-09-28T09:06:33.999Z</time>
      </trkpt>
      <trkpt lat="42.34918" lon="1.33067">
        <ele>1234.02</ele>
        <time>2024-09-28T09:06:38.999Z</time>
      </trkpt>
      <trkpt lat="42.34932" lon="1.33059">
        <ele>1234.59</ele>
        <time>2024-09-28T09:06:43.999Z</time>
      </trkpt>
      <trkpt lat="42.34945" lon="1.33048">
        <ele>1235.17</ele>
        <time>2024-09-28T09:06:48.999Z</time>
      </trkpt>
      <trkpt lat="42.34955" lon="1.33036">
        <ele>1235.74</ele>
        <time>2024-09-28T09:06:53.999Z</time>
      </trkpt>
      <trkpt lat="42.34966" lon="1.33018">
        <ele>1236.29</ele>
        <time>2024-09-28T09:06:58.999Z</time>
      </trkpt>
      <trkpt lat="42.34973" lon="1.33001">
        <ele>1236.84</ele>
        <time>2024-09-28T09:07:03.999Z</time>
      </trkpt>
      <trkpt lat="42.3498" lon="1.32982">
        <ele>1237.37</ele>
        <time>2024-09-28T09:07:08.999Z</time>
      </trkpt>
      <trkpt lat="42.34986" lon="1.32965">
        <ele>1237.9</ele>
        <time>2024-09-28T09:07:13.999Z</time>
      </trkpt>
      <trkpt lat="42.34993" lon="1.32947">
        <ele>1238.56</ele>
        <time>2024-09-28T09:07:18.999Z</time>
      </trkpt>
      <trkpt lat="42.35" lon="1.32931">
        <ele>1239.33</ele>
        <time>2024-09-28T09:07:23.999Z</time>
      </trkpt>
      <trkpt lat="42.35007" lon="1.32919">
        <ele>1240.17</ele>
        <time>2024-09-28T09:07:28.999Z</time>
      </trkpt>
      <trkpt lat="42.35014" lon="1.32909">
        <ele>1241.03</ele>
        <time>2024-09-28T09:07:33.999Z</time>
      </trkpt>
      <trkpt lat="42.35021" lon="1.32899">
        <ele>1242.06</ele>
        <time>2024-09-28T09:07:39.999Z</time>
      </trkpt>
      <trkpt lat="42.35028" lon="1.3289">
        <ele>1242.92</ele>
        <time>2024-09-28T09:07:44.999Z</time>
      </trkpt>
      <trkpt lat="42.35035" lon="1.32882">
        <ele>1243.78</ele>
        <time>2024-09-28T09:07:49.999Z</time>
      </trkpt>
      <trkpt lat="42.35043" lon="1.32873">
        <ele>1244.62</ele>
        <time>2024-09-28T09:07:54.999Z</time>
      </trkpt>
      <trkpt lat="42.3505" lon="1.32866">
        <ele>1245.45</ele>
        <time>2024-09-28T09:07:59.999Z</time>
      </trkpt>
      <trkpt lat="42.35059" lon="1.3286">
        <ele>1246.25</ele>
        <time>2024-09-28T09:08:04.999Z</time>
      </trkpt>
      <trkpt lat="42.35067" lon="1.32855">
        <ele>1247.03</ele>
        <time>2024-09-28T09:08:09.999Z</time>
      </trkpt>
      <trkpt lat="42.35076" lon="1.32848">
        <ele>1247.78</ele>
        <time>2024-09-28T09:08:14.999Z</time>
      </trkpt>
      <trkpt lat="42.35086" lon="1.32843">
        <ele>1248.51</ele>
        <time>2024-09-28T09:08:19.999Z</time>
      </trkpt>
      <trkpt lat="42.35097" lon="1.32843">
        <ele>1249.21</ele>
        <time>2024-09-28T09:08:24.999Z</time>
      </trkpt>
      <trkpt lat="42.35106" lon="1.3285">
        <ele>1249.89</ele>
        <time>2024-09-28T09:08:29.999Z</time>
      </trkpt>
      <trkpt lat="42.35115" lon="1.3286">
        <ele>1250.54</ele>
        <time>2024-09-28T09:08:34.999Z</time>
      </trkpt>
      <trkpt lat="42.35122" lon="1.32874">
        <ele>1251.16</ele>
        <time>2024-09-28T09:08:39.999Z</time>
      </trkpt>
      <trkpt lat="42.35135" lon="1.32885">
        <ele>1251.77</ele>
        <time>2024-09-28T09:08:44.999Z</time>
      </trkpt>
      <trkpt lat="42.35151" lon="1.32884">
        <ele>1252.39</ele>
        <time>2024-09-28T09:08:49.999Z</time>
      </trkpt>
      <trkpt lat="42.35162" lon="1.32872">
        <ele>1253.02</ele>
        <time>2024-09-28T09:08:54.999Z</time>
      </trkpt>
      <trkpt lat="42.35167" lon="1.3285">
        <ele>1253.64</ele>
        <time>2024-09-28T09:08:59.999Z</time>
      </trkpt>
      <trkpt lat="42.35164" lon="1.32831">
        <ele>1254.28</ele>
        <time>2024-09-28T09:09:04.999Z</time>
      </trkpt>
      <trkpt lat="42.35166" lon="1.32817">
        <ele>1254.94</ele>
        <time>2024-09-28T09:09:09.999Z</time>
      </trkpt>
      <trkpt lat="42.35173" lon="1.32804">
        <ele>1267.13</ele>
        <time>2024-09-28T09:16:57.000Z</time>
      </trkpt>
      <trkpt lat="42.35183" lon="1.32783">
        <ele>1268.85</ele>
        <time>2024-09-28T09:17:02.000Z</time>
      </trkpt>
      <trkpt lat="42.35196" lon="1.32762">
        <ele>1271</ele>
        <time>2024-09-28T09:17:07.000Z</time>
      </trkpt>
      <trkpt lat="42.35218" lon="1.32753">
        <ele>1271.74</ele>
        <time>2024-09-28T09:17:12.000Z</time>
      </trkpt>
      <trkpt lat="42.35241" lon="1.32751">
        <ele>1272.01</ele>
        <time>2024-09-28T09:17:17.000Z</time>
      </trkpt>
      <trkpt lat="42.3525" lon="1.32718">
        <ele>1272.1</ele>
        <time>2024-09-28T09:17:22.000Z</time>
      </trkpt>
      <trkpt lat="42.35235" lon="1.32684">
        <ele>1272.13</ele>
        <time>2024-09-28T09:17:27.000Z</time>
      </trkpt>
      <trkpt lat="42.35211" lon="1.32645">
        <ele>1272.13</ele>
        <time>2024-09-28T09:17:32.000Z</time>
      </trkpt>
      <trkpt lat="42.35193" lon="1.32593">
        <ele>1271.99</ele>
        <time>2024-09-28T09:17:37.000Z</time>
      </trkpt>
      <trkpt lat="42.35181" lon="1.32534">
        <ele>1271.71</ele>
        <time>2024-09-28T09:17:42.000Z</time>
      </trkpt>
      <trkpt lat="42.35178" lon="1.32474">
        <ele>1271.19</ele>
        <time>2024-09-28T09:17:47.000Z</time>
      </trkpt>
      <trkpt lat="42.35181" lon="1.32417">
        <ele>1271.12</ele>
        <time>2024-09-28T09:17:52.000Z</time>
      </trkpt>
      <trkpt lat="42.35181" lon="1.32366">
        <ele>1271.15</ele>
        <time>2024-09-28T09:17:57.000Z</time>
      </trkpt>
      <trkpt lat="42.35173" lon="1.3232">
        <ele>1270.89</ele>
        <time>2024-09-28T09:18:02.000Z</time>
      </trkpt>
      <trkpt lat="42.35162" lon="1.32275">
        <ele>1270.54</ele>
        <time>2024-09-28T09:18:07.000Z</time>
      </trkpt>
      <trkpt lat="42.35158" lon="1.32229">
        <ele>1270.42</ele>
        <time>2024-09-28T09:18:12.000Z</time>
      </trkpt>
      <trkpt lat="42.35165" lon="1.32184">
        <ele>1269.97</ele>
        <time>2024-09-28T09:18:17.000Z</time>
      </trkpt>
      <trkpt lat="42.35183" lon="1.32146">
        <ele>1269.54</ele>
        <time>2024-09-28T09:18:22.000Z</time>
      </trkpt>
      <trkpt lat="42.35206" lon="1.32121">
        <ele>1269.17</ele>
        <time>2024-09-28T09:18:27.000Z</time>
      </trkpt>
      <trkpt lat="42.35229" lon="1.32104">
        <ele>1268.4</ele>
        <time>2024-09-28T09:18:32.000Z</time>
      </trkpt>
      <trkpt lat="42.3525" lon="1.32083">
        <ele>1267.48</ele>
        <time>2024-09-28T09:18:37.000Z</time>
      </trkpt>
      <trkpt lat="42.35266" lon="1.32057">
        <ele>1266.45</ele>
        <time>2024-09-28T09:18:42.000Z</time>
      </trkpt>
      <trkpt lat="42.35277" lon="1.32025">
        <ele>1265.67</ele>
        <time>2024-09-28T09:18:47.000Z</time>
      </trkpt>
      <trkpt lat="42.3528" lon="1.31991">
        <ele>1265.09</ele>
        <time>2024-09-28T09:18:52.000Z</time>
      </trkpt>
      <trkpt lat="42.35283" lon="1.3196">
        <ele>1265.08</ele>
        <time>2024-09-28T09:18:57.000Z</time>
      </trkpt>
      <trkpt lat="42.35286" lon="1.31937">
        <ele>1265.13</ele>
        <time>2024-09-28T09:19:02.000Z</time>
      </trkpt>
      <trkpt lat="42.3529" lon="1.31921">
        <ele>1265.2</ele>
        <time>2024-09-28T09:19:07.000Z</time>
      </trkpt>
      <trkpt lat="42.35295" lon="1.31905">
        <ele>1265.29</ele>
        <time>2024-09-28T09:19:12.000Z</time>
      </trkpt>
      <trkpt lat="42.353" lon="1.31892">
        <ele>1265.42</ele>
        <time>2024-09-28T09:19:17.000Z</time>
      </trkpt>
      <trkpt lat="42.35304" lon="1.31881">
        <ele>1265.56</ele>
        <time>2024-09-28T09:19:22.000Z</time>
      </trkpt>
      <trkpt lat="42.35308" lon="1.3187">
        <ele>1265.73</ele>
        <time>2024-09-28T09:19:27.000Z</time>
      </trkpt>
      <trkpt lat="42.35314" lon="1.31859">
        <ele>1265.88</ele>
        <time>2024-09-28T09:19:32.000Z</time>
      </trkpt>
      <trkpt lat="42.35318" lon="1.31847">
        <ele>1266.03</ele>
        <time>2024-09-28T09:19:37.000Z</time>
      </trkpt>
      <trkpt lat="42.35323" lon="1.31836">
        <ele>1266.19</ele>
        <time>2024-09-28T09:19:42.000Z</time>
      </trkpt>
      <trkpt lat="42.35328" lon="1.31825">
        <ele>1266.35</ele>
        <time>2024-09-28T09:19:47.000Z</time>
      </trkpt>
      <trkpt lat="42.35334" lon="1.31812">
        <ele>1266.51</ele>
        <time>2024-09-28T09:19:52.000Z</time>
      </trkpt>
      <trkpt lat="42.35339" lon="1.318">
        <ele>1266.7</ele>
        <time>2024-09-28T09:19:57.000Z</time>
      </trkpt>
      <trkpt lat="42.35345" lon="1.31787">
        <ele>1266.9</ele>
        <time>2024-09-28T09:20:02.000Z</time>
      </trkpt>
      <trkpt lat="42.3535" lon="1.31774">
        <ele>1267.1</ele>
        <time>2024-09-28T09:20:07.000Z</time>
      </trkpt>
      <trkpt lat="42.35358" lon="1.31757">
        <ele>1267.29</ele>
        <time>2024-09-28T09:20:12.000Z</time>
      </trkpt>
      <trkpt lat="42.3537" lon="1.31735">
        <ele>1268.33</ele>
        <time>2024-09-28T09:20:17.000Z</time>
      </trkpt>
      <trkpt lat="42.35387" lon="1.31711">
        <ele>1268.93</ele>
        <time>2024-09-28T09:20:22.000Z</time>
      </trkpt>
      <trkpt lat="42.3541" lon="1.31685">
        <ele>1269.11</ele>
        <time>2024-09-28T09:20:27.000Z</time>
      </trkpt>
      <trkpt lat="42.35433" lon="1.31655">
        <ele>1269.04</ele>
        <time>2024-09-28T09:20:32.000Z</time>
      </trkpt>
      <trkpt lat="42.35449" lon="1.31618">
        <ele>1268.82</ele>
        <time>2024-09-28T09:20:37.000Z</time>
      </trkpt>
      <trkpt lat="42.35459" lon="1.31584">
        <ele>1268.75</ele>
        <time>2024-09-28T09:20:42.000Z</time>
      </trkpt>
      <trkpt lat="42.35469" lon="1.31558">
        <ele>1269.1</ele>
        <time>2024-09-28T09:20:47.000Z</time>
      </trkpt>
      <trkpt lat="42.35478" lon="1.31537">
        <ele>1269.15</ele>
        <time>2024-09-28T09:20:52.000Z</time>
      </trkpt>
      <trkpt lat="42.35489" lon="1.31518">
        <ele>1269.19</ele>
        <time>2024-09-28T09:20:57.000Z</time>
      </trkpt>
      <trkpt lat="42.35502" lon="1.31503">
        <ele>1269.28</ele>
        <time>2024-09-28T09:21:02.000Z</time>
      </trkpt>
      <trkpt lat="42.35517" lon="1.31491">
        <ele>1269.31</ele>
        <time>2024-09-28T09:21:07.000Z</time>
      </trkpt>
      <trkpt lat="42.35529" lon="1.31481">
        <ele>1269.23</ele>
        <time>2024-09-28T09:21:12.000Z</time>
      </trkpt>
      <trkpt lat="42.35542" lon="1.31471">
        <ele>1269.12</ele>
        <time>2024-09-28T09:21:17.000Z</time>
      </trkpt>
      <trkpt lat="42.35554" lon="1.31459">
        <ele>1269</ele>
        <time>2024-09-28T09:21:22.000Z</time>
      </trkpt>
      <trkpt lat="42.35565" lon="1.31446">
        <ele>1268.92</ele>
        <time>2024-09-28T09:21:27.000Z</time>
      </trkpt>
      <trkpt lat="42.35576" lon="1.3143">
        <ele>1268.89</ele>
        <time>2024-09-28T09:21:32.000Z</time>
      </trkpt>
      <trkpt lat="42.3559" lon="1.31411">
        <ele>1268.9</ele>
        <time>2024-09-28T09:21:37.000Z</time>
      </trkpt>
      <trkpt lat="42.35602" lon="1.31383">
        <ele>1268.96</ele>
        <time>2024-09-28T09:21:42.000Z</time>
      </trkpt>
      <trkpt lat="42.35608" lon="1.31344">
        <ele>1269.14</ele>
        <time>2024-09-28T09:21:47.000Z</time>
      </trkpt>
      <trkpt lat="42.35611" lon="1.313">
        <ele>1269.25</ele>
        <time>2024-09-28T09:21:52.000Z</time>
      </trkpt>
      <trkpt lat="42.35611" lon="1.3126">
        <ele>1269.39</ele>
        <time>2024-09-28T09:21:57.000Z</time>
      </trkpt>
      <trkpt lat="42.35613" lon="1.31232">
        <ele>1269.45</ele>
        <time>2024-09-28T09:22:02.000Z</time>
      </trkpt>
      <trkpt lat="42.35613" lon="1.31209">
        <ele>1269.48</ele>
        <time>2024-09-28T09:22:07.000Z</time>
      </trkpt>
      <trkpt lat="42.35615" lon="1.31189">
        <ele>1269.54</ele>
        <time>2024-09-28T09:22:12.000Z</time>
      </trkpt>
      <trkpt lat="42.35618" lon="1.31172">
        <ele>1269.59</ele>
        <time>2024-09-28T09:22:17.000Z</time>
      </trkpt>
      <trkpt lat="42.3562" lon="1.31155">
        <ele>1269.65</ele>
        <time>2024-09-28T09:22:22.000Z</time>
      </trkpt>
      <trkpt lat="42.35623" lon="1.31139">
        <ele>1269.69</ele>
        <time>2024-09-28T09:22:27.000Z</time>
      </trkpt>
      <trkpt lat="42.35625" lon="1.31121">
        <ele>1269.75</ele>
        <time>2024-09-28T09:22:32.000Z</time>
      </trkpt>
      <trkpt lat="42.35627" lon="1.31106">
        <ele>1269.91</ele>
        <time>2024-09-28T09:22:37.000Z</time>
      </trkpt>
      <trkpt lat="42.35628" lon="1.31091">
        <ele>1270.12</ele>
        <time>2024-09-28T09:22:42.000Z</time>
      </trkpt>
      <trkpt lat="42.3563" lon="1.31078">
        <ele>1270.4</ele>
        <time>2024-09-28T09:22:47.000Z</time>
      </trkpt>
      <trkpt lat="42.35632" lon="1.31065">
        <ele>1270.73</ele>
        <time>2024-09-28T09:22:52.000Z</time>
      </trkpt>
      <trkpt lat="42.35634" lon="1.31052">
        <ele>1271.09</ele>
        <time>2024-09-28T09:22:57.000Z</time>
      </trkpt>
      <trkpt lat="42.35637" lon="1.31038">
        <ele>1271.5</ele>
        <time>2024-09-28T09:23:02.000Z</time>
      </trkpt>
      <trkpt lat="42.35641" lon="1.31027">
        <ele>1271.95</ele>
        <time>2024-09-28T09:23:07.000Z</time>
      </trkpt>
      <trkpt lat="42.35645" lon="1.31015">
        <ele>1272.51</ele>
        <time>2024-09-28T09:23:13.000Z</time>
      </trkpt>
      <trkpt lat="42.3565" lon="1.31004">
        <ele>1273.07</ele>
        <time>2024-09-28T09:23:19.000Z</time>
      </trkpt>
      <trkpt lat="42.35653" lon="1.30992">
        <ele>1273.64</ele>
        <time>2024-09-28T09:23:25.000Z</time>
      </trkpt>
      <trkpt lat="42.35658" lon="1.3098">
        <ele>1274.3</ele>
        <time>2024-09-28T09:23:32.000Z</time>
      </trkpt>
      <trkpt lat="42.35662" lon="1.30969">
        <ele>1274.84</ele>
        <time>2024-09-28T09:23:38.000Z</time>
      </trkpt>
      <trkpt lat="42.35666" lon="1.30958">
        <ele>1275.39</ele>
        <time>2024-09-28T09:23:44.000Z</time>
      </trkpt>
      <trkpt lat="42.35671" lon="1.30945">
        <ele>1276.02</ele>
        <time>2024-09-28T09:23:51.000Z</time>
      </trkpt>
      <trkpt lat="42.35677" lon="1.30934">
        <ele>1276.66</ele>
        <time>2024-09-28T09:23:58.000Z</time>
      </trkpt>
      <trkpt lat="42.35683" lon="1.30924">
        <ele>1277.2</ele>
        <time>2024-09-28T09:24:04.000Z</time>
      </trkpt>
      <trkpt lat="42.3569" lon="1.30914">
        <ele>1277.84</ele>
        <time>2024-09-28T09:24:11.000Z</time>
      </trkpt>
      <trkpt lat="42.35698" lon="1.30906">
        <ele>1278.45</ele>
        <time>2024-09-28T09:24:18.000Z</time>
      </trkpt>
      <trkpt lat="42.35707" lon="1.30898">
        <ele>1279.03</ele>
        <time>2024-09-28T09:24:25.000Z</time>
      </trkpt>
      <trkpt lat="42.35714" lon="1.30889">
        <ele>1279.5</ele>
        <time>2024-09-28T09:24:31.000Z</time>
      </trkpt>
      <trkpt lat="42.35722" lon="1.30882">
        <ele>1279.97</ele>
        <time>2024-09-28T09:24:37.000Z</time>
      </trkpt>
      <trkpt lat="42.35729" lon="1.30874">
        <ele>1280.43</ele>
        <time>2024-09-28T09:24:43.000Z</time>
      </trkpt>
      <trkpt lat="42.35735" lon="1.30864">
        <ele>1280.89</ele>
        <time>2024-09-28T09:24:49.000Z</time>
      </trkpt>
      <trkpt lat="42.35741" lon="1.30852">
        <ele>1281.41</ele>
        <time>2024-09-28T09:24:55.999Z</time>
      </trkpt>
      <trkpt lat="42.35744" lon="1.30839">
        <ele>1281.86</ele>
        <time>2024-09-28T09:25:01.999Z</time>
      </trkpt>
      <trkpt lat="42.35745" lon="1.30827">
        <ele>1282.29</ele>
        <time>2024-09-28T09:25:07.999Z</time>
      </trkpt>
      <trkpt lat="42.35746" lon="1.30814">
        <ele>1282.72</ele>
        <time>2024-09-28T09:25:13.999Z</time>
      </trkpt>
      <trkpt lat="42.35747" lon="1.30801">
        <ele>1283.15</ele>
        <time>2024-09-28T09:25:19.999Z</time>
      </trkpt>
      <trkpt lat="42.35748" lon="1.30787">
        <ele>1283.65</ele>
        <time>2024-09-28T09:25:26.999Z</time>
      </trkpt>
      <trkpt lat="42.3575" lon="1.30774">
        <ele>1284.15</ele>
        <time>2024-09-28T09:25:33.999Z</time>
      </trkpt>
      <trkpt lat="42.35753" lon="1.3076">
        <ele>1284.66</ele>
        <time>2024-09-28T09:25:40.999Z</time>
      </trkpt>
      <trkpt lat="42.35757" lon="1.30747">
        <ele>1285.08</ele>
        <time>2024-09-28T09:25:46.999Z</time>
      </trkpt>
      <trkpt lat="42.35762" lon="1.30734">
        <ele>1285.5</ele>
        <time>2024-09-28T09:25:52.999Z</time>
      </trkpt>
      <trkpt lat="42.35766" lon="1.30721">
        <ele>1285.91</ele>
        <time>2024-09-28T09:25:58.999Z</time>
      </trkpt>
      <trkpt lat="42.35771" lon="1.30709">
        <ele>1286.26</ele>
        <time>2024-09-28T09:26:03.999Z</time>
      </trkpt>
      <trkpt lat="42.35775" lon="1.30697">
        <ele>1286.6</ele>
        <time>2024-09-28T09:26:08.999Z</time>
      </trkpt>
      <trkpt lat="42.35779" lon="1.30686">
        <ele>1286.93</ele>
        <time>2024-09-28T09:26:13.999Z</time>
      </trkpt>
      <trkpt lat="42.35783" lon="1.30674">
        <ele>1287.26</ele>
        <time>2024-09-28T09:26:18.999Z</time>
      </trkpt>
      <trkpt lat="42.35788" lon="1.30662">
        <ele>1287.59</ele>
        <time>2024-09-28T09:26:23.999Z</time>
      </trkpt>
      <trkpt lat="42.35793" lon="1.3065">
        <ele>1287.92</ele>
        <time>2024-09-28T09:26:28.999Z</time>
      </trkpt>
      <trkpt lat="42.35798" lon="1.30639">
        <ele>1288.24</ele>
        <time>2024-09-28T09:26:33.999Z</time>
      </trkpt>
      <trkpt lat="42.35802" lon="1.30628">
        <ele>1288.57</ele>
        <time>2024-09-28T09:26:38.999Z</time>
      </trkpt>
      <trkpt lat="42.35808" lon="1.30616">
        <ele>1288.9</ele>
        <time>2024-09-28T09:26:43.999Z</time>
      </trkpt>
      <trkpt lat="42.35814" lon="1.30605">
        <ele>1289.23</ele>
        <time>2024-09-28T09:26:48.999Z</time>
      </trkpt>
      <trkpt lat="42.3582" lon="1.30595">
        <ele>1289.57</ele>
        <time>2024-09-28T09:26:53.999Z</time>
      </trkpt>
      <trkpt lat="42.35826" lon="1.30585">
        <ele>1289.91</ele>
        <time>2024-09-28T09:26:58.999Z</time>
      </trkpt>
      <trkpt lat="42.35833" lon="1.30575">
        <ele>1290.25</ele>
        <time>2024-09-28T09:27:03.999Z</time>
      </trkpt>
      <trkpt lat="42.3584" lon="1.30565">
        <ele>1290.59</ele>
        <time>2024-09-28T09:27:08.999Z</time>
      </trkpt>
      <trkpt lat="42.35847" lon="1.30554">
        <ele>1290.92</ele>
        <time>2024-09-28T09:27:13.999Z</time>
      </trkpt>
      <trkpt lat="42.35852" lon="1.30543">
        <ele>1291.25</ele>
        <time>2024-09-28T09:27:18.999Z</time>
      </trkpt>
      <trkpt lat="42.35858" lon="1.30532">
        <ele>1291.57</ele>
        <time>2024-09-28T09:27:23.999Z</time>
      </trkpt>
      <trkpt lat="42.35863" lon="1.30519">
        <ele>1291.88</ele>
        <time>2024-09-28T09:27:28.999Z</time>
      </trkpt>
      <trkpt lat="42.35867" lon="1.30505">
        <ele>1292.19</ele>
        <time>2024-09-28T09:27:33.999Z</time>
      </trkpt>
      <trkpt lat="42.35872" lon="1.30492">
        <ele>1292.49</ele>
        <time>2024-09-28T09:27:38.999Z</time>
      </trkpt>
      <trkpt lat="42.35877" lon="1.30481">
        <ele>1292.79</ele>
        <time>2024-09-28T09:27:43.999Z</time>
      </trkpt>
      <trkpt lat="42.35882" lon="1.30469">
        <ele>1293.1</ele>
        <time>2024-09-28T09:27:48.999Z</time>
      </trkpt>
      <trkpt lat="42.35888" lon="1.30458">
        <ele>1293.41</ele>
        <time>2024-09-28T09:27:53.999Z</time>
      </trkpt>
      <trkpt lat="42.35894" lon="1.30447">
        <ele>1293.73</ele>
        <time>2024-09-28T09:27:58.999Z</time>
      </trkpt>
      <trkpt lat="42.35901" lon="1.30437">
        <ele>1294.05</ele>
        <time>2024-09-28T09:28:03.999Z</time>
      </trkpt>
      <trkpt lat="42.35908" lon="1.3043">
        <ele>1294.37</ele>
        <time>2024-09-28T09:28:08.999Z</time>
      </trkpt>
      <trkpt lat="42.35916" lon="1.30422">
        <ele>1294.69</ele>
        <time>2024-09-28T09:28:13.999Z</time>
      </trkpt>
      <trkpt lat="42.35924" lon="1.30414">
        <ele>1295.02</ele>
        <time>2024-09-28T09:28:18.999Z</time>
      </trkpt>
      <trkpt lat="42.35932" lon="1.30406">
        <ele>1295.35</ele>
        <time>2024-09-28T09:28:23.999Z</time>
      </trkpt>
      <trkpt lat="42.35941" lon="1.30397">
        <ele>1295.68</ele>
        <time>2024-09-28T09:28:28.999Z</time>
      </trkpt>
      <trkpt lat="42.35949" lon="1.30389">
        <ele>1296.01</ele>
        <time>2024-09-28T09:28:33.999Z</time>
      </trkpt>
      <trkpt lat="42.35958" lon="1.3038">
        <ele>1296.34</ele>
        <time>2024-09-28T09:28:38.999Z</time>
      </trkpt>
      <trkpt lat="42.35967" lon="1.30372">
        <ele>1296.67</ele>
        <time>2024-09-28T09:28:43.999Z</time>
      </trkpt>
      <trkpt lat="42.35977" lon="1.30364">
        <ele>1296.99</ele>
        <time>2024-09-28T09:28:48.999Z</time>
      </trkpt>
      <trkpt lat="42.35987" lon="1.30358">
        <ele>1297.31</ele>
        <time>2024-09-28T09:28:53.999Z</time>
      </trkpt>
      <trkpt lat="42.35997" lon="1.30352">
        <ele>1297.63</ele>
        <time>2024-09-28T09:28:58.999Z</time>
      </trkpt>
      <trkpt lat="42.36008" lon="1.30347">
        <ele>1297.94</ele>
        <time>2024-09-28T09:29:03.999Z</time>
      </trkpt>
      <trkpt lat="42.36018" lon="1.30341">
        <ele>1298.25</ele>
        <time>2024-09-28T09:29:08.999Z</time>
      </trkpt>
      <trkpt lat="42.36028" lon="1.30335">
        <ele>1298.56</ele>
        <time>2024-09-28T09:29:13.999Z</time>
      </trkpt>
      <trkpt lat="42.36038" lon="1.30328">
        <ele>1298.86</ele>
        <time>2024-09-28T09:29:18.999Z</time>
      </trkpt>
      <trkpt lat="42.36049" lon="1.30321">
        <ele>1299.16</ele>
        <time>2024-09-28T09:29:23.999Z</time>
      </trkpt>
      <trkpt lat="42.36058" lon="1.30314">
        <ele>1299.46</ele>
        <time>2024-09-28T09:29:28.999Z</time>
      </trkpt>
      <trkpt lat="42.36068" lon="1.30306">
        <ele>1299.75</ele>
        <time>2024-09-28T09:29:33.999Z</time>
      </trkpt>
      <trkpt lat="42.36077" lon="1.30298">
        <ele>1300.04</ele>
        <time>2024-09-28T09:29:38.999Z</time>
      </trkpt>
      <trkpt lat="42.36086" lon="1.30291">
        <ele>1300.31</ele>
        <time>2024-09-28T09:29:43.999Z</time>
      </trkpt>
      <trkpt lat="42.36095" lon="1.30284">
        <ele>1300.63</ele>
        <time>2024-09-28T09:29:49.999Z</time>
      </trkpt>
      <trkpt lat="42.36104" lon="1.30277">
        <ele>1300.95</ele>
        <time>2024-09-28T09:29:55.999Z</time>
      </trkpt>
      <trkpt lat="42.36113" lon="1.3027">
        <ele>1301.26</ele>
        <time>2024-09-28T09:30:01.999Z</time>
      </trkpt>
      <trkpt lat="42.36122" lon="1.30265">
        <ele>1301.57</ele>
        <time>2024-09-28T09:30:07.999Z</time>
      </trkpt>
      <trkpt lat="42.3613" lon="1.30259">
        <ele>1301.89</ele>
        <time>2024-09-28T09:30:13.999Z</time>
      </trkpt>
      <trkpt lat="42.3614" lon="1.30253">
        <ele>1302.21</ele>
        <time>2024-09-28T09:30:19.999Z</time>
      </trkpt>
      <trkpt lat="42.3615" lon="1.30248">
        <ele>1302.54</ele>
        <time>2024-09-28T09:30:25.999Z</time>
      </trkpt>
      <trkpt lat="42.36159" lon="1.30243">
        <ele>1302.94</ele>
        <time>2024-09-28T09:30:31.999Z</time>
      </trkpt>
      <trkpt lat="42.36169" lon="1.30239">
        <ele>1303.44</ele>
        <time>2024-09-28T09:30:37.999Z</time>
      </trkpt>
      <trkpt lat="42.36179" lon="1.30236">
        <ele>1303.98</ele>
        <time>2024-09-28T09:30:42.999Z</time>
      </trkpt>
      <trkpt lat="42.36189" lon="1.30233">
        <ele>1304.7</ele>
        <time>2024-09-28T09:30:48.999Z</time>
      </trkpt>
      <trkpt lat="42.36198" lon="1.30229">
        <ele>1305.53</ele>
        <time>2024-09-28T09:30:54.999Z</time>
      </trkpt>
      <trkpt lat="42.36207" lon="1.30224">
        <ele>1306.23</ele>
        <time>2024-09-28T09:30:59.999Z</time>
      </trkpt>
      <trkpt lat="42.36214" lon="1.30217">
        <ele>1306.94</ele>
        <time>2024-09-28T09:31:04.999Z</time>
      </trkpt>
      <trkpt lat="42.36222" lon="1.30208">
        <ele>1307.84</ele>
        <time>2024-09-28T09:31:10.999Z</time>
      </trkpt>
      <trkpt lat="42.36228" lon="1.30195">
        <ele>1308.75</ele>
        <time>2024-09-28T09:31:16.999Z</time>
      </trkpt>
      <trkpt lat="42.36232" lon="1.30182">
        <ele>1309.68</ele>
        <time>2024-09-28T09:31:22.999Z</time>
      </trkpt>
      <trkpt lat="42.36234" lon="1.30169">
        <ele>1310.62</ele>
        <time>2024-09-28T09:31:28.999Z</time>
      </trkpt>
      <trkpt lat="42.36233" lon="1.30155">
        <ele>1311.76</ele>
        <time>2024-09-28T09:31:35.999Z</time>
      </trkpt>
      <trkpt lat="42.36231" lon="1.30142">
        <ele>1312.77</ele>
        <time>2024-09-28T09:31:41.999Z</time>
      </trkpt>
      <trkpt lat="42.36229" lon="1.30129">
        <ele>1313.62</ele>
        <time>2024-09-28T09:31:46.999Z</time>
      </trkpt>
      <trkpt lat="42.36226" lon="1.30115">
        <ele>1314.47</ele>
        <time>2024-09-28T09:31:51.999Z</time>
      </trkpt>
      <trkpt lat="42.36224" lon="1.30099">
        <ele>1315.32</ele>
        <time>2024-09-28T09:31:56.999Z</time>
      </trkpt>
      <trkpt lat="42.36222" lon="1.30083">
        <ele>1316.16</ele>
        <time>2024-09-28T09:32:01.999Z</time>
      </trkpt>
      <trkpt lat="42.36222" lon="1.30069">
        <ele>1317</ele>
        <time>2024-09-28T09:32:06.999Z</time>
      </trkpt>
      <trkpt lat="42.36222" lon="1.30056">
        <ele>1317.82</ele>
        <time>2024-09-28T09:32:11.999Z</time>
      </trkpt>
      <trkpt lat="42.36224" lon="1.30043">
        <ele>1318.76</ele>
        <time>2024-09-28T09:32:17.999Z</time>
      </trkpt>
      <trkpt lat="42.36226" lon="1.30032">
        <ele>1319.55</ele>
        <time>2024-09-28T09:32:22.999Z</time>
      </trkpt>
      <trkpt lat="42.36229" lon="1.30019">
        <ele>1320.51</ele>
        <time>2024-09-28T09:32:28.999Z</time>
      </trkpt>
      <trkpt lat="42.36232" lon="1.30006">
        <ele>1321.48</ele>
        <time>2024-09-28T09:32:34.999Z</time>
      </trkpt>
      <trkpt lat="42.36237" lon="1.29994">
        <ele>1322.44</ele>
        <time>2024-09-28T09:32:40.999Z</time>
      </trkpt>
      <trkpt lat="42.36243" lon="1.29982">
        <ele>1323.21</ele>
        <time>2024-09-28T09:32:45.999Z</time>
      </trkpt>
      <trkpt lat="42.3625" lon="1.29971">
        <ele>1323.98</ele>
        <time>2024-09-28T09:32:50.999Z</time>
      </trkpt>
      <trkpt lat="42.36259" lon="1.29959">
        <ele>1324.76</ele>
        <time>2024-09-28T09:32:55.999Z</time>
      </trkpt>
      <trkpt lat="42.36268" lon="1.29948">
        <ele>1325.54</ele>
        <time>2024-09-28T09:33:00.999Z</time>
      </trkpt>
      <trkpt lat="42.36278" lon="1.29938">
        <ele>1326.32</ele>
        <time>2024-09-28T09:33:05.999Z</time>
      </trkpt>
      <trkpt lat="42.36289" lon="1.29929">
        <ele>1327.06</ele>
        <time>2024-09-28T09:33:10.999Z</time>
      </trkpt>
      <trkpt lat="42.36301" lon="1.29919">
        <ele>1327.77</ele>
        <time>2024-09-28T09:33:15.999Z</time>
      </trkpt>
      <trkpt lat="42.36313" lon="1.29909">
        <ele>1328.45</ele>
        <time>2024-09-28T09:33:20.999Z</time>
      </trkpt>
      <trkpt lat="42.36324" lon="1.29899">
        <ele>1329.11</ele>
        <time>2024-09-28T09:33:25.999Z</time>
      </trkpt>
      <trkpt lat="42.36336" lon="1.29889">
        <ele>1329.75</ele>
        <time>2024-09-28T09:33:30.999Z</time>
      </trkpt>
      <trkpt lat="42.36346" lon="1.29878">
        <ele>1330.36</ele>
        <time>2024-09-28T09:33:35.999Z</time>
      </trkpt>
      <trkpt lat="42.36356" lon="1.29869">
        <ele>1330.95</ele>
        <time>2024-09-28T09:33:40.999Z</time>
      </trkpt>
      <trkpt lat="42.36364" lon="1.29858">
        <ele>1331.52</ele>
        <time>2024-09-28T09:33:45.999Z</time>
      </trkpt>
      <trkpt lat="42.36371" lon="1.29848">
        <ele>1332.05</ele>
        <time>2024-09-28T09:33:50.999Z</time>
      </trkpt>
      <trkpt lat="42.36377" lon="1.29836">
        <ele>1332.67</ele>
        <time>2024-09-28T09:33:56.999Z</time>
      </trkpt>
      <trkpt lat="42.36382" lon="1.29825">
        <ele>1333.16</ele>
        <time>2024-09-28T09:34:01.999Z</time>
      </trkpt>
      <trkpt lat="42.36387" lon="1.29812">
        <ele>1333.63</ele>
        <time>2024-09-28T09:34:06.999Z</time>
      </trkpt>
      <trkpt lat="42.36391" lon="1.29801">
        <ele>1334.08</ele>
        <time>2024-09-28T09:34:11.999Z</time>
      </trkpt>
      <trkpt lat="42.36396" lon="1.2979">
        <ele>1334.6</ele>
        <time>2024-09-28T09:34:17.999Z</time>
      </trkpt>
      <trkpt lat="42.364" lon="1.29778">
        <ele>1335.09</ele>
        <time>2024-09-28T09:34:23.999Z</time>
      </trkpt>
      <trkpt lat="42.36405" lon="1.29766">
        <ele>1335.57</ele>
        <time>2024-09-28T09:34:29.999Z</time>
      </trkpt>
      <trkpt lat="42.36409" lon="1.29755">
        <ele>1336.07</ele>
        <time>2024-09-28T09:34:35.999Z</time>
      </trkpt>
      <trkpt lat="42.36413" lon="1.29743">
        <ele>1336.55</ele>
        <time>2024-09-28T09:34:41.999Z</time>
      </trkpt>
      <trkpt lat="42.36416" lon="1.29731">
        <ele>1336.94</ele>
        <time>2024-09-28T09:34:46.999Z</time>
      </trkpt>
      <trkpt lat="42.36419" lon="1.29719">
        <ele>1337.33</ele>
        <time>2024-09-28T09:34:51.999Z</time>
      </trkpt>
      <trkpt lat="42.36421" lon="1.29704">
        <ele>1337.7</ele>
        <time>2024-09-28T09:34:56.999Z</time>
      </trkpt>
      <trkpt lat="42.36425" lon="1.29688">
        <ele>1338.07</ele>
        <time>2024-09-28T09:35:01.999Z</time>
      </trkpt>
      <trkpt lat="42.36435" lon="1.29663">
        <ele>1340.17</ele>
        <time>2024-09-28T09:35:06.999Z</time>
      </trkpt>
      <trkpt lat="42.36454" lon="1.29633">
        <ele>1341.4</ele>
        <time>2024-09-28T09:35:11.999Z</time>
      </trkpt>
      <trkpt lat="42.36483" lon="1.29606">
        <ele>1342.03</ele>
        <time>2024-09-28T09:35:16.999Z</time>
      </trkpt>
      <trkpt lat="42.36519" lon="1.2958">
        <ele>1342.12</ele>
        <time>2024-09-28T09:35:21.999Z</time>
      </trkpt>
      <trkpt lat="42.3651" lon="1.29526">
        <ele>1341.54</ele>
        <time>2024-09-28T09:35:26.999Z</time>
      </trkpt>
      <trkpt lat="42.3649" lon="1.2946">
        <ele>1340.32</ele>
        <time>2024-09-28T09:35:31.999Z</time>
      </trkpt>
      <trkpt lat="42.36506" lon="1.29398">
        <ele>1339.82</ele>
        <time>2024-09-28T09:35:36.999Z</time>
      </trkpt>
      <trkpt lat="42.36542" lon="1.29355">
        <ele>1339.3</ele>
        <time>2024-09-28T09:35:41.999Z</time>
      </trkpt>
      <trkpt lat="42.36568" lon="1.29302">
        <ele>1338.34</ele>
        <time>2024-09-28T09:35:46.999Z</time>
      </trkpt>
      <trkpt lat="42.36567" lon="1.29235">
        <ele>1336.8</ele>
        <time>2024-09-28T09:35:51.999Z</time>
      </trkpt>
      <trkpt lat="42.36582" lon="1.29172">
        <ele>1334.58</ele>
        <time>2024-09-28T09:35:56.999Z</time>
      </trkpt>
      <trkpt lat="42.36613" lon="1.29129">
        <ele>1334.36</ele>
        <time>2024-09-28T09:36:01.999Z</time>
      </trkpt>
      <trkpt lat="42.36629" lon="1.2908">
        <ele>1333.35</ele>
        <time>2024-09-28T09:36:06.999Z</time>
      </trkpt>
      <trkpt lat="42.36635" lon="1.29033">
        <ele>1331.38</ele>
        <time>2024-09-28T09:36:11.999Z</time>
      </trkpt>
      <trkpt lat="42.36638" lon="1.28994">
        <ele>1329.19</ele>
        <time>2024-09-28T09:36:16.999Z</time>
      </trkpt>
      <trkpt lat="42.36639" lon="1.28967">
        <ele>1329.44</ele>
        <time>2024-09-28T09:36:21.999Z</time>
      </trkpt>
      <trkpt lat="42.36643" lon="1.28947">
        <ele>1329.36</ele>
        <time>2024-09-28T09:36:26.999Z</time>
      </trkpt>
      <trkpt lat="42.36646" lon="1.28929">
        <ele>1329.19</ele>
        <time>2024-09-28T09:36:31.999Z</time>
      </trkpt>
      <trkpt lat="42.36649" lon="1.28912">
        <ele>1328.99</ele>
        <time>2024-09-28T09:36:36.999Z</time>
      </trkpt>
      <trkpt lat="42.36654" lon="1.28895">
        <ele>1328.83</ele>
        <time>2024-09-28T09:36:41.999Z</time>
      </trkpt>
      <trkpt lat="42.36657" lon="1.28878">
        <ele>1328.63</ele>
        <time>2024-09-28T09:36:46.999Z</time>
      </trkpt>
      <trkpt lat="42.36656" lon="1.28859">
        <ele>1328.43</ele>
        <time>2024-09-28T09:36:51.999Z</time>
      </trkpt>
      <trkpt lat="42.3665" lon="1.28845">
        <ele>1328.21</ele>
        <time>2024-09-28T09:36:56.999Z</time>
      </trkpt>
      <trkpt lat="42.36641" lon="1.2884">
        <ele>1328.11</ele>
        <time>2024-09-28T09:37:01.999Z</time>
      </trkpt>
      <trkpt lat="42.36632" lon="1.28844">
        <ele>1327.21</ele>
        <time>2024-09-28T09:38:11.000Z</time>
      </trkpt>
      <trkpt lat="42.36622" lon="1.28849">
        <ele>1326.65</ele>
        <time>2024-09-28T09:38:16.000Z</time>
      </trkpt>
      <trkpt lat="42.36614" lon="1.28859">
        <ele>1326.13</ele>
        <time>2024-09-28T09:38:21.000Z</time>
      </trkpt>
      <trkpt lat="42.3661" lon="1.28872">
        <ele>1325.58</ele>
        <time>2024-09-28T09:38:27.000Z</time>
      </trkpt>
      <trkpt lat="42.36607" lon="1.28884">
        <ele>1325.17</ele>
        <time>2024-09-28T09:38:32.000Z</time>
      </trkpt>
      <trkpt lat="42.36605" lon="1.28896">
        <ele>1324.78</ele>
        <time>2024-09-28T09:38:37.000Z</time>
      </trkpt>
      <trkpt lat="42.36603" lon="1.2891">
        <ele>1324.43</ele>
        <time>2024-09-28T09:38:43.000Z</time>
      </trkpt>
      <trkpt lat="42.36601" lon="1.28923">
        <ele>1324.19</ele>
        <time>2024-09-28T09:38:49.000Z</time>
      </trkpt>
      <trkpt lat="42.36597" lon="1.28936">
        <ele>1324.04</ele>
        <time>2024-09-28T09:38:55.000Z</time>
      </trkpt>
      <trkpt lat="42.36593" lon="1.28947">
        <ele>1323.98</ele>
        <time>2024-09-28T09:39:01.000Z</time>
      </trkpt>
      <trkpt lat="42.36588" lon="1.28958">
        <ele>1323.94</ele>
        <time>2024-09-28T09:39:07.000Z</time>
      </trkpt>
      <trkpt lat="42.36583" lon="1.28968">
        <ele>1324</ele>
        <time>2024-09-28T09:39:13.000Z</time>
      </trkpt>
      <trkpt lat="42.36576" lon="1.28977">
        <ele>1324.12</ele>
        <time>2024-09-28T09:39:18.000Z</time>
      </trkpt>
      <trkpt lat="42.36571" lon="1.28987">
        <ele>1324.3</ele>
        <time>2024-09-28T09:39:23.000Z</time>
      </trkpt>
      <trkpt lat="42.36564" lon="1.28998">
        <ele>1324.56</ele>
        <time>2024-09-28T09:39:29.000Z</time>
      </trkpt>
      <trkpt lat="42.36559" lon="1.29008">
        <ele>1324.87</ele>
        <time>2024-09-28T09:39:35.000Z</time>
      </trkpt>
      <trkpt lat="42.36553" lon="1.29018">
        <ele>1325.25</ele>
        <time>2024-09-28T09:39:41.000Z</time>
      </trkpt>
      <trkpt lat="42.36546" lon="1.29028">
        <ele>1325.65</ele>
        <time>2024-09-28T09:39:47.000Z</time>
      </trkpt>
      <trkpt lat="42.36541" lon="1.29038">
        <ele>1326.04</ele>
        <time>2024-09-28T09:39:53.000Z</time>
      </trkpt>
      <trkpt lat="42.36534" lon="1.29046">
        <ele>1326.52</ele>
        <time>2024-09-28T09:40:00.000Z</time>
      </trkpt>
      <trkpt lat="42.36527" lon="1.29055">
        <ele>1327.01</ele>
        <time>2024-09-28T09:40:07.000Z</time>
      </trkpt>
      <trkpt lat="42.36519" lon="1.29063">
        <ele>1327.44</ele>
        <time>2024-09-28T09:40:13.000Z</time>
      </trkpt>
      <trkpt lat="42.36511" lon="1.29072">
        <ele>1327.95</ele>
        <time>2024-09-28T09:40:20.000Z</time>
      </trkpt>
      <trkpt lat="42.36504" lon="1.29081">
        <ele>1328.47</ele>
        <time>2024-09-28T09:40:27.000Z</time>
      </trkpt>
      <trkpt lat="42.36497" lon="1.29089">
        <ele>1329.02</ele>
        <time>2024-09-28T09:40:33.000Z</time>
      </trkpt>
      <trkpt lat="42.36488" lon="1.29095">
        <ele>1329.88</ele>
        <time>2024-09-28T09:40:40.000Z</time>
      </trkpt>
      <trkpt lat="42.36479" lon="1.291">
        <ele>1330.88</ele>
        <time>2024-09-28T09:40:47.000Z</time>
      </trkpt>
      <trkpt lat="42.3647" lon="1.29105">
        <ele>1331.79</ele>
        <time>2024-09-28T09:40:53.000Z</time>
      </trkpt>
      <trkpt lat="42.36461" lon="1.2911">
        <ele>1332.75</ele>
        <time>2024-09-28T09:40:59.000Z</time>
      </trkpt>
      <trkpt lat="42.36451" lon="1.29114">
        <ele>1333.75</ele>
        <time>2024-09-28T09:41:05.000Z</time>
      </trkpt>
      <trkpt lat="42.36441" lon="1.29116">
        <ele>1334.92</ele>
        <time>2024-09-28T09:41:12.000Z</time>
      </trkpt>
      <trkpt lat="42.36432" lon="1.29119">
        <ele>1335.94</ele>
        <time>2024-09-28T09:41:18.000Z</time>
      </trkpt>
      <trkpt lat="42.36423" lon="1.29122">
        <ele>1336.94</ele>
        <time>2024-09-28T09:41:24.000Z</time>
      </trkpt>
      <trkpt lat="42.36413" lon="1.29123">
        <ele>1338.06</ele>
        <time>2024-09-28T09:41:31.000Z</time>
      </trkpt>
      <trkpt lat="42.36403" lon="1.29127">
        <ele>1339.17</ele>
        <time>2024-09-28T09:41:38.000Z</time>
      </trkpt>
      <trkpt lat="42.36394" lon="1.29133">
        <ele>1340.26</ele>
        <time>2024-09-28T09:41:45.000Z</time>
      </trkpt>
      <trkpt lat="42.36387" lon="1.29142">
        <ele>1341.31</ele>
        <time>2024-09-28T09:41:52.000Z</time>
      </trkpt>
      <trkpt lat="42.3638" lon="1.29151">
        <ele>1342.17</ele>
        <time>2024-09-28T09:41:58.000Z</time>
      </trkpt>
      <trkpt lat="42.36375" lon="1.29163">
        <ele>1343.1</ele>
        <time>2024-09-28T09:42:05.000Z</time>
      </trkpt>
      <trkpt lat="42.3637" lon="1.29174">
        <ele>1343.82</ele>
        <time>2024-09-28T09:42:11.000Z</time>
      </trkpt>
      <trkpt lat="42.36367" lon="1.29186">
        <ele>1344.56</ele>
        <time>2024-09-28T09:42:18.000Z</time>
      </trkpt>
      <trkpt lat="42.36364" lon="1.29198">
        <ele>1345.24</ele>
        <time>2024-09-28T09:42:25.000Z</time>
      </trkpt>
      <trkpt lat="42.3636" lon="1.2921">
        <ele>1345.88</ele>
        <time>2024-09-28T09:42:32.000Z</time>
      </trkpt>
      <trkpt lat="42.36356" lon="1.29222">
        <ele>1346.41</ele>
        <time>2024-09-28T09:42:38.000Z</time>
      </trkpt>
      <trkpt lat="42.36353" lon="1.29234">
        <ele>1346.88</ele>
        <time>2024-09-28T09:42:44.000Z</time>
      </trkpt>
      <trkpt lat="42.36348" lon="1.29245">
        <ele>1347.39</ele>
        <time>2024-09-28T09:42:51.000Z</time>
      </trkpt>
      <trkpt lat="42.36341" lon="1.29255">
        <ele>1347.79</ele>
        <time>2024-09-28T09:42:57.000Z</time>
      </trkpt>
      <trkpt lat="42.36335" lon="1.29266">
        <ele>1348.21</ele>
        <time>2024-09-28T09:43:04.000Z</time>
      </trkpt>
      <trkpt lat="42.3633" lon="1.29277">
        <ele>1348.6</ele>
        <time>2024-09-28T09:43:11.000Z</time>
      </trkpt>
      <trkpt lat="42.36323" lon="1.29287">
        <ele>1348.96</ele>
        <time>2024-09-28T09:43:18.000Z</time>
      </trkpt>
      <trkpt lat="42.36316" lon="1.29296">
        <ele>1349.3</ele>
        <time>2024-09-28T09:43:25.000Z</time>
      </trkpt>
      <trkpt lat="42.36308" lon="1.29303">
        <ele>1349.58</ele>
        <time>2024-09-28T09:43:31.000Z</time>
      </trkpt>
      <trkpt lat="42.363" lon="1.29311">
        <ele>1349.88</ele>
        <time>2024-09-28T09:43:38.000Z</time>
      </trkpt>
      <trkpt lat="42.36292" lon="1.2932">
        <ele>1350.16</ele>
        <time>2024-09-28T09:43:45.000Z</time>
      </trkpt>
      <trkpt lat="42.36283" lon="1.29326">
        <ele>1350.48</ele>
        <time>2024-09-28T09:43:53.000Z</time>
      </trkpt>
      <trkpt lat="42.36274" lon="1.2933">
        <ele>1350.82</ele>
        <time>2024-09-28T09:44:02.000Z</time>
      </trkpt>
      <trkpt lat="42.36265" lon="1.29338">
        <ele>1351.04</ele>
        <time>2024-09-28T09:44:08.000Z</time>
      </trkpt>
      <trkpt lat="42.36256" lon="1.29345">
        <ele>1351.25</ele>
        <time>2024-09-28T09:44:14.000Z</time>
      </trkpt>
      <trkpt lat="42.36247" lon="1.29351">
        <ele>1351.54</ele>
        <time>2024-09-28T09:44:22.000Z</time>
      </trkpt>
      <trkpt lat="42.36239" lon="1.29357">
        <ele>1351.81</ele>
        <time>2024-09-28T09:44:29.000Z</time>
      </trkpt>
      <trkpt lat="42.3623" lon="1.29364">
        <ele>1352.12</ele>
        <time>2024-09-28T09:44:36.000Z</time>
      </trkpt>
      <trkpt lat="42.36221" lon="1.29371">
        <ele>1352.48</ele>
        <time>2024-09-28T09:44:43.000Z</time>
      </trkpt>
      <trkpt lat="42.36213" lon="1.29377">
        <ele>1352.79</ele>
        <time>2024-09-28T09:44:48.000Z</time>
      </trkpt>
      <trkpt lat="42.36204" lon="1.29385">
        <ele>1353.26</ele>
        <time>2024-09-28T09:44:54.000Z</time>
      </trkpt>
      <trkpt lat="42.36195" lon="1.29392">
        <ele>1353.95</ele>
        <time>2024-09-28T09:45:02.000Z</time>
      </trkpt>
      <trkpt lat="42.36187" lon="1.294">
        <ele>1354.58</ele>
        <time>2024-09-28T09:45:09.000Z</time>
      </trkpt>
      <trkpt lat="42.36179" lon="1.29408">
        <ele>1355.14</ele>
        <time>2024-09-28T09:45:15.000Z</time>
      </trkpt>
      <trkpt lat="42.36172" lon="1.29416">
        <ele>1355.83</ele>
        <time>2024-09-28T09:45:22.000Z</time>
      </trkpt>
      <trkpt lat="42.36164" lon="1.29424">
        <ele>1356.64</ele>
        <time>2024-09-28T09:45:30.000Z</time>
      </trkpt>
      <trkpt lat="42.36156" lon="1.29433">
        <ele>1357.28</ele>
        <time>2024-09-28T09:45:36.000Z</time>
      </trkpt>
      <trkpt lat="42.36147" lon="1.29439">
        <ele>1358.05</ele>
        <time>2024-09-28T09:45:43.000Z</time>
      </trkpt>
      <trkpt lat="42.36138" lon="1.29444">
        <ele>1358.85</ele>
        <time>2024-09-28T09:45:50.000Z</time>
      </trkpt>
      <trkpt lat="42.36129" lon="1.29449">
        <ele>1359.65</ele>
        <time>2024-09-28T09:45:57.000Z</time>
      </trkpt>
      <trkpt lat="42.36119" lon="1.29455">
        <ele>1360.57</ele>
        <time>2024-09-28T09:46:05.000Z</time>
      </trkpt>
      <trkpt lat="42.3611" lon="1.29461">
        <ele>1361.4</ele>
        <time>2024-09-28T09:46:12.000Z</time>
      </trkpt>
      <trkpt lat="42.36101" lon="1.29466">
        <ele>1362.23</ele>
        <time>2024-09-28T09:46:19.000Z</time>
      </trkpt>
      <trkpt lat="42.36091" lon="1.29471">
        <ele>1363.1</ele>
        <time>2024-09-28T09:46:26.000Z</time>
      </trkpt>
      <trkpt lat="42.36082" lon="1.29475">
        <ele>1363.86</ele>
        <time>2024-09-28T09:46:32.000Z</time>
      </trkpt>
      <trkpt lat="42.36073" lon="1.29479">
        <ele>1364.74</ele>
        <time>2024-09-28T09:46:39.000Z</time>
      </trkpt>
      <trkpt lat="42.36064" lon="1.29483">
        <ele>1365.63</ele>
        <time>2024-09-28T09:46:46.000Z</time>
      </trkpt>
      <trkpt lat="42.36054" lon="1.29487">
        <ele>1366.52</ele>
        <time>2024-09-28T09:46:53.000Z</time>
      </trkpt>
      <trkpt lat="42.36045" lon="1.29491">
        <ele>1367.54</ele>
        <time>2024-09-28T09:47:01.000Z</time>
      </trkpt>
      <trkpt lat="42.36037" lon="1.29496">
        <ele>1368.36</ele>
        <time>2024-09-28T09:47:07.000Z</time>
      </trkpt>
      <trkpt lat="42.36027" lon="1.295">
        <ele>1369.36</ele>
        <time>2024-09-28T09:47:14.000Z</time>
      </trkpt>
      <trkpt lat="42.36018" lon="1.29503">
        <ele>1370.23</ele>
        <time>2024-09-28T09:47:20.000Z</time>
      </trkpt>
      <trkpt lat="42.36008" lon="1.29504">
        <ele>1371.28</ele>
        <time>2024-09-28T09:47:27.000Z</time>
      </trkpt>
      <trkpt lat="42.35998" lon="1.29504">
        <ele>1372.19</ele>
        <time>2024-09-28T09:47:33.000Z</time>
      </trkpt>
      <trkpt lat="42.35989" lon="1.29503">
        <ele>1373.09</ele>
        <time>2024-09-28T09:47:39.000Z</time>
      </trkpt>
      <trkpt lat="42.3598" lon="1.29501">
        <ele>1373.97</ele>
        <time>2024-09-28T09:47:45.000Z</time>
      </trkpt>
      <trkpt lat="42.3597" lon="1.29499">
        <ele>1374.83</ele>
        <time>2024-09-28T09:47:51.000Z</time>
      </trkpt>
      <trkpt lat="42.35961" lon="1.29496">
        <ele>1375.68</ele>
        <time>2024-09-28T09:47:57.000Z</time>
      </trkpt>
      <trkpt lat="42.35952" lon="1.29493">
        <ele>1376.53</ele>
        <time>2024-09-28T09:48:03.000Z</time>
      </trkpt>
      <trkpt lat="42.35943" lon="1.29491">
        <ele>1377.37</ele>
        <time>2024-09-28T09:48:09.000Z</time>
      </trkpt>
      <trkpt lat="42.35933" lon="1.29489">
        <ele>1378.33</ele>
        <time>2024-09-28T09:48:16.000Z</time>
      </trkpt>
      <trkpt lat="42.35923" lon="1.29487">
        <ele>1379.3</ele>
        <time>2024-09-28T09:48:23.000Z</time>
      </trkpt>
      <trkpt lat="42.35913" lon="1.29486">
        <ele>1380.26</ele>
        <time>2024-09-28T09:48:30.000Z</time>
      </trkpt>
      <trkpt lat="42.35904" lon="1.29486">
        <ele>1381.23</ele>
        <time>2024-09-28T09:48:36.000Z</time>
      </trkpt>
      <trkpt lat="42.35895" lon="1.29486">
        <ele>1382.34</ele>
        <time>2024-09-28T09:48:42.000Z</time>
      </trkpt>
      <trkpt lat="42.35885" lon="1.29488">
        <ele>1383.66</ele>
        <time>2024-09-28T09:48:48.000Z</time>
      </trkpt>
      <trkpt lat="42.35875" lon="1.29489">
        <ele>1385.09</ele>
        <time>2024-09-28T09:48:54.000Z</time>
      </trkpt>
      <trkpt lat="42.35866" lon="1.29489">
        <ele>1386.56</ele>
        <time>2024-09-28T09:49:00.000Z</time>
      </trkpt>
      <trkpt lat="42.35856" lon="1.29489">
        <ele>1388.01</ele>
        <time>2024-09-28T09:49:06.000Z</time>
      </trkpt>
      <trkpt lat="42.35847" lon="1.29489">
        <ele>1389.42</ele>
        <time>2024-09-28T09:49:12.000Z</time>
      </trkpt>
      <trkpt lat="42.35836" lon="1.29487">
        <ele>1390.78</ele>
        <time>2024-09-28T09:49:18.000Z</time>
      </trkpt>
      <trkpt lat="42.35829" lon="1.29479">
        <ele>1392.06</ele>
        <time>2024-09-28T09:49:24.000Z</time>
      </trkpt>
      <trkpt lat="42.35828" lon="1.29464">
        <ele>1393.4</ele>
        <time>2024-09-28T09:49:30.999Z</time>
      </trkpt>
      <trkpt lat="42.35834" lon="1.29452">
        <ele>1394.45</ele>
        <time>2024-09-28T09:49:36.999Z</time>
      </trkpt>
      <trkpt lat="42.35842" lon="1.29447">
        <ele>1395.28</ele>
        <time>2024-09-28T09:49:41.999Z</time>
      </trkpt>
      <trkpt lat="42.35852" lon="1.29445">
        <ele>1396.38</ele>
        <time>2024-09-28T09:49:48.999Z</time>
      </trkpt>
      <trkpt lat="42.35862" lon="1.29446">
        <ele>1397.7</ele>
        <time>2024-09-28T09:49:56.999Z</time>
      </trkpt>
      <trkpt lat="42.35872" lon="1.29446">
        <ele>1398.82</ele>
        <time>2024-09-28T09:50:03.999Z</time>
      </trkpt>
      <trkpt lat="42.35881" lon="1.29445">
        <ele>1399.94</ele>
        <time>2024-09-28T09:50:10.999Z</time>
      </trkpt>
      <trkpt lat="42.35891" lon="1.29443">
        <ele>1401.06</ele>
        <time>2024-09-28T09:50:17.999Z</time>
      </trkpt>
      <trkpt lat="42.359" lon="1.29439">
        <ele>1402</ele>
        <time>2024-09-28T09:50:23.999Z</time>
      </trkpt>
      <trkpt lat="42.35909" lon="1.29432">
        <ele>1402.95</ele>
        <time>2024-09-28T09:50:29.999Z</time>
      </trkpt>
      <trkpt lat="42.35918" lon="1.29427">
        <ele>1403.9</ele>
        <time>2024-09-28T09:50:35.999Z</time>
      </trkpt>
      <trkpt lat="42.35927" lon="1.29422">
        <ele>1404.83</ele>
        <time>2024-09-28T09:50:41.999Z</time>
      </trkpt>
      <trkpt lat="42.35936" lon="1.29416">
        <ele>1405.89</ele>
        <time>2024-09-28T09:50:48.999Z</time>
      </trkpt>
      <trkpt lat="42.35945" lon="1.29409">
        <ele>1406.91</ele>
        <time>2024-09-28T09:50:55.999Z</time>
      </trkpt>
      <trkpt lat="42.35954" lon="1.29402">
        <ele>1407.88</ele>
        <time>2024-09-28T09:51:02.999Z</time>
      </trkpt>
      <trkpt lat="42.35962" lon="1.29396">
        <ele>1408.68</ele>
        <time>2024-09-28T09:51:08.999Z</time>
      </trkpt>
      <trkpt lat="42.35971" lon="1.29393">
        <ele>1409.44</ele>
        <time>2024-09-28T09:51:14.999Z</time>
      </trkpt>
      <trkpt lat="42.3598" lon="1.29388">
        <ele>1410.12</ele>
        <time>2024-09-28T09:51:20.999Z</time>
      </trkpt>
      <trkpt lat="42.35989" lon="1.29385">
        <ele>1410.83</ele>
        <time>2024-09-28T09:51:27.999Z</time>
      </trkpt>
      <trkpt lat="42.36" lon="1.29386">
        <ele>1411.47</ele>
        <time>2024-09-28T09:51:34.999Z</time>
      </trkpt>
      <trkpt lat="42.36009" lon="1.29383">
        <ele>1412.04</ele>
        <time>2024-09-28T09:51:41.999Z</time>
      </trkpt>
      <trkpt lat="42.36019" lon="1.29382">
        <ele>1412.56</ele>
        <time>2024-09-28T09:51:48.999Z</time>
      </trkpt>
      <trkpt lat="42.36028" lon="1.29381">
        <ele>1413.04</ele>
        <time>2024-09-28T09:51:55.999Z</time>
      </trkpt>
      <trkpt lat="42.36038" lon="1.2938">
        <ele>1413.55</ele>
        <time>2024-09-28T09:52:03.999Z</time>
      </trkpt>
      <trkpt lat="42.36047" lon="1.29378">
        <ele>1413.92</ele>
        <time>2024-09-28T09:52:09.999Z</time>
      </trkpt>
      <trkpt lat="42.36057" lon="1.29378">
        <ele>1414.39</ele>
        <time>2024-09-28T09:52:17.999Z</time>
      </trkpt>
      <trkpt lat="42.36065" lon="1.29375">
        <ele>1414.79</ele>
        <time>2024-09-28T09:52:24.999Z</time>
      </trkpt>
      <trkpt lat="42.36076" lon="1.29371">
        <ele>1415.06</ele>
        <time>2024-09-28T09:52:29.999Z</time>
      </trkpt>
      <trkpt lat="42.36086" lon="1.29368">
        <ele>1415.44</ele>
        <time>2024-09-28T09:52:35.999Z</time>
      </trkpt>
      <trkpt lat="42.36095" lon="1.29364">
        <ele>1415.79</ele>
        <time>2024-09-28T09:52:40.999Z</time>
      </trkpt>
      <trkpt lat="42.36103" lon="1.29356">
        <ele>1416.23</ele>
        <time>2024-09-28T09:52:46.999Z</time>
      </trkpt>
      <trkpt lat="42.36106" lon="1.29342">
        <ele>1416.65</ele>
        <time>2024-09-28T09:52:52.999Z</time>
      </trkpt>
      <trkpt lat="42.36102" lon="1.29327">
        <ele>1416.99</ele>
        <time>2024-09-28T09:52:57.999Z</time>
      </trkpt>
      <trkpt lat="42.36093" lon="1.29317">
        <ele>1417.31</ele>
        <time>2024-09-28T09:53:02.999Z</time>
      </trkpt>
      <trkpt lat="42.3608" lon="1.29315">
        <ele>1417.61</ele>
        <time>2024-09-28T09:53:07.999Z</time>
      </trkpt>
      <trkpt lat="42.36068" lon="1.29318">
        <ele>1417.9</ele>
        <time>2024-09-28T09:53:12.999Z</time>
      </trkpt>
      <trkpt lat="42.36056" lon="1.29323">
        <ele>1418.19</ele>
        <time>2024-09-28T09:53:17.999Z</time>
      </trkpt>
      <trkpt lat="42.36044" lon="1.29329">
        <ele>1418.49</ele>
        <time>2024-09-28T09:53:22.999Z</time>
      </trkpt>
      <trkpt lat="42.36031" lon="1.29334">
        <ele>1418.79</ele>
        <time>2024-09-28T09:53:27.999Z</time>
      </trkpt>
      <trkpt lat="42.36019" lon="1.29336">
        <ele>1419.1</ele>
        <time>2024-09-28T09:53:32.999Z</time>
      </trkpt>
      <trkpt lat="42.36008" lon="1.29332">
        <ele>1419.42</ele>
        <time>2024-09-28T09:53:37.999Z</time>
      </trkpt>
      <trkpt lat="42.35996" lon="1.29331">
        <ele>1419.74</ele>
        <time>2024-09-28T09:53:42.999Z</time>
      </trkpt>
      <trkpt lat="42.35985" lon="1.29328">
        <ele>1420.04</ele>
        <time>2024-09-28T09:53:47.999Z</time>
      </trkpt>
      <trkpt lat="42.35974" lon="1.29323">
        <ele>1420.32</ele>
        <time>2024-09-28T09:53:52.999Z</time>
      </trkpt>
      <trkpt lat="42.35963" lon="1.29319">
        <ele>1420.58</ele>
        <time>2024-09-28T09:53:57.999Z</time>
      </trkpt>
      <trkpt lat="42.35952" lon="1.29316">
        <ele>1420.82</ele>
        <time>2024-09-28T09:54:02.999Z</time>
      </trkpt>
      <trkpt lat="42.35942" lon="1.29312">
        <ele>1421.09</ele>
        <time>2024-09-28T09:54:07.999Z</time>
      </trkpt>
      <trkpt lat="42.35933" lon="1.2931">
        <ele>1421.45</ele>
        <time>2024-09-28T09:54:12.999Z</time>
      </trkpt>
      <trkpt lat="42.35923" lon="1.29307">
        <ele>1421.81</ele>
        <time>2024-09-28T09:54:17.999Z</time>
      </trkpt>
      <trkpt lat="42.35914" lon="1.29303">
        <ele>1422.21</ele>
        <time>2024-09-28T09:54:22.999Z</time>
      </trkpt>
      <trkpt lat="42.35903" lon="1.29302">
        <ele>1422.72</ele>
        <time>2024-09-28T09:54:28.999Z</time>
      </trkpt>
      <trkpt lat="42.35892" lon="1.29306">
        <ele>1423.12</ele>
        <time>2024-09-28T09:54:33.999Z</time>
      </trkpt>
      <trkpt lat="42.35882" lon="1.29308">
        <ele>1423.58</ele>
        <time>2024-09-28T09:54:38.999Z</time>
      </trkpt>
      <trkpt lat="42.35873" lon="1.29312">
        <ele>1424.08</ele>
        <time>2024-09-28T09:54:43.999Z</time>
      </trkpt>
      <trkpt lat="42.35864" lon="1.29316">
        <ele>1424.73</ele>
        <time>2024-09-28T09:54:49.999Z</time>
      </trkpt>
      <trkpt lat="42.35855" lon="1.29321">
        <ele>1425.4</ele>
        <time>2024-09-28T09:54:55.999Z</time>
      </trkpt>
      <trkpt lat="42.35846" lon="1.29324">
        <ele>1426.13</ele>
        <time>2024-09-28T09:55:01.999Z</time>
      </trkpt>
      <trkpt lat="42.35836" lon="1.29328">
        <ele>1426.89</ele>
        <time>2024-09-28T09:55:07.999Z</time>
      </trkpt>
      <trkpt lat="42.35826" lon="1.29332">
        <ele>1427.68</ele>
        <time>2024-09-28T09:55:13.999Z</time>
      </trkpt>
      <trkpt lat="42.35816" lon="1.29334">
        <ele>1428.6</ele>
        <time>2024-09-28T09:55:20.999Z</time>
      </trkpt>
      <trkpt lat="42.35806" lon="1.29339">
        <ele>1429.22</ele>
        <time>2024-09-28T09:55:25.999Z</time>
      </trkpt>
      <trkpt lat="42.35797" lon="1.29342">
        <ele>1429.99</ele>
        <time>2024-09-28T09:55:31.999Z</time>
      </trkpt>
      <trkpt lat="42.35787" lon="1.29345">
        <ele>1430.97</ele>
        <time>2024-09-28T09:55:37.999Z</time>
      </trkpt>
      <trkpt lat="42.35778" lon="1.29349">
        <ele>1431.95</ele>
        <time>2024-09-28T09:55:42.999Z</time>
      </trkpt>
      <trkpt lat="42.35768" lon="1.29352">
        <ele>1433.44</ele>
        <time>2024-09-28T09:55:49.999Z</time>
      </trkpt>
      <trkpt lat="42.35758" lon="1.29357">
        <ele>1434.76</ele>
        <time>2024-09-28T09:55:55.999Z</time>
      </trkpt>
      <trkpt lat="42.35749" lon="1.29362">
        <ele>1436.29</ele>
        <time>2024-09-28T09:56:02.999Z</time>
      </trkpt>
      <trkpt lat="42.35739" lon="1.29366">
        <ele>1437.83</ele>
        <time>2024-09-28T09:56:09.999Z</time>
      </trkpt>
      <trkpt lat="42.3573" lon="1.2937">
        <ele>1439.14</ele>
        <time>2024-09-28T09:56:15.999Z</time>
      </trkpt>
      <trkpt lat="42.35721" lon="1.29376">
        <ele>1440.4</ele>
        <time>2024-09-28T09:56:21.999Z</time>
      </trkpt>
      <trkpt lat="42.35712" lon="1.2938">
        <ele>1441.81</ele>
        <time>2024-09-28T09:56:28.999Z</time>
      </trkpt>
      <trkpt lat="42.35703" lon="1.29383">
        <ele>1443.16</ele>
        <time>2024-09-28T09:56:35.999Z</time>
      </trkpt>
      <trkpt lat="42.35693" lon="1.29384">
        <ele>1444.29</ele>
        <time>2024-09-28T09:56:41.999Z</time>
      </trkpt>
      <trkpt lat="42.35684" lon="1.29388">
        <ele>1447.03</ele>
        <time>2024-09-28T09:57:28.999Z</time>
      </trkpt>
      <trkpt lat="42.35674" lon="1.29388">
        <ele>1447.94</ele>
        <time>2024-09-28T09:57:34.999Z</time>
      </trkpt>
      <trkpt lat="42.35664" lon="1.29389">
        <ele>1448.78</ele>
        <time>2024-09-28T09:57:40.999Z</time>
      </trkpt>
      <trkpt lat="42.35654" lon="1.29391">
        <ele>1449.56</ele>
        <time>2024-09-28T09:57:46.999Z</time>
      </trkpt>
      <trkpt lat="42.35644" lon="1.29393">
        <ele>1450.19</ele>
        <time>2024-09-28T09:57:51.999Z</time>
      </trkpt>
      <trkpt lat="42.35634" lon="1.29395">
        <ele>1450.82</ele>
        <time>2024-09-28T09:57:56.999Z</time>
      </trkpt>
      <trkpt lat="42.35624" lon="1.29397">
        <ele>1451.56</ele>
        <time>2024-09-28T09:58:02.999Z</time>
      </trkpt>
      <trkpt lat="42.35614" lon="1.29397">
        <ele>1452.26</ele>
        <time>2024-09-28T09:58:08.999Z</time>
      </trkpt>
      <trkpt lat="42.35604" lon="1.29398">
        <ele>1452.96</ele>
        <time>2024-09-28T09:58:14.999Z</time>
      </trkpt>
      <trkpt lat="42.35594" lon="1.294">
        <ele>1453.64</ele>
        <time>2024-09-28T09:58:20.999Z</time>
      </trkpt>
      <trkpt lat="42.35584" lon="1.29401">
        <ele>1454.3</ele>
        <time>2024-09-28T09:58:26.999Z</time>
      </trkpt>
      <trkpt lat="42.35573" lon="1.29401">
        <ele>1455.04</ele>
        <time>2024-09-28T09:58:33.999Z</time>
      </trkpt>
      <trkpt lat="42.35563" lon="1.29399">
        <ele>1455.57</ele>
        <time>2024-09-28T09:58:38.999Z</time>
      </trkpt>
      <trkpt lat="42.35554" lon="1.29396">
        <ele>1456.18</ele>
        <time>2024-09-28T09:58:44.999Z</time>
      </trkpt>
      <trkpt lat="42.35546" lon="1.2939">
        <ele>1456.77</ele>
        <time>2024-09-28T09:58:50.999Z</time>
      </trkpt>
      <trkpt lat="42.35537" lon="1.29385">
        <ele>1457.34</ele>
        <time>2024-09-28T09:58:56.999Z</time>
      </trkpt>
      <trkpt lat="42.35528" lon="1.29379">
        <ele>1457.98</ele>
        <time>2024-09-28T09:59:03.999Z</time>
      </trkpt>
      <trkpt lat="42.35519" lon="1.29374">
        <ele>1458.52</ele>
        <time>2024-09-28T09:59:09.999Z</time>
      </trkpt>
      <trkpt lat="42.3551" lon="1.29369">
        <ele>1459.13</ele>
        <time>2024-09-28T09:59:16.999Z</time>
      </trkpt>
      <trkpt lat="42.355" lon="1.29366">
        <ele>1459.74</ele>
        <time>2024-09-28T09:59:23.999Z</time>
      </trkpt>
      <trkpt lat="42.3549" lon="1.29361">
        <ele>1460.41</ele>
        <time>2024-09-28T09:59:31.999Z</time>
      </trkpt>
      <trkpt lat="42.35481" lon="1.29356">
        <ele>1461.07</ele>
        <time>2024-09-28T09:59:39.999Z</time>
      </trkpt>
      <trkpt lat="42.35472" lon="1.29352">
        <ele>1461.62</ele>
        <time>2024-09-28T09:59:46.999Z</time>
      </trkpt>
      <trkpt lat="42.35462" lon="1.29349">
        <ele>1462.08</ele>
        <time>2024-09-28T09:59:52.999Z</time>
      </trkpt>
      <trkpt lat="42.35452" lon="1.29349">
        <ele>1462.54</ele>
        <time>2024-09-28T09:59:58.999Z</time>
      </trkpt>
      <trkpt lat="42.35442" lon="1.29346">
        <ele>1463.16</ele>
        <time>2024-09-28T10:00:06.999Z</time>
      </trkpt>
      <trkpt lat="42.35432" lon="1.29347">
        <ele>1463.74</ele>
        <time>2024-09-28T10:00:13.999Z</time>
      </trkpt>
      <trkpt lat="42.35422" lon="1.29347">
        <ele>1464.28</ele>
        <time>2024-09-28T10:00:19.999Z</time>
      </trkpt>
      <trkpt lat="42.35412" lon="1.29346">
        <ele>1464.98</ele>
        <time>2024-09-28T10:00:26.999Z</time>
      </trkpt>
      <trkpt lat="42.35402" lon="1.29344">
        <ele>1465.56</ele>
        <time>2024-09-28T10:00:32.999Z</time>
      </trkpt>
      <trkpt lat="42.35393" lon="1.29346">
        <ele>1466.1</ele>
        <time>2024-09-28T10:00:38.999Z</time>
      </trkpt>
      <trkpt lat="42.35383" lon="1.29346">
        <ele>1466.75</ele>
        <time>2024-09-28T10:00:46.999Z</time>
      </trkpt>
      <trkpt lat="42.35372" lon="1.29347">
        <ele>1467.3</ele>
        <time>2024-09-28T10:00:53.999Z</time>
      </trkpt>
      <trkpt lat="42.35361" lon="1.29347">
        <ele>1467.86</ele>
        <time>2024-09-28T10:01:00.999Z</time>
      </trkpt>
      <trkpt lat="42.35352" lon="1.29347">
        <ele>1468.34</ele>
        <time>2024-09-28T10:01:06.999Z</time>
      </trkpt>
      <trkpt lat="42.35343" lon="1.29346">
        <ele>1468.8</ele>
        <time>2024-09-28T10:01:12.999Z</time>
      </trkpt>
      <trkpt lat="42.35333" lon="1.29344">
        <ele>1469.34</ele>
        <time>2024-09-28T10:01:19.999Z</time>
      </trkpt>
      <trkpt lat="42.35323" lon="1.29344">
        <ele>1469.81</ele>
        <time>2024-09-28T10:01:25.999Z</time>
      </trkpt>
      <trkpt lat="42.35314" lon="1.29344">
        <ele>1470.37</ele>
        <time>2024-09-28T10:01:32.999Z</time>
      </trkpt>
      <trkpt lat="42.35303" lon="1.29343">
        <ele>1470.96</ele>
        <time>2024-09-28T10:01:39.999Z</time>
      </trkpt>
      <trkpt lat="42.35294" lon="1.29343">
        <ele>1471.55</ele>
        <time>2024-09-28T10:01:47.000Z</time>
      </trkpt>
      <trkpt lat="42.35284" lon="1.29345">
        <ele>1472.15</ele>
        <time>2024-09-28T10:01:54.000Z</time>
      </trkpt>
      <trkpt lat="42.35275" lon="1.29348">
        <ele>1472.79</ele>
        <time>2024-09-28T10:02:01.000Z</time>
      </trkpt>
      <trkpt lat="42.35266" lon="1.29351">
        <ele>1473.37</ele>
        <time>2024-09-28T10:02:07.000Z</time>
      </trkpt>
      <trkpt lat="42.35256" lon="1.29351">
        <ele>1474.13</ele>
        <time>2024-09-28T10:02:14.000Z</time>
      </trkpt>
      <trkpt lat="42.35246" lon="1.29351">
        <ele>1474.95</ele>
        <time>2024-09-28T10:02:21.000Z</time>
      </trkpt>
      <trkpt lat="42.35236" lon="1.29352">
        <ele>1475.8</ele>
        <time>2024-09-28T10:02:28.000Z</time>
      </trkpt>
      <trkpt lat="42.35226" lon="1.29352">
        <ele>1476.52</ele>
        <time>2024-09-28T10:02:34.000Z</time>
      </trkpt>
      <trkpt lat="42.35216" lon="1.29353">
        <ele>1477.37</ele>
        <time>2024-09-28T10:02:41.000Z</time>
      </trkpt>
      <trkpt lat="42.35206" lon="1.29354">
        <ele>1478.23</ele>
        <time>2024-09-28T10:02:48.000Z</time>
      </trkpt>
      <trkpt lat="42.35195" lon="1.29355">
        <ele>1479.1</ele>
        <time>2024-09-28T10:02:55.000Z</time>
      </trkpt>
      <trkpt lat="42.35186" lon="1.29358">
        <ele>1480.01</ele>
        <time>2024-09-28T10:03:02.000Z</time>
      </trkpt>
      <trkpt lat="42.35175" lon="1.29362">
        <ele>1481</ele>
        <time>2024-09-28T10:03:08.000Z</time>
      </trkpt>
      <trkpt lat="42.35166" lon="1.29366">
        <ele>1482.15</ele>
        <time>2024-09-28T10:03:14.000Z</time>
      </trkpt>
      <trkpt lat="42.35156" lon="1.29371">
        <ele>1483.39</ele>
        <time>2024-09-28T10:03:20.000Z</time>
      </trkpt>
      <trkpt lat="42.35147" lon="1.29374">
        <ele>1484.89</ele>
        <time>2024-09-28T10:03:27.000Z</time>
      </trkpt>
      <trkpt lat="42.35137" lon="1.29376">
        <ele>1486.41</ele>
        <time>2024-09-28T10:03:34.000Z</time>
      </trkpt>
      <trkpt lat="42.35128" lon="1.29377">
        <ele>1487.68</ele>
        <time>2024-09-28T10:03:40.000Z</time>
      </trkpt>
      <trkpt lat="42.35118" lon="1.2938">
        <ele>1489.12</ele>
        <time>2024-09-28T10:03:47.000Z</time>
      </trkpt>
      <trkpt lat="42.35108" lon="1.29382">
        <ele>1490.5</ele>
        <time>2024-09-28T10:03:54.000Z</time>
      </trkpt>
      <trkpt lat="42.35099" lon="1.29385">
        <ele>1491.64</ele>
        <time>2024-09-28T10:04:00.000Z</time>
      </trkpt>
      <trkpt lat="42.35089" lon="1.29387">
        <ele>1492.91</ele>
        <time>2024-09-28T10:04:07.000Z</time>
      </trkpt>
      <trkpt lat="42.3508" lon="1.29389">
        <ele>1494.29</ele>
        <time>2024-09-28T10:04:15.000Z</time>
      </trkpt>
      <trkpt lat="42.35071" lon="1.29392">
        <ele>1495.62</ele>
        <time>2024-09-28T10:04:23.000Z</time>
      </trkpt>
      <trkpt lat="42.35061" lon="1.29396">
        <ele>1496.71</ele>
        <time>2024-09-28T10:04:30.000Z</time>
      </trkpt>
      <trkpt lat="42.35052" lon="1.29399">
        <ele>1497.61</ele>
        <time>2024-09-28T10:04:36.000Z</time>
      </trkpt>
      <trkpt lat="42.35042" lon="1.29403">
        <ele>1498.61</ele>
        <time>2024-09-28T10:04:43.000Z</time>
      </trkpt>
      <trkpt lat="42.35032" lon="1.29406">
        <ele>1499.56</ele>
        <time>2024-09-28T10:04:50.000Z</time>
      </trkpt>
      <trkpt lat="42.35023" lon="1.2941">
        <ele>1500.48</ele>
        <time>2024-09-28T10:04:57.000Z</time>
      </trkpt>
      <trkpt lat="42.35014" lon="1.29414">
        <ele>1501.25</ele>
        <time>2024-09-28T10:05:03.000Z</time>
      </trkpt>
      <trkpt lat="42.35004" lon="1.29419">
        <ele>1502.13</ele>
        <time>2024-09-28T10:05:10.000Z</time>
      </trkpt>
      <trkpt lat="42.34995" lon="1.29423">
        <ele>1502.85</ele>
        <time>2024-09-28T10:05:16.000Z</time>
      </trkpt>
      <trkpt lat="42.34986" lon="1.29427">
        <ele>1503.55</ele>
        <time>2024-09-28T10:05:22.000Z</time>
      </trkpt>
      <trkpt lat="42.34977" lon="1.2943">
        <ele>1504.34</ele>
        <time>2024-09-28T10:05:29.000Z</time>
      </trkpt>
      <trkpt lat="42.34967" lon="1.29431">
        <ele>1505.12</ele>
        <time>2024-09-28T10:05:36.000Z</time>
      </trkpt>
      <trkpt lat="42.34958" lon="1.29431">
        <ele>1505.79</ele>
        <time>2024-09-28T10:05:42.000Z</time>
      </trkpt>
      <trkpt lat="42.34949" lon="1.29429">
        <ele>1506.55</ele>
        <time>2024-09-28T10:05:49.000Z</time>
      </trkpt>
      <trkpt lat="42.34939" lon="1.29427">
        <ele>1507.29</ele>
        <time>2024-09-28T10:05:56.000Z</time>
      </trkpt>
      <trkpt lat="42.34929" lon="1.29424">
        <ele>1508.05</ele>
        <time>2024-09-28T10:06:03.000Z</time>
      </trkpt>
      <trkpt lat="42.34918" lon="1.29422">
        <ele>1508.78</ele>
        <time>2024-09-28T10:06:10.000Z</time>
      </trkpt>
      <trkpt lat="42.34908" lon="1.2942">
        <ele>1509.49</ele>
        <time>2024-09-28T10:06:17.000Z</time>
      </trkpt>
      <trkpt lat="42.34898" lon="1.29419">
        <ele>1510.08</ele>
        <time>2024-09-28T10:06:23.000Z</time>
      </trkpt>
      <trkpt lat="42.34889" lon="1.29417">
        <ele>1510.84</ele>
        <time>2024-09-28T10:06:31.000Z</time>
      </trkpt>
      <trkpt lat="42.34879" lon="1.29419">
        <ele>1511.39</ele>
        <time>2024-09-28T10:06:37.000Z</time>
      </trkpt>
      <trkpt lat="42.34871" lon="1.29423">
        <ele>1511.92</ele>
        <time>2024-09-28T10:06:43.000Z</time>
      </trkpt>
      <trkpt lat="42.34862" lon="1.29426">
        <ele>1512.42</ele>
        <time>2024-09-28T10:06:49.000Z</time>
      </trkpt>
      <trkpt lat="42.34852" lon="1.29432">
        <ele>1512.99</ele>
        <time>2024-09-28T10:06:56.000Z</time>
      </trkpt>
      <trkpt lat="42.34843" lon="1.29436">
        <ele>1513.6</ele>
        <time>2024-09-28T10:07:04.000Z</time>
      </trkpt>
      <trkpt lat="42.34834" lon="1.29442">
        <ele>1514.04</ele>
        <time>2024-09-28T10:07:10.000Z</time>
      </trkpt>
      <trkpt lat="42.34825" lon="1.29446">
        <ele>1514.56</ele>
        <time>2024-09-28T10:07:17.000Z</time>
      </trkpt>
      <trkpt lat="42.34815" lon="1.29451">
        <ele>1515.06</ele>
        <time>2024-09-28T10:07:24.000Z</time>
      </trkpt>
      <trkpt lat="42.34805" lon="1.29457">
        <ele>1515.57</ele>
        <time>2024-09-28T10:07:31.000Z</time>
      </trkpt>
      <trkpt lat="42.34796" lon="1.29462">
        <ele>1516</ele>
        <time>2024-09-28T10:07:37.000Z</time>
      </trkpt>
      <trkpt lat="42.34786" lon="1.29468">
        <ele>1516.51</ele>
        <time>2024-09-28T10:07:44.000Z</time>
      </trkpt>
      <trkpt lat="42.34778" lon="1.29472">
        <ele>1516.95</ele>
        <time>2024-09-28T10:07:50.000Z</time>
      </trkpt>
      <trkpt lat="42.34768" lon="1.29477">
        <ele>1517.48</ele>
        <time>2024-09-28T10:07:57.000Z</time>
      </trkpt>
      <trkpt lat="42.34759" lon="1.29482">
        <ele>1518.08</ele>
        <time>2024-09-28T10:08:05.000Z</time>
      </trkpt>
      <trkpt lat="42.34749" lon="1.29486">
        <ele>1518.62</ele>
        <time>2024-09-28T10:08:12.000Z</time>
      </trkpt>
      <trkpt lat="42.3474" lon="1.2949">
        <ele>1519.08</ele>
        <time>2024-09-28T10:08:18.000Z</time>
      </trkpt>
      <trkpt lat="42.34731" lon="1.29494">
        <ele>1519.71</ele>
        <time>2024-09-28T10:08:26.000Z</time>
      </trkpt>
      <trkpt lat="42.34722" lon="1.295">
        <ele>1520.19</ele>
        <time>2024-09-28T10:08:32.000Z</time>
      </trkpt>
      <trkpt lat="42.34712" lon="1.29503">
        <ele>1520.76</ele>
        <time>2024-09-28T10:08:39.000Z</time>
      </trkpt>
      <trkpt lat="42.34703" lon="1.29506">
        <ele>1521.35</ele>
        <time>2024-09-28T10:08:46.000Z</time>
      </trkpt>
      <trkpt lat="42.34694" lon="1.29509">
        <ele>1521.86</ele>
        <time>2024-09-28T10:08:52.000Z</time>
      </trkpt>
      <trkpt lat="42.34684" lon="1.29511">
        <ele>1522.48</ele>
        <time>2024-09-28T10:08:59.000Z</time>
      </trkpt>
      <trkpt lat="42.34674" lon="1.29515">
        <ele>1523.17</ele>
        <time>2024-09-28T10:09:07.000Z</time>
      </trkpt>
      <trkpt lat="42.34665" lon="1.29518">
        <ele>1523.67</ele>
        <time>2024-09-28T10:09:13.000Z</time>
      </trkpt>
      <trkpt lat="42.34655" lon="1.29523">
        <ele>1524.24</ele>
        <time>2024-09-28T10:09:20.000Z</time>
      </trkpt>
      <trkpt lat="42.34645" lon="1.29528">
        <ele>1524.8</ele>
        <time>2024-09-28T10:09:27.000Z</time>
      </trkpt>
      <trkpt lat="42.34636" lon="1.29536">
        <ele>1525.2</ele>
        <time>2024-09-28T10:09:32.000Z</time>
      </trkpt>
      <trkpt lat="42.34627" lon="1.29541">
        <ele>1525.85</ele>
        <time>2024-09-28T10:09:40.000Z</time>
      </trkpt>
      <trkpt lat="42.34619" lon="1.29547">
        <ele>1526.34</ele>
        <time>2024-09-28T10:09:46.000Z</time>
      </trkpt>
      <trkpt lat="42.34611" lon="1.29553">
        <ele>1526.82</ele>
        <time>2024-09-28T10:09:52.000Z</time>
      </trkpt>
      <trkpt lat="42.34602" lon="1.2956">
        <ele>1527.46</ele>
        <time>2024-09-28T10:10:00.000Z</time>
      </trkpt>
      <trkpt lat="42.34594" lon="1.29565">
        <ele>1528.05</ele>
        <time>2024-09-28T10:10:07.000Z</time>
      </trkpt>
      <trkpt lat="42.34584" lon="1.29571">
        <ele>1528.57</ele>
        <time>2024-09-28T10:10:13.000Z</time>
      </trkpt>
      <trkpt lat="42.34575" lon="1.29578">
        <ele>1529.03</ele>
        <time>2024-09-28T10:10:18.000Z</time>
      </trkpt>
      <trkpt lat="42.34565" lon="1.29583">
        <ele>1529.51</ele>
        <time>2024-09-28T10:10:23.000Z</time>
      </trkpt>
      <trkpt lat="42.34557" lon="1.29588">
        <ele>1530.11</ele>
        <time>2024-09-28T10:10:29.000Z</time>
      </trkpt>
      <trkpt lat="42.34548" lon="1.29593">
        <ele>1530.94</ele>
        <time>2024-09-28T10:10:37.000Z</time>
      </trkpt>
      <trkpt lat="42.34539" lon="1.29597">
        <ele>1531.57</ele>
        <time>2024-09-28T10:10:43.000Z</time>
      </trkpt>
      <trkpt lat="42.3453" lon="1.29601">
        <ele>1532.43</ele>
        <time>2024-09-28T10:10:51.000Z</time>
      </trkpt>
      <trkpt lat="42.34521" lon="1.29605">
        <ele>1533.29</ele>
        <time>2024-09-28T10:10:59.000Z</time>
      </trkpt>
      <trkpt lat="42.34511" lon="1.2961">
        <ele>1534.03</ele>
        <time>2024-09-28T10:11:06.000Z</time>
      </trkpt>
      <trkpt lat="42.34503" lon="1.29615">
        <ele>1534.68</ele>
        <time>2024-09-28T10:11:12.000Z</time>
      </trkpt>
      <trkpt lat="42.34494" lon="1.29621">
        <ele>1535.33</ele>
        <time>2024-09-28T10:11:18.000Z</time>
      </trkpt>
      <trkpt lat="42.34485" lon="1.29625">
        <ele>1536.12</ele>
        <time>2024-09-28T10:11:25.000Z</time>
      </trkpt>
      <trkpt lat="42.34476" lon="1.29631">
        <ele>1536.81</ele>
        <time>2024-09-28T10:11:31.000Z</time>
      </trkpt>
      <trkpt lat="42.34468" lon="1.29636">
        <ele>1537.4</ele>
        <time>2024-09-28T10:11:36.000Z</time>
      </trkpt>
      <trkpt lat="42.3446" lon="1.29641">
        <ele>1538.13</ele>
        <time>2024-09-28T10:11:42.000Z</time>
      </trkpt>
      <trkpt lat="42.34451" lon="1.29646">
        <ele>1538.87</ele>
        <time>2024-09-28T10:11:48.000Z</time>
      </trkpt>
      <trkpt lat="42.34443" lon="1.29652">
        <ele>1539.62</ele>
        <time>2024-09-28T10:11:54.000Z</time>
      </trkpt>
      <trkpt lat="42.34434" lon="1.29658">
        <ele>1540.6</ele>
        <time>2024-09-28T10:12:02.000Z</time>
      </trkpt>
      <trkpt lat="42.34425" lon="1.29664">
        <ele>1541.46</ele>
        <time>2024-09-28T10:12:09.000Z</time>
      </trkpt>
      <trkpt lat="42.34416" lon="1.29671">
        <ele>1542.33</ele>
        <time>2024-09-28T10:12:16.000Z</time>
      </trkpt>
      <trkpt lat="42.34407" lon="1.29676">
        <ele>1543.07</ele>
        <time>2024-09-28T10:12:22.000Z</time>
      </trkpt>
      <trkpt lat="42.34398" lon="1.29682">
        <ele>1543.94</ele>
        <time>2024-09-28T10:12:29.000Z</time>
      </trkpt>
      <trkpt lat="42.3439" lon="1.29689">
        <ele>1544.81</ele>
        <time>2024-09-28T10:12:36.000Z</time>
      </trkpt>
      <trkpt lat="42.34381" lon="1.29695">
        <ele>1545.68</ele>
        <time>2024-09-28T10:12:43.000Z</time>
      </trkpt>
      <trkpt lat="42.34371" lon="1.29701">
        <ele>1546.29</ele>
        <time>2024-09-28T10:12:48.000Z</time>
      </trkpt>
      <trkpt lat="42.34362" lon="1.29707">
        <ele>1547.17</ele>
        <time>2024-09-28T10:12:55.000Z</time>
      </trkpt>
      <trkpt lat="42.34353" lon="1.29713">
        <ele>1548.05</ele>
        <time>2024-09-28T10:13:02.000Z</time>
      </trkpt>
      <trkpt lat="42.34344" lon="1.29718">
        <ele>1548.81</ele>
        <time>2024-09-28T10:13:08.000Z</time>
      </trkpt>
      <trkpt lat="42.34335" lon="1.29724">
        <ele>1549.67</ele>
        <time>2024-09-28T10:13:15.000Z</time>
      </trkpt>
      <trkpt lat="42.34326" lon="1.2973">
        <ele>1550.5</ele>
        <time>2024-09-28T10:13:22.000Z</time>
      </trkpt>
      <trkpt lat="42.34317" lon="1.29736">
        <ele>1551.2</ele>
        <time>2024-09-28T10:13:28.000Z</time>
      </trkpt>
      <trkpt lat="42.34309" lon="1.29742">
        <ele>1551.87</ele>
        <time>2024-09-28T10:13:34.000Z</time>
      </trkpt>
      <trkpt lat="42.343" lon="1.29748">
        <ele>1552.54</ele>
        <time>2024-09-28T10:13:40.000Z</time>
      </trkpt>
      <trkpt lat="42.34293" lon="1.29756">
        <ele>1553.2</ele>
        <time>2024-09-28T10:13:46.000Z</time>
      </trkpt>
      <trkpt lat="42.34285" lon="1.29765">
        <ele>1553.85</ele>
        <time>2024-09-28T10:13:52.000Z</time>
      </trkpt>
      <trkpt lat="42.34278" lon="1.29773">
        <ele>1554.61</ele>
        <time>2024-09-28T10:13:59.000Z</time>
      </trkpt>
      <trkpt lat="42.34271" lon="1.29783">
        <ele>1555.34</ele>
        <time>2024-09-28T10:14:05.999Z</time>
      </trkpt>
      <trkpt lat="42.34263" lon="1.29791">
        <ele>1555.96</ele>
        <time>2024-09-28T10:14:11.999Z</time>
      </trkpt>
      <trkpt lat="42.34255" lon="1.29801">
        <ele>1556.6</ele>
        <time>2024-09-28T10:14:17.999Z</time>
      </trkpt>
      <trkpt lat="42.34247" lon="1.29809">
        <ele>1557.34</ele>
        <time>2024-09-28T10:14:24.999Z</time>
      </trkpt>
      <trkpt lat="42.3424" lon="1.29818">
        <ele>1558.17</ele>
        <time>2024-09-28T10:14:32.999Z</time>
      </trkpt>
      <trkpt lat="42.34232" lon="1.29827">
        <ele>1558.81</ele>
        <time>2024-09-28T10:14:38.999Z</time>
      </trkpt>
      <trkpt lat="42.34224" lon="1.29834">
        <ele>1559.57</ele>
        <time>2024-09-28T10:14:45.999Z</time>
      </trkpt>
      <trkpt lat="42.34218" lon="1.29844">
        <ele>1560.22</ele>
        <time>2024-09-28T10:14:51.999Z</time>
      </trkpt>
      <trkpt lat="42.3421" lon="1.2985">
        <ele>1560.98</ele>
        <time>2024-09-28T10:14:58.999Z</time>
      </trkpt>
      <trkpt lat="42.34201" lon="1.29856">
        <ele>1561.73</ele>
        <time>2024-09-28T10:15:05.999Z</time>
      </trkpt>
      <trkpt lat="42.34192" lon="1.2986">
        <ele>1562.37</ele>
        <time>2024-09-28T10:15:11.999Z</time>
      </trkpt>
      <trkpt lat="42.34183" lon="1.29865">
        <ele>1563.08</ele>
        <time>2024-09-28T10:15:18.999Z</time>
      </trkpt>
      <trkpt lat="42.34175" lon="1.29871">
        <ele>1563.83</ele>
        <time>2024-09-28T10:15:26.999Z</time>
      </trkpt>
      <trkpt lat="42.34248" lon="1.29382">
        <ele>1575.98</ele>
        <time>2024-09-28T10:30:37.000Z</time>
      </trkpt>
      <trkpt lat="42.34253" lon="1.29368">
        <ele>1579.48</ele>
        <time>2024-09-28T10:30:58.000Z</time>
      </trkpt>
      <trkpt lat="42.34261" lon="1.29345">
        <ele>1579.58</ele>
        <time>2024-09-28T10:31:03.000Z</time>
      </trkpt>
      <trkpt lat="42.3427" lon="1.29318">
        <ele>1579.96</ele>
        <time>2024-09-28T10:31:08.000Z</time>
      </trkpt>
      <trkpt lat="42.3428" lon="1.2929">
        <ele>1580.34</ele>
        <time>2024-09-28T10:31:13.000Z</time>
      </trkpt>
      <trkpt lat="42.34288" lon="1.29262">
        <ele>1580.61</ele>
        <time>2024-09-28T10:31:18.000Z</time>
      </trkpt>
      <trkpt lat="42.34298" lon="1.29233">
        <ele>1580.79</ele>
        <time>2024-09-28T10:31:23.000Z</time>
      </trkpt>
      <trkpt lat="42.3431" lon="1.29204">
        <ele>1581.02</ele>
        <time>2024-09-28T10:31:28.000Z</time>
      </trkpt>
      <trkpt lat="42.34321" lon="1.29174">
        <ele>1581.29</ele>
        <time>2024-09-28T10:31:33.000Z</time>
      </trkpt>
      <trkpt lat="42.34332" lon="1.29143">
        <ele>1581.56</ele>
        <time>2024-09-28T10:31:38.000Z</time>
      </trkpt>
      <trkpt lat="42.34344" lon="1.29112">
        <ele>1581.82</ele>
        <time>2024-09-28T10:31:43.000Z</time>
      </trkpt>
      <trkpt lat="42.34356" lon="1.29083">
        <ele>1582.09</ele>
        <time>2024-09-28T10:31:48.000Z</time>
      </trkpt>
      <trkpt lat="42.34371" lon="1.29056">
        <ele>1582.33</ele>
        <time>2024-09-28T10:31:53.000Z</time>
      </trkpt>
      <trkpt lat="42.3439" lon="1.2903">
        <ele>1582.55</ele>
        <time>2024-09-28T10:31:58.000Z</time>
      </trkpt>
      <trkpt lat="42.34411" lon="1.29007">
        <ele>1582.65</ele>
        <time>2024-09-28T10:32:03.000Z</time>
      </trkpt>
      <trkpt lat="42.34434" lon="1.28988">
        <ele>1582.68</ele>
        <time>2024-09-28T10:32:08.000Z</time>
      </trkpt>
      <trkpt lat="42.34458" lon="1.2897">
        <ele>1582.67</ele>
        <time>2024-09-28T10:32:13.000Z</time>
      </trkpt>
      <trkpt lat="42.34485" lon="1.2895">
        <ele>1582.7</ele>
        <time>2024-09-28T10:32:18.000Z</time>
      </trkpt>
      <trkpt lat="42.3451" lon="1.2893">
        <ele>1582.72</ele>
        <time>2024-09-28T10:32:23.000Z</time>
      </trkpt>
      <trkpt lat="42.34536" lon="1.28912">
        <ele>1582.61</ele>
        <time>2024-09-28T10:32:28.000Z</time>
      </trkpt>
      <trkpt lat="42.34563" lon="1.28897">
        <ele>1582.41</ele>
        <time>2024-09-28T10:32:33.000Z</time>
      </trkpt>
      <trkpt lat="42.34589" lon="1.28891">
        <ele>1582.21</ele>
        <time>2024-09-28T10:32:38.000Z</time>
      </trkpt>
      <trkpt lat="42.34615" lon="1.28889">
        <ele>1582.09</ele>
        <time>2024-09-28T10:32:43.000Z</time>
      </trkpt>
      <trkpt lat="42.34642" lon="1.28889">
        <ele>1582.04</ele>
        <time>2024-09-28T10:32:48.000Z</time>
      </trkpt>
      <trkpt lat="42.34667" lon="1.28893">
        <ele>1581.98</ele>
        <time>2024-09-28T10:32:53.000Z</time>
      </trkpt>
      <trkpt lat="42.34694" lon="1.28894">
        <ele>1581.78</ele>
        <time>2024-09-28T10:32:58.000Z</time>
      </trkpt>
      <trkpt lat="42.34721" lon="1.28883">
        <ele>1581.53</ele>
        <time>2024-09-28T10:33:03.000Z</time>
      </trkpt>
      <trkpt lat="42.34746" lon="1.28862">
        <ele>1581.32</ele>
        <time>2024-09-28T10:33:08.000Z</time>
      </trkpt>
      <trkpt lat="42.34768" lon="1.28834">
        <ele>1581.27</ele>
        <time>2024-09-28T10:33:13.000Z</time>
      </trkpt>
      <trkpt lat="42.34785" lon="1.28809">
        <ele>1581.35</ele>
        <time>2024-09-28T10:33:18.000Z</time>
      </trkpt>
      <trkpt lat="42.34803" lon="1.28783">
        <ele>1581.49</ele>
        <time>2024-09-28T10:33:23.000Z</time>
      </trkpt>
      <trkpt lat="42.34821" lon="1.28756">
        <ele>1581.67</ele>
        <time>2024-09-28T10:33:28.000Z</time>
      </trkpt>
      <trkpt lat="42.34839" lon="1.28731">
        <ele>1581.87</ele>
        <time>2024-09-28T10:33:33.000Z</time>
      </trkpt>
      <trkpt lat="42.34853" lon="1.28708">
        <ele>1582.08</ele>
        <time>2024-09-28T10:33:38.000Z</time>
      </trkpt>
      <trkpt lat="42.34867" lon="1.28687">
        <ele>1582.28</ele>
        <time>2024-09-28T10:33:43.000Z</time>
      </trkpt>
      <trkpt lat="42.34882" lon="1.28665">
        <ele>1582.47</ele>
        <time>2024-09-28T10:33:48.000Z</time>
      </trkpt>
      <trkpt lat="42.34897" lon="1.28644">
        <ele>1582.65</ele>
        <time>2024-09-28T10:33:53.000Z</time>
      </trkpt>
      <trkpt lat="42.34912" lon="1.28623">
        <ele>1582.82</ele>
        <time>2024-09-28T10:33:58.000Z</time>
      </trkpt>
      <trkpt lat="42.34927" lon="1.28603">
        <ele>1582.99</ele>
        <time>2024-09-28T10:34:03.000Z</time>
      </trkpt>
      <trkpt lat="42.34942" lon="1.28584">
        <ele>1583.17</ele>
        <time>2024-09-28T10:34:08.000Z</time>
      </trkpt>
      <trkpt lat="42.34956" lon="1.28562">
        <ele>1583.36</ele>
        <time>2024-09-28T10:34:13.000Z</time>
      </trkpt>
      <trkpt lat="42.34971" lon="1.28539">
        <ele>1583.56</ele>
        <time>2024-09-28T10:34:18.000Z</time>
      </trkpt>
      <trkpt lat="42.34985" lon="1.28517">
        <ele>1583.78</ele>
        <time>2024-09-28T10:34:23.000Z</time>
      </trkpt>
      <trkpt lat="42.34998" lon="1.28497">
        <ele>1583.98</ele>
        <time>2024-09-28T10:34:28.000Z</time>
      </trkpt>
      <trkpt lat="42.3501" lon="1.28476">
        <ele>1584.19</ele>
        <time>2024-09-28T10:34:33.000Z</time>
      </trkpt>
      <trkpt lat="42.35022" lon="1.28453">
        <ele>1584.4</ele>
        <time>2024-09-28T10:34:38.000Z</time>
      </trkpt>
      <trkpt lat="42.35035" lon="1.28431">
        <ele>1584.61</ele>
        <time>2024-09-28T10:34:43.000Z</time>
      </trkpt>
      <trkpt lat="42.35049" lon="1.28408">
        <ele>1584.82</ele>
        <time>2024-09-28T10:34:48.000Z</time>
      </trkpt>
      <trkpt lat="42.35062" lon="1.28385">
        <ele>1585.04</ele>
        <time>2024-09-28T10:34:53.000Z</time>
      </trkpt>
      <trkpt lat="42.35075" lon="1.2836">
        <ele>1585.25</ele>
        <time>2024-09-28T10:34:58.000Z</time>
      </trkpt>
      <trkpt lat="42.3509" lon="1.28334">
        <ele>1585.44</ele>
        <time>2024-09-28T10:35:03.000Z</time>
      </trkpt>
      <trkpt lat="42.35104" lon="1.28309">
        <ele>1585.63</ele>
        <time>2024-09-28T10:35:08.000Z</time>
      </trkpt>
      <trkpt lat="42.35119" lon="1.28283">
        <ele>1585.81</ele>
        <time>2024-09-28T10:35:13.000Z</time>
      </trkpt>
      <trkpt lat="42.35135" lon="1.28256">
        <ele>1585.98</ele>
        <time>2024-09-28T10:35:18.000Z</time>
      </trkpt>
      <trkpt lat="42.3515" lon="1.28229">
        <ele>1586.15</ele>
        <time>2024-09-28T10:35:23.000Z</time>
      </trkpt>
      <trkpt lat="42.35167" lon="1.28202">
        <ele>1586.32</ele>
        <time>2024-09-28T10:35:28.000Z</time>
      </trkpt>
      <trkpt lat="42.35184" lon="1.28178">
        <ele>1586.47</ele>
        <time>2024-09-28T10:35:33.000Z</time>
      </trkpt>
      <trkpt lat="42.35202" lon="1.28156">
        <ele>1586.6</ele>
        <time>2024-09-28T10:35:38.000Z</time>
      </trkpt>
      <trkpt lat="42.35219" lon="1.28135">
        <ele>1586.72</ele>
        <time>2024-09-28T10:35:43.000Z</time>
      </trkpt>
      <trkpt lat="42.35237" lon="1.28113">
        <ele>1586.83</ele>
        <time>2024-09-28T10:35:48.000Z</time>
      </trkpt>
      <trkpt lat="42.35254" lon="1.2809">
        <ele>1586.92</ele>
        <time>2024-09-28T10:35:53.000Z</time>
      </trkpt>
      <trkpt lat="42.3527" lon="1.28066">
        <ele>1587.01</ele>
        <time>2024-09-28T10:35:58.000Z</time>
      </trkpt>
      <trkpt lat="42.35284" lon="1.28042">
        <ele>1587.12</ele>
        <time>2024-09-28T10:36:03.000Z</time>
      </trkpt>
      <trkpt lat="42.35298" lon="1.28014">
        <ele>1587.21</ele>
        <time>2024-09-28T10:36:08.000Z</time>
      </trkpt>
      <trkpt lat="42.35311" lon="1.27987">
        <ele>1587.29</ele>
        <time>2024-09-28T10:36:13.000Z</time>
      </trkpt>
      <trkpt lat="42.35324" lon="1.27958">
        <ele>1587.36</ele>
        <time>2024-09-28T10:36:18.000Z</time>
      </trkpt>
      <trkpt lat="42.35336" lon="1.27932">
        <ele>1587.43</ele>
        <time>2024-09-28T10:36:23.000Z</time>
      </trkpt>
      <trkpt lat="42.35346" lon="1.27909">
        <ele>1587.54</ele>
        <time>2024-09-28T10:36:28.000Z</time>
      </trkpt>
      <trkpt lat="42.35356" lon="1.27888">
        <ele>1587.64</ele>
        <time>2024-09-28T10:36:33.000Z</time>
      </trkpt>
      <trkpt lat="42.35367" lon="1.27867">
        <ele>1587.72</ele>
        <time>2024-09-28T10:36:38.000Z</time>
      </trkpt>
      <trkpt lat="42.35376" lon="1.27847">
        <ele>1587.78</ele>
        <time>2024-09-28T10:36:43.000Z</time>
      </trkpt>
      <trkpt lat="42.35387" lon="1.27825">
        <ele>1587.94</ele>
        <time>2024-09-28T10:36:48.000Z</time>
      </trkpt>
      <trkpt lat="42.35398" lon="1.27806">
        <ele>1587.97</ele>
        <time>2024-09-28T10:36:53.000Z</time>
      </trkpt>
      <trkpt lat="42.35411" lon="1.27785">
        <ele>1588.24</ele>
        <time>2024-09-28T10:36:58.000Z</time>
      </trkpt>
      <trkpt lat="42.35426" lon="1.27765">
        <ele>1588.43</ele>
        <time>2024-09-28T10:37:03.000Z</time>
      </trkpt>
      <trkpt lat="42.35441" lon="1.27745">
        <ele>1588.57</ele>
        <time>2024-09-28T10:37:08.000Z</time>
      </trkpt>
      <trkpt lat="42.35454" lon="1.27724">
        <ele>1588.7</ele>
        <time>2024-09-28T10:37:13.000Z</time>
      </trkpt>
      <trkpt lat="42.35466" lon="1.27706">
        <ele>1588.72</ele>
        <time>2024-09-28T10:37:18.000Z</time>
      </trkpt>
      <trkpt lat="42.35477" lon="1.27688">
        <ele>1588.74</ele>
        <time>2024-09-28T10:37:23.000Z</time>
      </trkpt>
      <trkpt lat="42.35491" lon="1.27665">
        <ele>1588.78</ele>
        <time>2024-09-28T10:37:28.999Z</time>
      </trkpt>
      <trkpt lat="42.35502" lon="1.27645">
        <ele>1588.94</ele>
        <time>2024-09-28T10:37:33.999Z</time>
      </trkpt>
      <trkpt lat="42.35514" lon="1.27624">
        <ele>1589.12</ele>
        <time>2024-09-28T10:37:38.999Z</time>
      </trkpt>
      <trkpt lat="42.35528" lon="1.27605">
        <ele>1589.2</ele>
        <time>2024-09-28T10:37:43.999Z</time>
      </trkpt>
      <trkpt lat="42.35542" lon="1.27588">
        <ele>1589.28</ele>
        <time>2024-09-28T10:37:48.999Z</time>
      </trkpt>
      <trkpt lat="42.35554" lon="1.27573">
        <ele>1589.32</ele>
        <time>2024-09-28T10:37:53.999Z</time>
      </trkpt>
      <trkpt lat="42.35566" lon="1.27557">
        <ele>1589.37</ele>
        <time>2024-09-28T10:37:58.999Z</time>
      </trkpt>
      <trkpt lat="42.35579" lon="1.27542">
        <ele>1589.43</ele>
        <time>2024-09-28T10:38:03.999Z</time>
      </trkpt>
      <trkpt lat="42.35591" lon="1.27527">
        <ele>1589.49</ele>
        <time>2024-09-28T10:38:08.999Z</time>
      </trkpt>
      <trkpt lat="42.35605" lon="1.2751">
        <ele>1589.57</ele>
        <time>2024-09-28T10:38:13.999Z</time>
      </trkpt>
      <trkpt lat="42.35618" lon="1.27493">
        <ele>1589.66</ele>
        <time>2024-09-28T10:38:18.999Z</time>
      </trkpt>
      <trkpt lat="42.35631" lon="1.27477">
        <ele>1589.94</ele>
        <time>2024-09-28T10:38:23.999Z</time>
      </trkpt>
      <trkpt lat="42.35645" lon="1.2746">
        <ele>1590.39</ele>
        <time>2024-09-28T10:38:28.999Z</time>
      </trkpt>
      <trkpt lat="42.35661" lon="1.27445">
        <ele>1590.8</ele>
        <time>2024-09-28T10:38:33.999Z</time>
      </trkpt>
      <trkpt lat="42.35678" lon="1.27429">
        <ele>1591.01</ele>
        <time>2024-09-28T10:38:38.999Z</time>
      </trkpt>
      <trkpt lat="42.35696" lon="1.27412">
        <ele>1591.15</ele>
        <time>2024-09-28T10:38:43.999Z</time>
      </trkpt>
      <trkpt lat="42.35715" lon="1.27394">
        <ele>1591.29</ele>
        <time>2024-09-28T10:38:48.999Z</time>
      </trkpt>
      <trkpt lat="42.35734" lon="1.27377">
        <ele>1591.45</ele>
        <time>2024-09-28T10:38:53.999Z</time>
      </trkpt>
      <trkpt lat="42.35753" lon="1.27359">
        <ele>1591.61</ele>
        <time>2024-09-28T10:38:58.999Z</time>
      </trkpt>
      <trkpt lat="42.3577" lon="1.27341">
        <ele>1591.75</ele>
        <time>2024-09-28T10:39:03.999Z</time>
      </trkpt>
      <trkpt lat="42.35786" lon="1.2732">
        <ele>1591.89</ele>
        <time>2024-09-28T10:39:08.999Z</time>
      </trkpt>
      <trkpt lat="42.35802" lon="1.27296">
        <ele>1592.05</ele>
        <time>2024-09-28T10:39:13.999Z</time>
      </trkpt>
      <trkpt lat="42.35818" lon="1.27274">
        <ele>1592.21</ele>
        <time>2024-09-28T10:39:18.999Z</time>
      </trkpt>
      <trkpt lat="42.35833" lon="1.27253">
        <ele>1592.38</ele>
        <time>2024-09-28T10:39:23.999Z</time>
      </trkpt>
      <trkpt lat="42.35847" lon="1.27231">
        <ele>1592.49</ele>
        <time>2024-09-28T10:39:28.999Z</time>
      </trkpt>
      <trkpt lat="42.35858" lon="1.2721">
        <ele>1592.6</ele>
        <time>2024-09-28T10:39:33.999Z</time>
      </trkpt>
      <trkpt lat="42.35867" lon="1.27192">
        <ele>1592.63</ele>
        <time>2024-09-28T10:39:38.999Z</time>
      </trkpt>
      <trkpt lat="42.35876" lon="1.27174">
        <ele>1592.68</ele>
        <time>2024-09-28T10:39:43.999Z</time>
      </trkpt>
      <trkpt lat="42.35885" lon="1.27157">
        <ele>1592.75</ele>
        <time>2024-09-28T10:39:48.999Z</time>
      </trkpt>
      <trkpt lat="42.35894" lon="1.27139">
        <ele>1592.83</ele>
        <time>2024-09-28T10:39:53.999Z</time>
      </trkpt>
      <trkpt lat="42.35905" lon="1.27119">
        <ele>1592.93</ele>
        <time>2024-09-28T10:39:58.999Z</time>
      </trkpt>
      <trkpt lat="42.35915" lon="1.27099">
        <ele>1593.04</ele>
        <time>2024-09-28T10:40:03.999Z</time>
      </trkpt>
      <trkpt lat="42.35925" lon="1.2708">
        <ele>1593.16</ele>
        <time>2024-09-28T10:40:08.999Z</time>
      </trkpt>
      <trkpt lat="42.35935" lon="1.2706">
        <ele>1593.29</ele>
        <time>2024-09-28T10:40:13.999Z</time>
      </trkpt>
      <trkpt lat="42.35946" lon="1.27039">
        <ele>1593.43</ele>
        <time>2024-09-28T10:40:18.999Z</time>
      </trkpt>
      <trkpt lat="42.35958" lon="1.27021">
        <ele>1593.57</ele>
        <time>2024-09-28T10:40:23.999Z</time>
      </trkpt>
      <trkpt lat="42.3597" lon="1.27004">
        <ele>1593.72</ele>
        <time>2024-09-28T10:40:28.999Z</time>
      </trkpt>
      <trkpt lat="42.35983" lon="1.26988">
        <ele>1593.88</ele>
        <time>2024-09-28T10:40:33.999Z</time>
      </trkpt>
      <trkpt lat="42.35995" lon="1.26973">
        <ele>1594.05</ele>
        <time>2024-09-28T10:40:38.999Z</time>
      </trkpt>
      <trkpt lat="42.36006" lon="1.26959">
        <ele>1594.23</ele>
        <time>2024-09-28T10:40:43.999Z</time>
      </trkpt>
      <trkpt lat="42.36017" lon="1.26945">
        <ele>1594.42</ele>
        <time>2024-09-28T10:40:48.999Z</time>
      </trkpt>
      <trkpt lat="42.36029" lon="1.2693">
        <ele>1594.61</ele>
        <time>2024-09-28T10:40:53.999Z</time>
      </trkpt>
      <trkpt lat="42.36039" lon="1.26914">
        <ele>1594.82</ele>
        <time>2024-09-28T10:40:58.999Z</time>
      </trkpt>
      <trkpt lat="42.36049" lon="1.26897">
        <ele>1595.03</ele>
        <time>2024-09-28T10:41:03.999Z</time>
      </trkpt>
      <trkpt lat="42.36057" lon="1.2688">
        <ele>1595.24</ele>
        <time>2024-09-28T10:41:08.999Z</time>
      </trkpt>
      <trkpt lat="42.36062" lon="1.2686">
        <ele>1595.45</ele>
        <time>2024-09-28T10:41:13.999Z</time>
      </trkpt>
      <trkpt lat="42.3607" lon="1.26846">
        <ele>1595.64</ele>
        <time>2024-09-28T10:41:18.999Z</time>
      </trkpt>
      <trkpt lat="42.36075" lon="1.26835">
        <ele>1595.83</ele>
        <time>2024-09-28T10:41:23.999Z</time>
      </trkpt>
      <trkpt lat="42.36083" lon="1.26829">
        <ele>1598.05</ele>
        <time>2024-09-28T10:43:58.999Z</time>
      </trkpt>
      <trkpt lat="42.36089" lon="1.2682">
        <ele>1598.55</ele>
        <time>2024-09-28T10:44:06.999Z</time>
      </trkpt>
      <trkpt lat="42.36097" lon="1.26803">
        <ele>1598.88</ele>
        <time>2024-09-28T10:44:11.999Z</time>
      </trkpt>
      <trkpt lat="42.36105" lon="1.26785">
        <ele>1599.19</ele>
        <time>2024-09-28T10:44:16.999Z</time>
      </trkpt>
      <trkpt lat="42.36113" lon="1.26768">
        <ele>1599.48</ele>
        <time>2024-09-28T10:44:21.999Z</time>
      </trkpt>
      <trkpt lat="42.36121" lon="1.26752">
        <ele>1599.77</ele>
        <time>2024-09-28T10:44:26.999Z</time>
      </trkpt>
      <trkpt lat="42.36128" lon="1.26739">
        <ele>1600.05</ele>
        <time>2024-09-28T10:44:31.999Z</time>
      </trkpt>
      <trkpt lat="42.36135" lon="1.26724">
        <ele>1600.31</ele>
        <time>2024-09-28T10:44:36.999Z</time>
      </trkpt>
      <trkpt lat="42.36143" lon="1.2671">
        <ele>1600.56</ele>
        <time>2024-09-28T10:44:41.999Z</time>
      </trkpt>
      <trkpt lat="42.36149" lon="1.26698">
        <ele>1600.81</ele>
        <time>2024-09-28T10:44:46.999Z</time>
      </trkpt>
      <trkpt lat="42.36155" lon="1.26687">
        <ele>1601.05</ele>
        <time>2024-09-28T10:44:51.999Z</time>
      </trkpt>
      <trkpt lat="42.36162" lon="1.26675">
        <ele>1601.29</ele>
        <time>2024-09-28T10:44:56.999Z</time>
      </trkpt>
      <trkpt lat="42.36168" lon="1.26661">
        <ele>1601.51</ele>
        <time>2024-09-28T10:45:01.999Z</time>
      </trkpt>
      <trkpt lat="42.36175" lon="1.26648">
        <ele>1601.73</ele>
        <time>2024-09-28T10:45:06.999Z</time>
      </trkpt>
      <trkpt lat="42.36182" lon="1.26635">
        <ele>1601.95</ele>
        <time>2024-09-28T10:45:11.999Z</time>
      </trkpt>
      <trkpt lat="42.36189" lon="1.26622">
        <ele>1602.15</ele>
        <time>2024-09-28T10:45:16.999Z</time>
      </trkpt>
      <trkpt lat="42.36196" lon="1.26609">
        <ele>1602.35</ele>
        <time>2024-09-28T10:45:21.999Z</time>
      </trkpt>
      <trkpt lat="42.36204" lon="1.26596">
        <ele>1602.54</ele>
        <time>2024-09-28T10:45:26.999Z</time>
      </trkpt>
      <trkpt lat="42.36212" lon="1.26584">
        <ele>1602.74</ele>
        <time>2024-09-28T10:45:31.999Z</time>
      </trkpt>
      <trkpt lat="42.36221" lon="1.26572">
        <ele>1602.93</ele>
        <time>2024-09-28T10:45:36.999Z</time>
      </trkpt>
      <trkpt lat="42.36231" lon="1.2656">
        <ele>1603.12</ele>
        <time>2024-09-28T10:45:41.999Z</time>
      </trkpt>
      <trkpt lat="42.36241" lon="1.26549">
        <ele>1603.32</ele>
        <time>2024-09-28T10:45:46.999Z</time>
      </trkpt>
      <trkpt lat="42.36251" lon="1.26538">
        <ele>1603.51</ele>
        <time>2024-09-28T10:45:51.999Z</time>
      </trkpt>
      <trkpt lat="42.36261" lon="1.26529">
        <ele>1603.71</ele>
        <time>2024-09-28T10:45:56.999Z</time>
      </trkpt>
      <trkpt lat="42.36271" lon="1.26518">
        <ele>1603.92</ele>
        <time>2024-09-28T10:46:01.999Z</time>
      </trkpt>
      <trkpt lat="42.36282" lon="1.26509">
        <ele>1604.13</ele>
        <time>2024-09-28T10:46:06.999Z</time>
      </trkpt>
      <trkpt lat="42.36291" lon="1.26498">
        <ele>1604.35</ele>
        <time>2024-09-28T10:46:11.999Z</time>
      </trkpt>
      <trkpt lat="42.36302" lon="1.26487">
        <ele>1604.58</ele>
        <time>2024-09-28T10:46:16.999Z</time>
      </trkpt>
      <trkpt lat="42.36313" lon="1.26475">
        <ele>1604.81</ele>
        <time>2024-09-28T10:46:21.999Z</time>
      </trkpt>
      <trkpt lat="42.36325" lon="1.26464">
        <ele>1605.04</ele>
        <time>2024-09-28T10:46:26.999Z</time>
      </trkpt>
      <trkpt lat="42.36336" lon="1.26453">
        <ele>1605.28</ele>
        <time>2024-09-28T10:46:31.999Z</time>
      </trkpt>
      <trkpt lat="42.36348" lon="1.2644">
        <ele>1605.54</ele>
        <time>2024-09-28T10:46:36.999Z</time>
      </trkpt>
      <trkpt lat="42.3636" lon="1.26428">
        <ele>1605.81</ele>
        <time>2024-09-28T10:46:41.999Z</time>
      </trkpt>
      <trkpt lat="42.36372" lon="1.26415">
        <ele>1606.16</ele>
        <time>2024-09-28T10:46:46.999Z</time>
      </trkpt>
      <trkpt lat="42.36385" lon="1.26403">
        <ele>1606.59</ele>
        <time>2024-09-28T10:46:51.999Z</time>
      </trkpt>
      <trkpt lat="42.36398" lon="1.2639">
        <ele>1607.1</ele>
        <time>2024-09-28T10:46:56.999Z</time>
      </trkpt>
      <trkpt lat="42.3641" lon="1.26377">
        <ele>1607.71</ele>
        <time>2024-09-28T10:47:01.999Z</time>
      </trkpt>
      <trkpt lat="42.36424" lon="1.26363">
        <ele>1608.4</ele>
        <time>2024-09-28T10:47:06.999Z</time>
      </trkpt>
      <trkpt lat="42.36436" lon="1.26348">
        <ele>1609.14</ele>
        <time>2024-09-28T10:47:11.999Z</time>
      </trkpt>
      <trkpt lat="42.36445" lon="1.26336">
        <ele>1609.94</ele>
        <time>2024-09-28T10:47:16.999Z</time>
      </trkpt>
      <trkpt lat="42.36452" lon="1.26323">
        <ele>1610.77</ele>
        <time>2024-09-28T10:47:21.999Z</time>
      </trkpt>
      <trkpt lat="42.36457" lon="1.26312">
        <ele>1611.61</ele>
        <time>2024-09-28T10:47:26.999Z</time>
      </trkpt>
      <trkpt lat="42.36461" lon="1.263">
        <ele>1612.45</ele>
        <time>2024-09-28T10:47:31.999Z</time>
      </trkpt>
      <trkpt lat="42.36465" lon="1.26289">
        <ele>1613.26</ele>
        <time>2024-09-28T10:47:36.999Z</time>
      </trkpt>
      <trkpt lat="42.36469" lon="1.26276">
        <ele>1614.04</ele>
        <time>2024-09-28T10:47:41.999Z</time>
      </trkpt>
      <trkpt lat="42.36472" lon="1.26264">
        <ele>1614.8</ele>
        <time>2024-09-28T10:47:46.999Z</time>
      </trkpt>
      <trkpt lat="42.36474" lon="1.26251">
        <ele>1615.53</ele>
        <time>2024-09-28T10:47:51.999Z</time>
      </trkpt>
      <trkpt lat="42.36476" lon="1.26238">
        <ele>1616.25</ele>
        <time>2024-09-28T10:47:56.999Z</time>
      </trkpt>
      <trkpt lat="42.36478" lon="1.26225">
        <ele>1616.96</ele>
        <time>2024-09-28T10:48:01.999Z</time>
      </trkpt>
      <trkpt lat="42.36479" lon="1.26211">
        <ele>1617.66</ele>
        <time>2024-09-28T10:48:06.999Z</time>
      </trkpt>
      <trkpt lat="42.3648" lon="1.26198">
        <ele>1618.35</ele>
        <time>2024-09-28T10:48:11.999Z</time>
      </trkpt>
      <trkpt lat="42.3648" lon="1.26184">
        <ele>1619.01</ele>
        <time>2024-09-28T10:48:16.999Z</time>
      </trkpt>
      <trkpt lat="42.36481" lon="1.2617">
        <ele>1619.67</ele>
        <time>2024-09-28T10:48:21.999Z</time>
      </trkpt>
      <trkpt lat="42.36481" lon="1.26156">
        <ele>1620.31</ele>
        <time>2024-09-28T10:48:26.999Z</time>
      </trkpt>
      <trkpt lat="42.36481" lon="1.26143">
        <ele>1620.93</ele>
        <time>2024-09-28T10:48:31.999Z</time>
      </trkpt>
      <trkpt lat="42.36482" lon="1.26129">
        <ele>1621.66</ele>
        <time>2024-09-28T10:48:37.999Z</time>
      </trkpt>
      <trkpt lat="42.36483" lon="1.26117">
        <ele>1622.37</ele>
        <time>2024-09-28T10:48:43.999Z</time>
      </trkpt>
      <trkpt lat="42.36483" lon="1.26104">
        <ele>1623.05</ele>
        <time>2024-09-28T10:48:49.999Z</time>
      </trkpt>
      <trkpt lat="42.36485" lon="1.26092">
        <ele>1623.72</ele>
        <time>2024-09-28T10:48:55.999Z</time>
      </trkpt>
      <trkpt lat="42.36488" lon="1.26078">
        <ele>1624.48</ele>
        <time>2024-09-28T10:49:02.999Z</time>
      </trkpt>
      <trkpt lat="42.3649" lon="1.26066">
        <ele>1625.11</ele>
        <time>2024-09-28T10:49:08.999Z</time>
      </trkpt>
      <trkpt lat="42.36492" lon="1.26054">
        <ele>1625.73</ele>
        <time>2024-09-28T10:49:14.999Z</time>
      </trkpt>
      <trkpt lat="42.36495" lon="1.26042">
        <ele>1626.34</ele>
        <time>2024-09-28T10:49:20.999Z</time>
      </trkpt>
      <trkpt lat="42.36499" lon="1.2603">
        <ele>1626.93</ele>
        <time>2024-09-28T10:49:26.999Z</time>
      </trkpt>
      <trkpt lat="42.36503" lon="1.26019">
        <ele>1627.5</ele>
        <time>2024-09-28T10:49:32.999Z</time>
      </trkpt>
      <trkpt lat="42.36507" lon="1.26008">
        <ele>1628.04</ele>
        <time>2024-09-28T10:49:38.999Z</time>
      </trkpt>
      <trkpt lat="42.36512" lon="1.25997">
        <ele>1628.62</ele>
        <time>2024-09-28T10:49:45.999Z</time>
      </trkpt>
      <trkpt lat="42.36517" lon="1.25984">
        <ele>1629.19</ele>
        <time>2024-09-28T10:49:53.000Z</time>
      </trkpt>
      <trkpt lat="42.36522" lon="1.25972">
        <ele>1629.74</ele>
        <time>2024-09-28T10:50:00.000Z</time>
      </trkpt>
      <trkpt lat="42.36526" lon="1.25959">
        <ele>1630.3</ele>
        <time>2024-09-28T10:50:07.000Z</time>
      </trkpt>
      <trkpt lat="42.36532" lon="1.25947">
        <ele>1630.85</ele>
        <time>2024-09-28T10:50:14.000Z</time>
      </trkpt>
      <trkpt lat="42.36537" lon="1.25936">
        <ele>1631.31</ele>
        <time>2024-09-28T10:50:20.000Z</time>
      </trkpt>
      <trkpt lat="42.36541" lon="1.25925">
        <ele>1631.77</ele>
        <time>2024-09-28T10:50:26.000Z</time>
      </trkpt>
      <trkpt lat="42.36546" lon="1.25914">
        <ele>1632.23</ele>
        <time>2024-09-28T10:50:32.000Z</time>
      </trkpt>
      <trkpt lat="42.3655" lon="1.25903">
        <ele>1632.69</ele>
        <time>2024-09-28T10:50:38.000Z</time>
      </trkpt>
      <trkpt lat="42.36555" lon="1.25892">
        <ele>1633.14</ele>
        <time>2024-09-28T10:50:44.000Z</time>
      </trkpt>
      <trkpt lat="42.3656" lon="1.2588">
        <ele>1633.66</ele>
        <time>2024-09-28T10:50:51.000Z</time>
      </trkpt>
      <trkpt lat="42.36566" lon="1.25867">
        <ele>1634.15</ele>
        <time>2024-09-28T10:50:58.000Z</time>
      </trkpt>
      <trkpt lat="42.3657" lon="1.25856">
        <ele>1634.61</ele>
        <time>2024-09-28T10:51:04.000Z</time>
      </trkpt>
      <trkpt lat="42.36574" lon="1.25843">
        <ele>1635.12</ele>
        <time>2024-09-28T10:51:11.000Z</time>
      </trkpt>
      <trkpt lat="42.36579" lon="1.25832">
        <ele>1635.63</ele>
        <time>2024-09-28T10:51:18.000Z</time>
      </trkpt>
      <trkpt lat="42.36585" lon="1.2582">
        <ele>1636.13</ele>
        <time>2024-09-28T10:51:25.000Z</time>
      </trkpt>
      <trkpt lat="42.36589" lon="1.25809">
        <ele>1636.55</ele>
        <time>2024-09-28T10:51:31.000Z</time>
      </trkpt>
      <trkpt lat="42.36594" lon="1.25798">
        <ele>1636.96</ele>
        <time>2024-09-28T10:51:37.000Z</time>
      </trkpt>
      <trkpt lat="42.366" lon="1.25787">
        <ele>1637.36</ele>
        <time>2024-09-28T10:51:43.000Z</time>
      </trkpt>
      <trkpt lat="42.36605" lon="1.25777">
        <ele>1637.75</ele>
        <time>2024-09-28T10:51:49.000Z</time>
      </trkpt>
      <trkpt lat="42.36611" lon="1.25767">
        <ele>1638.13</ele>
        <time>2024-09-28T10:51:55.000Z</time>
      </trkpt>
      <trkpt lat="42.36617" lon="1.25756">
        <ele>1638.52</ele>
        <time>2024-09-28T10:52:01.000Z</time>
      </trkpt>
      <trkpt lat="42.36623" lon="1.25747">
        <ele>1638.9</ele>
        <time>2024-09-28T10:52:07.000Z</time>
      </trkpt>
      <trkpt lat="42.3663" lon="1.25738">
        <ele>1639.28</ele>
        <time>2024-09-28T10:52:13.000Z</time>
      </trkpt>
      <trkpt lat="42.36636" lon="1.25728">
        <ele>1639.66</ele>
        <time>2024-09-28T10:52:19.000Z</time>
      </trkpt>
      <trkpt lat="42.36642" lon="1.25717">
        <ele>1640.05</ele>
        <time>2024-09-28T10:52:25.000Z</time>
      </trkpt>
      <trkpt lat="42.36647" lon="1.25705">
        <ele>1640.43</ele>
        <time>2024-09-28T10:52:31.000Z</time>
      </trkpt>
      <trkpt lat="42.36652" lon="1.25694">
        <ele>1640.87</ele>
        <time>2024-09-28T10:52:38.000Z</time>
      </trkpt>
      <trkpt lat="42.36657" lon="1.25683">
        <ele>1641.25</ele>
        <time>2024-09-28T10:52:44.000Z</time>
      </trkpt>
      <trkpt lat="42.36662" lon="1.25672">
        <ele>1641.63</ele>
        <time>2024-09-28T10:52:50.000Z</time>
      </trkpt>
      <trkpt lat="42.36668" lon="1.25661">
        <ele>1642.01</ele>
        <time>2024-09-28T10:52:56.000Z</time>
      </trkpt>
      <trkpt lat="42.36674" lon="1.25651">
        <ele>1642.39</ele>
        <time>2024-09-28T10:53:02.000Z</time>
      </trkpt>
      <trkpt lat="42.3668" lon="1.2564">
        <ele>1642.78</ele>
        <time>2024-09-28T10:53:08.000Z</time>
      </trkpt>
      <trkpt lat="42.36687" lon="1.2563">
        <ele>1643.16</ele>
        <time>2024-09-28T10:53:14.000Z</time>
      </trkpt>
      <trkpt lat="42.36694" lon="1.25621">
        <ele>1643.55</ele>
        <time>2024-09-28T10:53:20.000Z</time>
      </trkpt>
      <trkpt lat="42.36702" lon="1.25612">
        <ele>1643.93</ele>
        <time>2024-09-28T10:53:26.000Z</time>
      </trkpt>
      <trkpt lat="42.3671" lon="1.25603">
        <ele>1644.31</ele>
        <time>2024-09-28T10:53:32.000Z</time>
      </trkpt>
      <trkpt lat="42.36717" lon="1.25595">
        <ele>1644.64</ele>
        <time>2024-09-28T10:53:37.000Z</time>
      </trkpt>
      <trkpt lat="42.36724" lon="1.25587">
        <ele>1644.97</ele>
        <time>2024-09-28T10:53:42.000Z</time>
      </trkpt>
      <trkpt lat="42.36733" lon="1.25578">
        <ele>1645.4</ele>
        <time>2024-09-28T10:53:48.000Z</time>
      </trkpt>
      <trkpt lat="42.36741" lon="1.2557">
        <ele>1645.87</ele>
        <time>2024-09-28T10:53:54.000Z</time>
      </trkpt>
      <trkpt lat="42.36749" lon="1.25561">
        <ele>1646.38</ele>
        <time>2024-09-28T10:54:00.000Z</time>
      </trkpt>
      <trkpt lat="42.36758" lon="1.25552">
        <ele>1646.95</ele>
        <time>2024-09-28T10:54:06.000Z</time>
      </trkpt>
      <trkpt lat="42.36765" lon="1.25545">
        <ele>1647.46</ele>
        <time>2024-09-28T10:54:11.000Z</time>
      </trkpt>
      <trkpt lat="42.36774" lon="1.25538">
        <ele>1648.17</ele>
        <time>2024-09-28T10:54:17.000Z</time>
      </trkpt>
      <trkpt lat="42.36782" lon="1.2553">
        <ele>1648.97</ele>
        <time>2024-09-28T10:54:23.000Z</time>
      </trkpt>
      <trkpt lat="42.3679" lon="1.25522">
        <ele>1649.85</ele>
        <time>2024-09-28T10:54:29.000Z</time>
      </trkpt>
      <trkpt lat="42.36798" lon="1.25514">
        <ele>1650.8</ele>
        <time>2024-09-28T10:54:35.000Z</time>
      </trkpt>
      <trkpt lat="42.36805" lon="1.25505">
        <ele>1651.78</ele>
        <time>2024-09-28T10:54:41.000Z</time>
      </trkpt>
      <trkpt lat="42.36811" lon="1.25495">
        <ele>1652.64</ele>
        <time>2024-09-28T10:54:46.000Z</time>
      </trkpt>
      <trkpt lat="42.36819" lon="1.25485">
        <ele>1653.53</ele>
        <time>2024-09-28T10:54:51.000Z</time>
      </trkpt>
      <trkpt lat="42.36825" lon="1.25476">
        <ele>1654.42</ele>
        <time>2024-09-28T10:54:56.000Z</time>
      </trkpt>
      <trkpt lat="42.36831" lon="1.25466">
        <ele>1655.32</ele>
        <time>2024-09-28T10:55:01.000Z</time>
      </trkpt>
      <trkpt lat="42.36837" lon="1.25454">
        <ele>1656.21</ele>
        <time>2024-09-28T10:55:06.000Z</time>
      </trkpt>
      <trkpt lat="42.36841" lon="1.25441">
        <ele>1657.07</ele>
        <time>2024-09-28T10:55:11.000Z</time>
      </trkpt>
      <trkpt lat="42.36845" lon="1.2543">
        <ele>1657.89</ele>
        <time>2024-09-28T10:55:16.000Z</time>
      </trkpt>
      <trkpt lat="42.3685" lon="1.25417">
        <ele>1658.69</ele>
        <time>2024-09-28T10:55:21.000Z</time>
      </trkpt>
      <trkpt lat="42.36854" lon="1.25405">
        <ele>1659.46</ele>
        <time>2024-09-28T10:55:26.000Z</time>
      </trkpt>
      <trkpt lat="42.36857" lon="1.25394">
        <ele>1660.22</ele>
        <time>2024-09-28T10:55:31.000Z</time>
      </trkpt>
      <trkpt lat="42.3686" lon="1.2538">
        <ele>1660.97</ele>
        <time>2024-09-28T10:55:36.000Z</time>
      </trkpt>
      <trkpt lat="42.36862" lon="1.25367">
        <ele>1661.72</ele>
        <time>2024-09-28T10:55:41.000Z</time>
      </trkpt>
      <trkpt lat="42.36864" lon="1.25354">
        <ele>1662.46</ele>
        <time>2024-09-28T10:55:46.000Z</time>
      </trkpt>
      <trkpt lat="42.36865" lon="1.25341">
        <ele>1663.2</ele>
        <time>2024-09-28T10:55:51.000Z</time>
      </trkpt>
      <trkpt lat="42.36868" lon="1.25329">
        <ele>1663.92</ele>
        <time>2024-09-28T10:55:56.000Z</time>
      </trkpt>
      <trkpt lat="42.3687" lon="1.25316">
        <ele>1664.63</ele>
        <time>2024-09-28T10:56:01.000Z</time>
      </trkpt>
      <trkpt lat="42.3687" lon="1.25302">
        <ele>1665.32</ele>
        <time>2024-09-28T10:56:06.000Z</time>
      </trkpt>
      <trkpt lat="42.36872" lon="1.25289">
        <ele>1665.99</ele>
        <time>2024-09-28T10:56:11.000Z</time>
      </trkpt>
      <trkpt lat="42.36874" lon="1.25276">
        <ele>1666.66</ele>
        <time>2024-09-28T10:56:16.000Z</time>
      </trkpt>
      <trkpt lat="42.36876" lon="1.25263">
        <ele>1667.32</ele>
        <time>2024-09-28T10:56:21.000Z</time>
      </trkpt>
      <trkpt lat="42.36878" lon="1.2525">
        <ele>1667.97</ele>
        <time>2024-09-28T10:56:26.000Z</time>
      </trkpt>
      <trkpt lat="42.36879" lon="1.25236">
        <ele>1668.6</ele>
        <time>2024-09-28T10:56:31.000Z</time>
      </trkpt>
      <trkpt lat="42.36881" lon="1.25222">
        <ele>1669.22</ele>
        <time>2024-09-28T10:56:36.000Z</time>
      </trkpt>
      <trkpt lat="42.36883" lon="1.2521">
        <ele>1669.83</ele>
        <time>2024-09-28T10:56:41.000Z</time>
      </trkpt>
      <trkpt lat="42.36885" lon="1.25196">
        <ele>1670.44</ele>
        <time>2024-09-28T10:56:46.000Z</time>
      </trkpt>
      <trkpt lat="42.36887" lon="1.25183">
        <ele>1671.07</ele>
        <time>2024-09-28T10:56:51.000Z</time>
      </trkpt>
      <trkpt lat="42.36891" lon="1.25169">
        <ele>1671.69</ele>
        <time>2024-09-28T10:56:56.000Z</time>
      </trkpt>
      <trkpt lat="42.36895" lon="1.25156">
        <ele>1672.31</ele>
        <time>2024-09-28T10:57:01.000Z</time>
      </trkpt>
      <trkpt lat="42.369" lon="1.25144">
        <ele>1672.92</ele>
        <time>2024-09-28T10:57:06.000Z</time>
      </trkpt>
      <trkpt lat="42.36905" lon="1.25132">
        <ele>1673.53</ele>
        <time>2024-09-28T10:57:11.000Z</time>
      </trkpt>
      <trkpt lat="42.36909" lon="1.25118">
        <ele>1674.12</ele>
        <time>2024-09-28T10:57:16.000Z</time>
      </trkpt>
      <trkpt lat="42.36914" lon="1.25105">
        <ele>1674.7</ele>
        <time>2024-09-28T10:57:21.000Z</time>
      </trkpt>
      <trkpt lat="42.36921" lon="1.25093">
        <ele>1675.26</ele>
        <time>2024-09-28T10:57:26.000Z</time>
      </trkpt>
      <trkpt lat="42.36927" lon="1.25081">
        <ele>1675.8</ele>
        <time>2024-09-28T10:57:31.000Z</time>
      </trkpt>
      <trkpt lat="42.36933" lon="1.25069">
        <ele>1676.31</ele>
        <time>2024-09-28T10:57:36.000Z</time>
      </trkpt>
      <trkpt lat="42.36941" lon="1.25057">
        <ele>1676.81</ele>
        <time>2024-09-28T10:57:41.000Z</time>
      </trkpt>
      <trkpt lat="42.3695" lon="1.25048">
        <ele>1677.3</ele>
        <time>2024-09-28T10:57:46.000Z</time>
      </trkpt>
      <trkpt lat="42.36957" lon="1.25038">
        <ele>1677.78</ele>
        <time>2024-09-28T10:57:51.000Z</time>
      </trkpt>
      <trkpt lat="42.36964" lon="1.2503">
        <ele>1678.3</ele>
        <time>2024-09-28T10:57:56.000Z</time>
      </trkpt>
      <trkpt lat="42.36972" lon="1.2502">
        <ele>1678.95</ele>
        <time>2024-09-28T10:58:02.000Z</time>
      </trkpt>
      <trkpt lat="42.36979" lon="1.25011">
        <ele>1679.52</ele>
        <time>2024-09-28T10:58:07.000Z</time>
      </trkpt>
      <trkpt lat="42.36986" lon="1.25002">
        <ele>1680.11</ele>
        <time>2024-09-28T10:58:12.000Z</time>
      </trkpt>
      <trkpt lat="42.36993" lon="1.24994">
        <ele>1680.72</ele>
        <time>2024-09-28T10:58:17.000Z</time>
      </trkpt>
      <trkpt lat="42.37" lon="1.24985">
        <ele>1681.34</ele>
        <time>2024-09-28T10:58:22.000Z</time>
      </trkpt>
      <trkpt lat="42.37008" lon="1.24974">
        <ele>1681.97</ele>
        <time>2024-09-28T10:58:27.000Z</time>
      </trkpt>
      <trkpt lat="42.37014" lon="1.24964">
        <ele>1682.62</ele>
        <time>2024-09-28T10:58:32.000Z</time>
      </trkpt>
      <trkpt lat="42.37021" lon="1.24954">
        <ele>1683.27</ele>
        <time>2024-09-28T10:58:37.000Z</time>
      </trkpt>
      <trkpt lat="42.37027" lon="1.24945">
        <ele>1683.92</ele>
        <time>2024-09-28T10:58:42.000Z</time>
      </trkpt>
      <trkpt lat="42.37034" lon="1.24936">
        <ele>1684.59</ele>
        <time>2024-09-28T10:58:47.000Z</time>
      </trkpt>
      <trkpt lat="42.3704" lon="1.24926">
        <ele>1685.28</ele>
        <time>2024-09-28T10:58:52.000Z</time>
      </trkpt>
      <trkpt lat="42.37046" lon="1.24915">
        <ele>1685.97</ele>
        <time>2024-09-28T10:58:57.000Z</time>
      </trkpt>
      <trkpt lat="42.37053" lon="1.24905">
        <ele>1686.66</ele>
        <time>2024-09-28T10:59:02.000Z</time>
      </trkpt>
      <trkpt lat="42.37059" lon="1.24895">
        <ele>1687.33</ele>
        <time>2024-09-28T10:59:07.000Z</time>
      </trkpt>
      <trkpt lat="42.37065" lon="1.24885">
        <ele>1688.01</ele>
        <time>2024-09-28T10:59:12.000Z</time>
      </trkpt>
      <trkpt lat="42.37071" lon="1.24874">
        <ele>1688.69</ele>
        <time>2024-09-28T10:59:17.000Z</time>
      </trkpt>
      <trkpt lat="42.37077" lon="1.24864">
        <ele>1689.38</ele>
        <time>2024-09-28T10:59:22.000Z</time>
      </trkpt>
      <trkpt lat="42.37083" lon="1.24853">
        <ele>1690.07</ele>
        <time>2024-09-28T10:59:27.000Z</time>
      </trkpt>
      <trkpt lat="42.37089" lon="1.24842">
        <ele>1690.88</ele>
        <time>2024-09-28T10:59:33.000Z</time>
      </trkpt>
      <trkpt lat="42.37094" lon="1.2483">
        <ele>1691.68</ele>
        <time>2024-09-28T10:59:39.000Z</time>
      </trkpt>
      <trkpt lat="42.371" lon="1.24818">
        <ele>1692.46</ele>
        <time>2024-09-28T10:59:45.000Z</time>
      </trkpt>
      <trkpt lat="42.37106" lon="1.24806">
        <ele>1693.22</ele>
        <time>2024-09-28T10:59:51.000Z</time>
      </trkpt>
      <trkpt lat="42.37112" lon="1.24795">
        <ele>1693.97</ele>
        <time>2024-09-28T10:59:57.000Z</time>
      </trkpt>
      <trkpt lat="42.37118" lon="1.24783">
        <ele>1694.72</ele>
        <time>2024-09-28T11:00:03.000Z</time>
      </trkpt>
      <trkpt lat="42.37123" lon="1.2477">
        <ele>1695.47</ele>
        <time>2024-09-28T11:00:09.000Z</time>
      </trkpt>
      <trkpt lat="42.37129" lon="1.24759">
        <ele>1696.22</ele>
        <time>2024-09-28T11:00:15.000Z</time>
      </trkpt>
      <trkpt lat="42.37133" lon="1.24748">
        <ele>1696.84</ele>
        <time>2024-09-28T11:00:20.000Z</time>
      </trkpt>
      <trkpt lat="42.37138" lon="1.24736">
        <ele>1697.45</ele>
        <time>2024-09-28T11:00:25.000Z</time>
      </trkpt>
      <trkpt lat="42.37143" lon="1.24723">
        <ele>1698.06</ele>
        <time>2024-09-28T11:00:30.000Z</time>
      </trkpt>
      <trkpt lat="42.37148" lon="1.24711">
        <ele>1698.67</ele>
        <time>2024-09-28T11:00:35.000Z</time>
      </trkpt>
      <trkpt lat="42.37152" lon="1.24699">
        <ele>1699.28</ele>
        <time>2024-09-28T11:00:40.000Z</time>
      </trkpt>
      <trkpt lat="42.37157" lon="1.24688">
        <ele>1699.89</ele>
        <time>2024-09-28T11:00:45.000Z</time>
      </trkpt>
      <trkpt lat="42.37162" lon="1.24675">
        <ele>1700.48</ele>
        <time>2024-09-28T11:00:50.000Z</time>
      </trkpt>
      <trkpt lat="42.37166" lon="1.24663">
        <ele>1701.07</ele>
        <time>2024-09-28T11:00:55.000Z</time>
      </trkpt>
      <trkpt lat="42.3717" lon="1.24651">
        <ele>1701.64</ele>
        <time>2024-09-28T11:01:00.000Z</time>
      </trkpt>
      <trkpt lat="42.37175" lon="1.24639">
        <ele>1702.2</ele>
        <time>2024-09-28T11:01:05.000Z</time>
      </trkpt>
      <trkpt lat="42.37179" lon="1.24627">
        <ele>1702.74</ele>
        <time>2024-09-28T11:01:10.000Z</time>
      </trkpt>
      <trkpt lat="42.37183" lon="1.24615">
        <ele>1703.28</ele>
        <time>2024-09-28T11:01:15.000Z</time>
      </trkpt>
      <trkpt lat="42.37188" lon="1.24603">
        <ele>1703.79</ele>
        <time>2024-09-28T11:01:20.000Z</time>
      </trkpt>
      <trkpt lat="42.37193" lon="1.24591">
        <ele>1704.29</ele>
        <time>2024-09-28T11:01:25.000Z</time>
      </trkpt>
      <trkpt lat="42.37197" lon="1.24578">
        <ele>1704.78</ele>
        <time>2024-09-28T11:01:30.000Z</time>
      </trkpt>
      <trkpt lat="42.37201" lon="1.24565">
        <ele>1705.24</ele>
        <time>2024-09-28T11:01:35.000Z</time>
      </trkpt>
      <trkpt lat="42.37205" lon="1.24552">
        <ele>1705.69</ele>
        <time>2024-09-28T11:01:40.000Z</time>
      </trkpt>
      <trkpt lat="42.3721" lon="1.2454">
        <ele>1706.13</ele>
        <time>2024-09-28T11:01:45.000Z</time>
      </trkpt>
      <trkpt lat="42.37215" lon="1.24526">
        <ele>1706.55</ele>
        <time>2024-09-28T11:01:50.000Z</time>
      </trkpt>
      <trkpt lat="42.37221" lon="1.24511">
        <ele>1707.04</ele>
        <time>2024-09-28T11:01:55.999Z</time>
      </trkpt>
      <trkpt lat="42.37226" lon="1.24498">
        <ele>1707.42</ele>
        <time>2024-09-28T11:02:00.999Z</time>
      </trkpt>
      <trkpt lat="42.3723" lon="1.24483">
        <ele>1707.8</ele>
        <time>2024-09-28T11:02:05.999Z</time>
      </trkpt>
      <trkpt lat="42.37234" lon="1.2447">
        <ele>1708.16</ele>
        <time>2024-09-28T11:02:10.999Z</time>
      </trkpt>
      <trkpt lat="42.37237" lon="1.24454">
        <ele>1708.51</ele>
        <time>2024-09-28T11:02:15.999Z</time>
      </trkpt>
      <trkpt lat="42.37239" lon="1.24439">
        <ele>1708.84</ele>
        <time>2024-09-28T11:02:20.999Z</time>
      </trkpt>
      <trkpt lat="42.37241" lon="1.24424">
        <ele>1709.15</ele>
        <time>2024-09-28T11:02:25.999Z</time>
      </trkpt>
      <trkpt lat="42.37241" lon="1.24407">
        <ele>1709.46</ele>
        <time>2024-09-28T11:02:30.999Z</time>
      </trkpt>
      <trkpt lat="42.37241" lon="1.24392">
        <ele>1709.75</ele>
        <time>2024-09-28T11:02:35.999Z</time>
      </trkpt>
      <trkpt lat="42.37241" lon="1.24376">
        <ele>1710.03</ele>
        <time>2024-09-28T11:02:40.999Z</time>
      </trkpt>
      <trkpt lat="42.37238" lon="1.24359">
        <ele>1710.3</ele>
        <time>2024-09-28T11:02:45.999Z</time>
      </trkpt>
      <trkpt lat="42.37236" lon="1.24342">
        <ele>1710.57</ele>
        <time>2024-09-28T11:02:50.999Z</time>
      </trkpt>
      <trkpt lat="42.37232" lon="1.24326">
        <ele>1710.85</ele>
        <time>2024-09-28T11:02:55.999Z</time>
      </trkpt>
      <trkpt lat="42.37226" lon="1.2431">
        <ele>1711.2</ele>
        <time>2024-09-28T11:03:00.999Z</time>
      </trkpt>
      <trkpt lat="42.37219" lon="1.24294">
        <ele>1711.56</ele>
        <time>2024-09-28T11:03:05.999Z</time>
      </trkpt>
      <trkpt lat="42.37211" lon="1.24279">
        <ele>1711.92</ele>
        <time>2024-09-28T11:03:10.999Z</time>
      </trkpt>
      <trkpt lat="42.37203" lon="1.24265">
        <ele>1712.29</ele>
        <time>2024-09-28T11:03:15.999Z</time>
      </trkpt>
      <trkpt lat="42.37195" lon="1.24251">
        <ele>1712.68</ele>
        <time>2024-09-28T11:03:20.999Z</time>
      </trkpt>
      <trkpt lat="42.37187" lon="1.24238">
        <ele>1713.07</ele>
        <time>2024-09-28T11:03:25.999Z</time>
      </trkpt>
      <trkpt lat="42.37178" lon="1.24224">
        <ele>1713.47</ele>
        <time>2024-09-28T11:03:30.999Z</time>
      </trkpt>
      <trkpt lat="42.37169" lon="1.24209">
        <ele>1713.89</ele>
        <time>2024-09-28T11:03:35.999Z</time>
      </trkpt>
      <trkpt lat="42.3716" lon="1.24193">
        <ele>1714.32</ele>
        <time>2024-09-28T11:03:40.999Z</time>
      </trkpt>
      <trkpt lat="42.37152" lon="1.24176">
        <ele>1714.76</ele>
        <time>2024-09-28T11:03:45.999Z</time>
      </trkpt>
      <trkpt lat="42.37145" lon="1.2416">
        <ele>1715.2</ele>
        <time>2024-09-28T11:03:50.999Z</time>
      </trkpt>
      <trkpt lat="42.37138" lon="1.24143">
        <ele>1715.65</ele>
        <time>2024-09-28T11:03:55.999Z</time>
      </trkpt>
      <trkpt lat="42.37133" lon="1.24127">
        <ele>1716.09</ele>
        <time>2024-09-28T11:04:00.999Z</time>
      </trkpt>
      <trkpt lat="42.37129" lon="1.2411">
        <ele>1716.52</ele>
        <time>2024-09-28T11:04:05.999Z</time>
      </trkpt>
      <trkpt lat="42.37125" lon="1.24093">
        <ele>1716.96</ele>
        <time>2024-09-28T11:04:10.999Z</time>
      </trkpt>
      <trkpt lat="42.37122" lon="1.24074">
        <ele>1717.38</ele>
        <time>2024-09-28T11:04:15.999Z</time>
      </trkpt>
      <trkpt lat="42.37119" lon="1.24056">
        <ele>1717.81</ele>
        <time>2024-09-28T11:04:20.999Z</time>
      </trkpt>
      <trkpt lat="42.37116" lon="1.24036">
        <ele>1718.23</ele>
        <time>2024-09-28T11:04:25.999Z</time>
      </trkpt>
      <trkpt lat="42.37114" lon="1.24016">
        <ele>1718.66</ele>
        <time>2024-09-28T11:04:30.999Z</time>
      </trkpt>
      <trkpt lat="42.37111" lon="1.23996">
        <ele>1719.09</ele>
        <time>2024-09-28T11:04:35.999Z</time>
      </trkpt>
      <trkpt lat="42.37109" lon="1.2398">
        <ele>1719.51</ele>
        <time>2024-09-28T11:04:40.999Z</time>
      </trkpt>
      <trkpt lat="42.37106" lon="1.23963">
        <ele>1719.93</ele>
        <time>2024-09-28T11:04:45.999Z</time>
      </trkpt>
      <trkpt lat="42.37103" lon="1.23946">
        <ele>1720.33</ele>
        <time>2024-09-28T11:04:50.999Z</time>
      </trkpt>
      <trkpt lat="42.37099" lon="1.2393">
        <ele>1720.72</ele>
        <time>2024-09-28T11:04:55.999Z</time>
      </trkpt>
      <trkpt lat="42.37094" lon="1.23914">
        <ele>1721.11</ele>
        <time>2024-09-28T11:05:00.999Z</time>
      </trkpt>
      <trkpt lat="42.37088" lon="1.23896">
        <ele>1721.5</ele>
        <time>2024-09-28T11:05:05.999Z</time>
      </trkpt>
      <trkpt lat="42.37081" lon="1.23879">
        <ele>1721.87</ele>
        <time>2024-09-28T11:05:10.999Z</time>
      </trkpt>
      <trkpt lat="42.37074" lon="1.23862">
        <ele>1722.23</ele>
        <time>2024-09-28T11:05:15.999Z</time>
      </trkpt>
      <trkpt lat="42.37066" lon="1.23844">
        <ele>1722.57</ele>
        <time>2024-09-28T11:05:20.999Z</time>
      </trkpt>
      <trkpt lat="42.37059" lon="1.23826">
        <ele>1722.89</ele>
        <time>2024-09-28T11:05:25.999Z</time>
      </trkpt>
      <trkpt lat="42.37052" lon="1.23811">
        <ele>1723.2</ele>
        <time>2024-09-28T11:05:30.999Z</time>
      </trkpt>
      <trkpt lat="42.37046" lon="1.23799">
        <ele>1723.51</ele>
        <time>2024-09-28T11:05:35.999Z</time>
      </trkpt>
      <trkpt lat="42.37037" lon="1.23788">
        <ele>1723.81</ele>
        <time>2024-09-28T11:05:40.999Z</time>
      </trkpt>
      <trkpt lat="42.37026" lon="1.23779">
        <ele>1724.13</ele>
        <time>2024-09-28T11:05:45.999Z</time>
      </trkpt>
      <trkpt lat="42.37017" lon="1.2377">
        <ele>1724.44</ele>
        <time>2024-09-28T11:05:50.999Z</time>
      </trkpt>
      <trkpt lat="42.37014" lon="1.23757">
        <ele>1725.03</ele>
        <time>2024-09-28T11:06:00.999Z</time>
      </trkpt>
      <trkpt lat="42.3701" lon="1.23741">
        <ele>1725.35</ele>
        <time>2024-09-28T11:06:05.999Z</time>
      </trkpt>
      <trkpt lat="42.37007" lon="1.23726">
        <ele>1725.67</ele>
        <time>2024-09-28T11:06:10.999Z</time>
      </trkpt>
      <trkpt lat="42.37005" lon="1.23712">
        <ele>1726</ele>
        <time>2024-09-28T11:06:15.999Z</time>
      </trkpt>
      <trkpt lat="42.37" lon="1.237">
        <ele>1727.53</ele>
        <time>2024-09-28T11:07:04.999Z</time>
      </trkpt>
      <trkpt lat="42.36992" lon="1.23704">
        <ele>1729.96</ele>
        <time>2024-09-28T11:07:54.999Z</time>
      </trkpt>
      <trkpt lat="42.36999" lon="1.23712">
        <ele>1738.23</ele>
        <time>2024-09-28T11:48:34.000Z</time>
      </trkpt>
      <trkpt lat="42.37006" lon="1.23705">
        <ele>1738.41</ele>
        <time>2024-09-28T11:51:53.999Z</time>
      </trkpt>
      <trkpt lat="42.37011" lon="1.23694">
        <ele>1738.49</ele>
        <time>2024-09-28T11:53:31.999Z</time>
      </trkpt>
      <trkpt lat="42.37007" lon="1.23705">
        <ele>1739.17</ele>
        <time>2024-09-28T11:57:25.999Z</time>
      </trkpt>
      <trkpt lat="42.37001" lon="1.23715">
        <ele>1739.32</ele>
        <time>2024-09-28T11:57:51.999Z</time>
      </trkpt>
      <trkpt lat="42.36994" lon="1.23722">
        <ele>1739.71</ele>
        <time>2024-09-28T12:00:32.999Z</time>
      </trkpt>
      <trkpt lat="42.3699" lon="1.2371">
        <ele>1739.37</ele>
        <time>2024-09-28T12:04:01.000Z</time>
      </trkpt>
      <trkpt lat="42.36999" lon="1.23707">
        <ele>1739.34</ele>
        <time>2024-09-28T12:04:27.000Z</time>
      </trkpt>
      <trkpt lat="42.36998" lon="1.23695">
        <ele>1739.25</ele>
        <time>2024-09-28T12:05:22.000Z</time>
      </trkpt>
      <trkpt lat="42.36992" lon="1.23704">
        <ele>1739.41</ele>
        <time>2024-09-28T12:06:53.000Z</time>
      </trkpt>
      <trkpt lat="42.36985" lon="1.23712">
        <ele>1739.75</ele>
        <time>2024-09-28T12:07:34.000Z</time>
      </trkpt>
      <trkpt lat="42.36994" lon="1.23715">
        <ele>1739.91</ele>
        <time>2024-09-28T12:08:44.000Z</time>
      </trkpt>
      <trkpt lat="42.37002" lon="1.23709">
        <ele>1739.34</ele>
        <time>2024-09-28T12:11:45.000Z</time>
      </trkpt>
      <trkpt lat="42.37011" lon="1.23704">
        <ele>1742.16</ele>
        <time>2024-09-28T12:18:39.999Z</time>
      </trkpt>
      <trkpt lat="42.37004" lon="1.23713">
        <ele>1742.08</ele>
        <time>2024-09-28T12:21:01.999Z</time>
      </trkpt>
      <trkpt lat="42.37013" lon="1.23711">
        <ele>1741.88</ele>
        <time>2024-09-28T12:22:40.999Z</time>
      </trkpt>
      <trkpt lat="42.37005" lon="1.23706">
        <ele>1740.96</ele>
        <time>2024-09-28T12:29:33.000Z</time>
      </trkpt>
      <trkpt lat="42.36997" lon="1.237">
        <ele>1740.7</ele>
        <time>2024-09-28T12:33:17.000Z</time>
      </trkpt>
      <trkpt lat="42.36997" lon="1.23686">
        <ele>1740.55</ele>
        <time>2024-09-28T12:33:34.000Z</time>
      </trkpt>
      <trkpt lat="42.36997" lon="1.23673">
        <ele>1740.38</ele>
        <time>2024-09-28T12:33:46.000Z</time>
      </trkpt>
      <trkpt lat="42.36998" lon="1.2366">
        <ele>1740.27</ele>
        <time>2024-09-28T12:33:57.000Z</time>
      </trkpt>
      <trkpt lat="42.37002" lon="1.23648">
        <ele>1740.21</ele>
        <time>2024-09-28T12:34:02.000Z</time>
      </trkpt>
      <trkpt lat="42.3701" lon="1.23641">
        <ele>1740.16</ele>
        <time>2024-09-28T12:34:08.000Z</time>
      </trkpt>
      <trkpt lat="42.37013" lon="1.23628">
        <ele>1740.11</ele>
        <time>2024-09-28T12:34:14.000Z</time>
      </trkpt>
      <trkpt lat="42.37018" lon="1.23607">
        <ele>1739.91</ele>
        <time>2024-09-28T12:34:19.000Z</time>
      </trkpt>
      <trkpt lat="42.37022" lon="1.23569">
        <ele>1739.73</ele>
        <time>2024-09-28T12:34:24.000Z</time>
      </trkpt>
      <trkpt lat="42.37028" lon="1.23519">
        <ele>1739.61</ele>
        <time>2024-09-28T12:34:29.000Z</time>
      </trkpt>
      <trkpt lat="42.37043" lon="1.23463">
        <ele>1739.15</ele>
        <time>2024-09-28T12:34:34.000Z</time>
      </trkpt>
      <trkpt lat="42.37065" lon="1.23407">
        <ele>1738.43</ele>
        <time>2024-09-28T12:34:39.000Z</time>
      </trkpt>
      <trkpt lat="42.37102" lon="1.23367">
        <ele>1737.55</ele>
        <time>2024-09-28T12:34:44.000Z</time>
      </trkpt>
      <trkpt lat="42.3715" lon="1.23347">
        <ele>1737.03</ele>
        <time>2024-09-28T12:34:49.000Z</time>
      </trkpt>
      <trkpt lat="42.37196" lon="1.23323">
        <ele>1736.17</ele>
        <time>2024-09-28T12:34:54.000Z</time>
      </trkpt>
      <trkpt lat="42.37235" lon="1.23282">
        <ele>1735.05</ele>
        <time>2024-09-28T12:34:59.000Z</time>
      </trkpt>
      <trkpt lat="42.37264" lon="1.23227">
        <ele>1734.03</ele>
        <time>2024-09-28T12:35:04.000Z</time>
      </trkpt>
      <trkpt lat="42.37293" lon="1.23171">
        <ele>1732.38</ele>
        <time>2024-09-28T12:35:09.000Z</time>
      </trkpt>
      <trkpt lat="42.37322" lon="1.23114">
        <ele>1730.78</ele>
        <time>2024-09-28T12:35:14.000Z</time>
      </trkpt>
      <trkpt lat="42.37348" lon="1.23052">
        <ele>1728.08</ele>
        <time>2024-09-28T12:35:19.000Z</time>
      </trkpt>
      <trkpt lat="42.37364" lon="1.22984">
        <ele>1725.26</ele>
        <time>2024-09-28T12:35:24.000Z</time>
      </trkpt>
      <trkpt lat="42.37381" lon="1.22914">
        <ele>1721.19</ele>
        <time>2024-09-28T12:35:29.000Z</time>
      </trkpt>
      <trkpt lat="42.37402" lon="1.22843">
        <ele>1717.57</ele>
        <time>2024-09-28T12:35:34.000Z</time>
      </trkpt>
      <trkpt lat="42.37423" lon="1.22771">
        <ele>1714.87</ele>
        <time>2024-09-28T12:35:39.000Z</time>
      </trkpt>
      <trkpt lat="42.37448" lon="1.22706">
        <ele>1712.41</ele>
        <time>2024-09-28T12:35:44.000Z</time>
      </trkpt>
      <trkpt lat="42.37485" lon="1.2265">
        <ele>1708.86</ele>
        <time>2024-09-28T12:35:49.000Z</time>
      </trkpt>
      <trkpt lat="42.37524" lon="1.22597">
        <ele>1705.28</ele>
        <time>2024-09-28T12:35:54.000Z</time>
      </trkpt>
      <trkpt lat="42.37564" lon="1.22544">
        <ele>1701.89</ele>
        <time>2024-09-28T12:35:59.000Z</time>
      </trkpt>
      <trkpt lat="42.37609" lon="1.22505">
        <ele>1698.76</ele>
        <time>2024-09-28T12:36:04.000Z</time>
      </trkpt>
      <trkpt lat="42.37659" lon="1.22483">
        <ele>1695.15</ele>
        <time>2024-09-28T12:36:09.000Z</time>
      </trkpt>
      <trkpt lat="42.37711" lon="1.22479">
        <ele>1690.66</ele>
        <time>2024-09-28T12:36:14.000Z</time>
      </trkpt>
      <trkpt lat="42.37762" lon="1.22459">
        <ele>1683.6</ele>
        <time>2024-09-28T12:36:19.000Z</time>
      </trkpt>
      <trkpt lat="42.37786" lon="1.22405">
        <ele>1677.49</ele>
        <time>2024-09-28T12:36:24.000Z</time>
      </trkpt>
      <trkpt lat="42.37775" lon="1.22355">
        <ele>1673.68</ele>
        <time>2024-09-28T12:36:29.000Z</time>
      </trkpt>
      <trkpt lat="42.37746" lon="1.22336">
        <ele>1672.09</ele>
        <time>2024-09-28T12:36:34.000Z</time>
      </trkpt>
      <trkpt lat="42.37723" lon="1.22319">
        <ele>1671.04</ele>
        <time>2024-09-28T12:36:39.000Z</time>
      </trkpt>
      <trkpt lat="42.37706" lon="1.22306">
        <ele>1670.09</ele>
        <time>2024-09-28T12:36:44.000Z</time>
      </trkpt>
      <trkpt lat="42.37692" lon="1.22297">
        <ele>1669.91</ele>
        <time>2024-09-28T12:36:49.000Z</time>
      </trkpt>
      <trkpt lat="42.37681" lon="1.22295">
        <ele>1669.64</ele>
        <time>2024-09-28T12:36:54.000Z</time>
      </trkpt>
      <trkpt lat="42.37671" lon="1.22293">
        <ele>1669.33</ele>
        <time>2024-09-28T12:36:59.000Z</time>
      </trkpt>
      <trkpt lat="42.3766" lon="1.22296">
        <ele>1668.99</ele>
        <time>2024-09-28T12:37:04.000Z</time>
      </trkpt>
      <trkpt lat="42.37651" lon="1.223">
        <ele>1668.65</ele>
        <time>2024-09-28T12:37:09.000Z</time>
      </trkpt>
      <trkpt lat="42.3764" lon="1.22306">
        <ele>1668.27</ele>
        <time>2024-09-28T12:37:14.000Z</time>
      </trkpt>
      <trkpt lat="42.3763" lon="1.22308">
        <ele>1667.93</ele>
        <time>2024-09-28T12:37:19.000Z</time>
      </trkpt>
      <trkpt lat="42.3762" lon="1.22304">
        <ele>1667.65</ele>
        <time>2024-09-28T12:37:24.000Z</time>
      </trkpt>
      <trkpt lat="42.3761" lon="1.22299">
        <ele>1667.38</ele>
        <time>2024-09-28T12:37:29.000Z</time>
      </trkpt>
      <trkpt lat="42.37602" lon="1.22292">
        <ele>1667.11</ele>
        <time>2024-09-28T12:37:34.000Z</time>
      </trkpt>
      <trkpt lat="42.37593" lon="1.22284">
        <ele>1666.86</ele>
        <time>2024-09-28T12:37:39.000Z</time>
      </trkpt>
      <trkpt lat="42.37586" lon="1.22275">
        <ele>1666.61</ele>
        <time>2024-09-28T12:37:44.000Z</time>
      </trkpt>
      <trkpt lat="42.37579" lon="1.22267">
        <ele>1666.38</ele>
        <time>2024-09-28T12:37:49.000Z</time>
      </trkpt>
      <trkpt lat="42.37572" lon="1.22257">
        <ele>1666.17</ele>
        <time>2024-09-28T12:37:54.000Z</time>
      </trkpt>
      <trkpt lat="42.37566" lon="1.22248">
        <ele>1665.99</ele>
        <time>2024-09-28T12:37:59.000Z</time>
      </trkpt>
      <trkpt lat="42.37559" lon="1.22238">
        <ele>1665.83</ele>
        <time>2024-09-28T12:38:04.000Z</time>
      </trkpt>
      <trkpt lat="42.37552" lon="1.22226">
        <ele>1665.69</ele>
        <time>2024-09-28T12:38:09.000Z</time>
      </trkpt>
      <trkpt lat="42.37546" lon="1.2221">
        <ele>1665.56</ele>
        <time>2024-09-28T12:38:14.999Z</time>
      </trkpt>
      <trkpt lat="42.37543" lon="1.22194">
        <ele>1665.48</ele>
        <time>2024-09-28T12:38:19.999Z</time>
      </trkpt>
      <trkpt lat="42.37542" lon="1.22178">
        <ele>1665.4</ele>
        <time>2024-09-28T12:38:24.999Z</time>
      </trkpt>
      <trkpt lat="42.37541" lon="1.22159">
        <ele>1665.35</ele>
        <time>2024-09-28T12:38:29.999Z</time>
      </trkpt>
      <trkpt lat="42.37541" lon="1.22142">
        <ele>1665.32</ele>
        <time>2024-09-28T12:38:34.999Z</time>
      </trkpt>
      <trkpt lat="42.37541" lon="1.22126">
        <ele>1665.3</ele>
        <time>2024-09-28T12:38:39.999Z</time>
      </trkpt>
      <trkpt lat="42.37541" lon="1.2211">
        <ele>1665.29</ele>
        <time>2024-09-28T12:38:44.999Z</time>
      </trkpt>
      <trkpt lat="42.3754" lon="1.22094">
        <ele>1665.3</ele>
        <time>2024-09-28T12:38:49.999Z</time>
      </trkpt>
      <trkpt lat="42.37538" lon="1.22078">
        <ele>1665.32</ele>
        <time>2024-09-28T12:38:54.999Z</time>
      </trkpt>
      <trkpt lat="42.37538" lon="1.22063">
        <ele>1665.35</ele>
        <time>2024-09-28T12:38:59.999Z</time>
      </trkpt>
      <trkpt lat="42.37537" lon="1.22047">
        <ele>1665.38</ele>
        <time>2024-09-28T12:39:04.999Z</time>
      </trkpt>
      <trkpt lat="42.37534" lon="1.22031">
        <ele>1665.42</ele>
        <time>2024-09-28T12:39:09.999Z</time>
      </trkpt>
      <trkpt lat="42.37531" lon="1.22016">
        <ele>1665.45</ele>
        <time>2024-09-28T12:39:14.999Z</time>
      </trkpt>
      <trkpt lat="42.37529" lon="1.22">
        <ele>1665.5</ele>
        <time>2024-09-28T12:39:19.999Z</time>
      </trkpt>
      <trkpt lat="42.37525" lon="1.21984">
        <ele>1665.56</ele>
        <time>2024-09-28T12:39:24.999Z</time>
      </trkpt>
      <trkpt lat="42.37523" lon="1.21966">
        <ele>1665.64</ele>
        <time>2024-09-28T12:39:29.999Z</time>
      </trkpt>
      <trkpt lat="42.37523" lon="1.21947">
        <ele>1665.72</ele>
        <time>2024-09-28T12:39:34.999Z</time>
      </trkpt>
      <trkpt lat="42.37523" lon="1.21918">
        <ele>1666.28</ele>
        <time>2024-09-28T12:39:39.999Z</time>
      </trkpt>
      <trkpt lat="42.37527" lon="1.21883">
        <ele>1666.55</ele>
        <time>2024-09-28T12:39:44.999Z</time>
      </trkpt>
      <trkpt lat="42.37531" lon="1.21841">
        <ele>1666.84</ele>
        <time>2024-09-28T12:39:49.999Z</time>
      </trkpt>
      <trkpt lat="42.37539" lon="1.2179">
        <ele>1667.27</ele>
        <time>2024-09-28T12:39:54.999Z</time>
      </trkpt>
      <trkpt lat="42.37536" lon="1.21734">
        <ele>1667.54</ele>
        <time>2024-09-28T12:39:59.999Z</time>
      </trkpt>
      <trkpt lat="42.37515" lon="1.2169">
        <ele>1667.68</ele>
        <time>2024-09-28T12:40:04.999Z</time>
      </trkpt>
      <trkpt lat="42.37495" lon="1.21653">
        <ele>1667.88</ele>
        <time>2024-09-28T12:40:09.999Z</time>
      </trkpt>
      <trkpt lat="42.37475" lon="1.2162">
        <ele>1668.06</ele>
        <time>2024-09-28T12:40:14.999Z</time>
      </trkpt>
      <trkpt lat="42.37456" lon="1.21583">
        <ele>1667.9</ele>
        <time>2024-09-28T12:40:19.999Z</time>
      </trkpt>
      <trkpt lat="42.37449" lon="1.2154">
        <ele>1667.63</ele>
        <time>2024-09-28T12:40:24.999Z</time>
      </trkpt>
      <trkpt lat="42.37459" lon="1.21499">
        <ele>1667.44</ele>
        <time>2024-09-28T12:40:29.999Z</time>
      </trkpt>
      <trkpt lat="42.37472" lon="1.21465">
        <ele>1666.94</ele>
        <time>2024-09-28T12:40:34.999Z</time>
      </trkpt>
      <trkpt lat="42.3748" lon="1.21424">
        <ele>1666.18</ele>
        <time>2024-09-28T12:40:39.999Z</time>
      </trkpt>
      <trkpt lat="42.37483" lon="1.21374">
        <ele>1665.13</ele>
        <time>2024-09-28T12:40:44.999Z</time>
      </trkpt>
      <trkpt lat="42.37483" lon="1.21316">
        <ele>1664.11</ele>
        <time>2024-09-28T12:40:49.999Z</time>
      </trkpt>
      <trkpt lat="42.37486" lon="1.21255">
        <ele>1663.17</ele>
        <time>2024-09-28T12:40:54.999Z</time>
      </trkpt>
      <trkpt lat="42.37489" lon="1.21193">
        <ele>1662.37</ele>
        <time>2024-09-28T12:40:59.999Z</time>
      </trkpt>
      <trkpt lat="42.37494" lon="1.21128">
        <ele>1661.69</ele>
        <time>2024-09-28T12:41:04.999Z</time>
      </trkpt>
      <trkpt lat="42.37499" lon="1.21063">
        <ele>1661.06</ele>
        <time>2024-09-28T12:41:09.999Z</time>
      </trkpt>
      <trkpt lat="42.37504" lon="1.20996">
        <ele>1660.77</ele>
        <time>2024-09-28T12:41:14.999Z</time>
      </trkpt>
      <trkpt lat="42.3751" lon="1.20928">
        <ele>1659.78</ele>
        <time>2024-09-28T12:41:19.999Z</time>
      </trkpt>
      <trkpt lat="42.37513" lon="1.20856">
        <ele>1657.98</ele>
        <time>2024-09-28T12:41:24.999Z</time>
      </trkpt>
      <trkpt lat="42.37517" lon="1.20781">
        <ele>1656.22</ele>
        <time>2024-09-28T12:41:29.999Z</time>
      </trkpt>
      <trkpt lat="42.37522" lon="1.20707">
        <ele>1654.33</ele>
        <time>2024-09-28T12:41:34.999Z</time>
      </trkpt>
      <trkpt lat="42.3751" lon="1.20639">
        <ele>1651.2</ele>
        <time>2024-09-28T12:41:39.999Z</time>
      </trkpt>
      <trkpt lat="42.37468" lon="1.20603">
        <ele>1646.55</ele>
        <time>2024-09-28T12:41:44.999Z</time>
      </trkpt>
      <trkpt lat="42.37416" lon="1.20603">
        <ele>1643.58</ele>
        <time>2024-09-28T12:41:49.999Z</time>
      </trkpt>
      <trkpt lat="42.37363" lon="1.20605">
        <ele>1639.83</ele>
        <time>2024-09-28T12:41:54.999Z</time>
      </trkpt>
      <trkpt lat="42.37317" lon="1.20574">
        <ele>1635.46</ele>
        <time>2024-09-28T12:41:59.999Z</time>
      </trkpt>
      <trkpt lat="42.37302" lon="1.20504">
        <ele>1632.13</ele>
        <time>2024-09-28T12:42:04.999Z</time>
      </trkpt>
      <trkpt lat="42.37296" lon="1.20429">
        <ele>1630.09</ele>
        <time>2024-09-28T12:42:09.999Z</time>
      </trkpt>
      <trkpt lat="42.37307" lon="1.20354">
        <ele>1627.7</ele>
        <time>2024-09-28T12:42:14.999Z</time>
      </trkpt>
      <trkpt lat="42.3732" lon="1.20281">
        <ele>1625.16</ele>
        <time>2024-09-28T12:42:19.999Z</time>
      </trkpt>
      <trkpt lat="42.37285" lon="1.20227">
        <ele>1622.24</ele>
        <time>2024-09-28T12:42:24.999Z</time>
      </trkpt>
      <trkpt lat="42.37231" lon="1.20242">
        <ele>1619.41</ele>
        <time>2024-09-28T12:42:29.999Z</time>
      </trkpt>
      <trkpt lat="42.37211" lon="1.20312">
        <ele>1616.07</ele>
        <time>2024-09-28T12:42:34.999Z</time>
      </trkpt>
      <trkpt lat="42.37211" lon="1.2039">
        <ele>1613.33</ele>
        <time>2024-09-28T12:42:39.999Z</time>
      </trkpt>
      <trkpt lat="42.37209" lon="1.20468">
        <ele>1610.86</ele>
        <time>2024-09-28T12:42:44.999Z</time>
      </trkpt>
      <trkpt lat="42.37203" lon="1.20546">
        <ele>1608.61</ele>
        <time>2024-09-28T12:42:49.999Z</time>
      </trkpt>
      <trkpt lat="42.37196" lon="1.20619">
        <ele>1606.3</ele>
        <time>2024-09-28T12:42:54.999Z</time>
      </trkpt>
      <trkpt lat="42.37211" lon="1.20683">
        <ele>1603.62</ele>
        <time>2024-09-28T12:42:59.999Z</time>
      </trkpt>
      <trkpt lat="42.37244" lon="1.20739">
        <ele>1600.97</ele>
        <time>2024-09-28T12:43:04.999Z</time>
      </trkpt>
      <trkpt lat="42.37281" lon="1.20797">
        <ele>1598.47</ele>
        <time>2024-09-28T12:43:09.999Z</time>
      </trkpt>
      <trkpt lat="42.37302" lon="1.20867">
        <ele>1594.67</ele>
        <time>2024-09-28T12:43:14.999Z</time>
      </trkpt>
      <trkpt lat="42.37272" lon="1.20941">
        <ele>1586.83</ele>
        <time>2024-09-28T12:43:19.999Z</time>
      </trkpt>
      <trkpt lat="42.37246" lon="1.21025">
        <ele>1580.92</ele>
        <time>2024-09-28T12:43:24.999Z</time>
      </trkpt>
      <trkpt lat="42.37221" lon="1.21112">
        <ele>1577.27</ele>
        <time>2024-09-28T12:43:29.999Z</time>
      </trkpt>
      <trkpt lat="42.37199" lon="1.21189">
        <ele>1573.87</ele>
        <time>2024-09-28T12:43:34.999Z</time>
      </trkpt>
      <trkpt lat="42.37149" lon="1.21205">
        <ele>1568.31</ele>
        <time>2024-09-28T12:43:39.999Z</time>
      </trkpt>
      <trkpt lat="42.37116" lon="1.21147">
        <ele>1563.05</ele>
        <time>2024-09-28T12:43:44.999Z</time>
      </trkpt>
      <trkpt lat="42.37132" lon="1.21075">
        <ele>1556.67</ele>
        <time>2024-09-28T12:43:49.999Z</time>
      </trkpt>
      <trkpt lat="42.37147" lon="1.21022">
        <ele>1549.63</ele>
        <time>2024-09-28T12:43:54.999Z</time>
      </trkpt>
      <trkpt lat="42.37149" lon="1.21007">
        <ele>1548.65</ele>
        <time>2024-09-28T12:44:08.999Z</time>
      </trkpt>
      <trkpt lat="42.37142" lon="1.21014">
        <ele>1547.65</ele>
        <time>2024-09-28T12:44:14.999Z</time>
      </trkpt>
      <trkpt lat="42.3715" lon="1.21002">
        <ele>1538.7</ele>
        <time>2024-09-28T12:47:25.999Z</time>
      </trkpt>
      <trkpt lat="42.37154" lon="1.20972">
        <ele>1530.36</ele>
        <time>2024-09-28T12:47:30.999Z</time>
      </trkpt>
      <trkpt lat="42.37148" lon="1.20932">
        <ele>1525.9</ele>
        <time>2024-09-28T12:47:35.999Z</time>
      </trkpt>
      <trkpt lat="42.37133" lon="1.20887">
        <ele>1524.23</ele>
        <time>2024-09-28T12:47:40.999Z</time>
      </trkpt>
      <trkpt lat="42.37108" lon="1.20838">
        <ele>1523.24</ele>
        <time>2024-09-28T12:47:45.999Z</time>
      </trkpt>
      <trkpt lat="42.37074" lon="1.20789">
        <ele>1521.69</ele>
        <time>2024-09-28T12:47:50.999Z</time>
      </trkpt>
      <trkpt lat="42.37036" lon="1.20737">
        <ele>1520.04</ele>
        <time>2024-09-28T12:47:55.999Z</time>
      </trkpt>
      <trkpt lat="42.36996" lon="1.20684">
        <ele>1518.37</ele>
        <time>2024-09-28T12:48:00.999Z</time>
      </trkpt>
      <trkpt lat="42.36964" lon="1.2062">
        <ele>1516.02</ele>
        <time>2024-09-28T12:48:05.999Z</time>
      </trkpt>
      <trkpt lat="42.36955" lon="1.20538">
        <ele>1512.21</ele>
        <time>2024-09-28T12:48:10.999Z</time>
      </trkpt>
      <trkpt lat="42.36974" lon="1.20457">
        <ele>1508.13</ele>
        <time>2024-09-28T12:48:15.999Z</time>
      </trkpt>
      <trkpt lat="42.36993" lon="1.20379">
        <ele>1504.04</ele>
        <time>2024-09-28T12:48:20.999Z</time>
      </trkpt>
      <trkpt lat="42.36998" lon="1.20294">
        <ele>1498.75</ele>
        <time>2024-09-28T12:48:25.999Z</time>
      </trkpt>
      <trkpt lat="42.36997" lon="1.20208">
        <ele>1494.4</ele>
        <time>2024-09-28T12:48:30.999Z</time>
      </trkpt>
      <trkpt lat="42.37" lon="1.20119">
        <ele>1492.51</ele>
        <time>2024-09-28T12:48:35.999Z</time>
      </trkpt>
      <trkpt lat="42.37017" lon="1.20028">
        <ele>1489.73</ele>
        <time>2024-09-28T12:48:40.999Z</time>
      </trkpt>
      <trkpt lat="42.37043" lon="1.1994">
        <ele>1486.12</ele>
        <time>2024-09-28T12:48:45.999Z</time>
      </trkpt>
      <trkpt lat="42.3707" lon="1.19852">
        <ele>1482.73</ele>
        <time>2024-09-28T12:48:50.999Z</time>
      </trkpt>
      <trkpt lat="42.3709" lon="1.19764">
        <ele>1479.5</ele>
        <time>2024-09-28T12:48:55.999Z</time>
      </trkpt>
      <trkpt lat="42.371" lon="1.19673">
        <ele>1476.35</ele>
        <time>2024-09-28T12:49:00.999Z</time>
      </trkpt>
      <trkpt lat="42.37111" lon="1.19582">
        <ele>1471.26</ele>
        <time>2024-09-28T12:49:05.999Z</time>
      </trkpt>
      <trkpt lat="42.37144" lon="1.195">
        <ele>1460.38</ele>
        <time>2024-09-28T12:49:10.999Z</time>
      </trkpt>
      <trkpt lat="42.37181" lon="1.19423">
        <ele>1452.39</ele>
        <time>2024-09-28T12:49:15.999Z</time>
      </trkpt>
      <trkpt lat="42.372" lon="1.19338">
        <ele>1448.71</ele>
        <time>2024-09-28T12:49:20.999Z</time>
      </trkpt>
      <trkpt lat="42.37224" lon="1.19259">
        <ele>1445.5</ele>
        <time>2024-09-28T12:49:25.999Z</time>
      </trkpt>
      <trkpt lat="42.37269" lon="1.19196">
        <ele>1442.34</ele>
        <time>2024-09-28T12:49:30.999Z</time>
      </trkpt>
      <trkpt lat="42.37316" lon="1.19158">
        <ele>1438.15</ele>
        <time>2024-09-28T12:49:35.999Z</time>
      </trkpt>
      <trkpt lat="42.37365" lon="1.19174">
        <ele>1434.65</ele>
        <time>2024-09-28T12:49:40.999Z</time>
      </trkpt>
      <trkpt lat="42.37405" lon="1.19211">
        <ele>1430.04</ele>
        <time>2024-09-28T12:49:45.999Z</time>
      </trkpt>
      <trkpt lat="42.3744" lon="1.19249">
        <ele>1424.96</ele>
        <time>2024-09-28T12:49:50.999Z</time>
      </trkpt>
      <trkpt lat="42.37474" lon="1.19289">
        <ele>1420.57</ele>
        <time>2024-09-28T12:49:55.999Z</time>
      </trkpt>
      <trkpt lat="42.37517" lon="1.19308">
        <ele>1416.92</ele>
        <time>2024-09-28T12:50:00.999Z</time>
      </trkpt>
      <trkpt lat="42.37559" lon="1.19288">
        <ele>1413.45</ele>
        <time>2024-09-28T12:50:05.999Z</time>
      </trkpt>
      <trkpt lat="42.37588" lon="1.19243">
        <ele>1409.99</ele>
        <time>2024-09-28T12:50:10.999Z</time>
      </trkpt>
      <trkpt lat="42.37591" lon="1.19184">
        <ele>1406.71</ele>
        <time>2024-09-28T12:50:15.999Z</time>
      </trkpt>
      <trkpt lat="42.37574" lon="1.19129">
        <ele>1403.69</ele>
        <time>2024-09-28T12:50:20.999Z</time>
      </trkpt>
      <trkpt lat="42.37553" lon="1.19077">
        <ele>1401.28</ele>
        <time>2024-09-28T12:50:25.999Z</time>
      </trkpt>
      <trkpt lat="42.37522" lon="1.19032">
        <ele>1398.23</ele>
        <time>2024-09-28T12:50:31.000Z</time>
      </trkpt>
      <trkpt lat="42.37476" lon="1.19006">
        <ele>1394.08</ele>
        <time>2024-09-28T12:50:36.000Z</time>
      </trkpt>
      <trkpt lat="42.37426" lon="1.18987">
        <ele>1390.08</ele>
        <time>2024-09-28T12:50:41.000Z</time>
      </trkpt>
      <trkpt lat="42.37377" lon="1.18966">
        <ele>1385.98</ele>
        <time>2024-09-28T12:50:46.000Z</time>
      </trkpt>
      <trkpt lat="42.37347" lon="1.18915">
        <ele>1382.28</ele>
        <time>2024-09-28T12:50:51.000Z</time>
      </trkpt>
      <trkpt lat="42.37343" lon="1.18836">
        <ele>1379.47</ele>
        <time>2024-09-28T12:50:56.000Z</time>
      </trkpt>
      <trkpt lat="42.37342" lon="1.1875">
        <ele>1377.01</ele>
        <time>2024-09-28T12:51:01.000Z</time>
      </trkpt>
      <trkpt lat="42.37343" lon="1.18665">
        <ele>1375.24</ele>
        <time>2024-09-28T12:51:06.000Z</time>
      </trkpt>
      <trkpt lat="42.37345" lon="1.18588">
        <ele>1373.8</ele>
        <time>2024-09-28T12:51:11.000Z</time>
      </trkpt>
      <trkpt lat="42.37354" lon="1.18518">
        <ele>1372.22</ele>
        <time>2024-09-28T12:51:16.000Z</time>
      </trkpt>
      <trkpt lat="42.37371" lon="1.18457">
        <ele>1369.78</ele>
        <time>2024-09-28T12:51:21.000Z</time>
      </trkpt>
      <trkpt lat="42.37394" lon="1.18403">
        <ele>1366.36</ele>
        <time>2024-09-28T12:51:26.000Z</time>
      </trkpt>
      <trkpt lat="42.37421" lon="1.18357">
        <ele>1363.69</ele>
        <time>2024-09-28T12:51:31.000Z</time>
      </trkpt>
      <trkpt lat="42.37447" lon="1.18311">
        <ele>1361.16</ele>
        <time>2024-09-28T12:51:36.000Z</time>
      </trkpt>
      <trkpt lat="42.37463" lon="1.18255">
        <ele>1358.4</ele>
        <time>2024-09-28T12:51:41.000Z</time>
      </trkpt>
      <trkpt lat="42.37458" lon="1.18195">
        <ele>1356</ele>
        <time>2024-09-28T12:51:46.000Z</time>
      </trkpt>
      <trkpt lat="42.37444" lon="1.18139">
        <ele>1354.04</ele>
        <time>2024-09-28T12:51:51.000Z</time>
      </trkpt>
      <trkpt lat="42.37428" lon="1.18086">
        <ele>1352.15</ele>
        <time>2024-09-28T12:51:56.000Z</time>
      </trkpt>
      <trkpt lat="42.37417" lon="1.18077">
        <ele>1351.7</ele>
        <time>2024-09-28T12:52:01.000Z</time>
      </trkpt>
      <trkpt lat="42.37418" lon="1.1809">
        <ele>1350.58</ele>
        <time>2024-09-28T12:52:44.000Z</time>
      </trkpt>
      <trkpt lat="42.37422" lon="1.18106">
        <ele>1349.8</ele>
        <time>2024-09-28T12:52:49.000Z</time>
      </trkpt>
      <trkpt lat="42.37425" lon="1.18137">
        <ele>1344.21</ele>
        <time>2024-09-28T12:52:54.000Z</time>
      </trkpt>
      <trkpt lat="42.37433" lon="1.18183">
        <ele>1341.24</ele>
        <time>2024-09-28T12:52:59.000Z</time>
      </trkpt>
      <trkpt lat="42.37444" lon="1.18231">
        <ele>1339.3</ele>
        <time>2024-09-28T12:53:04.000Z</time>
      </trkpt>
      <trkpt lat="42.37424" lon="1.18236">
        <ele>1337.82</ele>
        <time>2024-09-28T12:53:09.000Z</time>
      </trkpt>
      <trkpt lat="42.3738" lon="1.1824">
        <ele>1336.3</ele>
        <time>2024-09-28T12:53:14.000Z</time>
      </trkpt>
      <trkpt lat="42.37342" lon="1.18284">
        <ele>1333.48</ele>
        <time>2024-09-28T12:53:19.000Z</time>
      </trkpt>
      <trkpt lat="42.37308" lon="1.18334">
        <ele>1330.95</ele>
        <time>2024-09-28T12:53:24.000Z</time>
      </trkpt>
      <trkpt lat="42.37281" lon="1.1839">
        <ele>1328.7</ele>
        <time>2024-09-28T12:53:29.000Z</time>
      </trkpt>
      <trkpt lat="42.37267" lon="1.18448">
        <ele>1327.52</ele>
        <time>2024-09-28T12:53:34.000Z</time>
      </trkpt>
      <trkpt lat="42.37259" lon="1.18499">
        <ele>1326.46</ele>
        <time>2024-09-28T12:53:39.000Z</time>
      </trkpt>
      <trkpt lat="42.37251" lon="1.18547">
        <ele>1324.97</ele>
        <time>2024-09-28T12:53:44.000Z</time>
      </trkpt>
      <trkpt lat="42.37244" lon="1.18589">
        <ele>1323.4</ele>
        <time>2024-09-28T12:53:49.000Z</time>
      </trkpt>
      <trkpt lat="42.37237" lon="1.18625">
        <ele>1322.07</ele>
        <time>2024-09-28T12:53:54.000Z</time>
      </trkpt>
      <trkpt lat="42.37231" lon="1.18658">
        <ele>1320.7</ele>
        <time>2024-09-28T12:53:59.000Z</time>
      </trkpt>
      <trkpt lat="42.3723" lon="1.18691">
        <ele>1318.94</ele>
        <time>2024-09-28T12:54:04.000Z</time>
      </trkpt>
      <trkpt lat="42.37233" lon="1.18722">
        <ele>1317.32</ele>
        <time>2024-09-28T12:54:09.000Z</time>
      </trkpt>
      <trkpt lat="42.37238" lon="1.18749">
        <ele>1316.1</ele>
        <time>2024-09-28T12:54:14.000Z</time>
      </trkpt>
      <trkpt lat="42.37242" lon="1.1878">
        <ele>1315.26</ele>
        <time>2024-09-28T12:54:19.000Z</time>
      </trkpt>
      <trkpt lat="42.37247" lon="1.1881">
        <ele>1314.66</ele>
        <time>2024-09-28T12:54:24.000Z</time>
      </trkpt>
      <trkpt lat="42.3725" lon="1.18841">
        <ele>1314.41</ele>
        <time>2024-09-28T12:54:29.000Z</time>
      </trkpt>
      <trkpt lat="42.3725" lon="1.18864">
        <ele>1314.39</ele>
        <time>2024-09-28T12:54:34.000Z</time>
      </trkpt>
      <trkpt lat="42.37249" lon="1.18886">
        <ele>1314.35</ele>
        <time>2024-09-28T12:54:39.000Z</time>
      </trkpt>
      <trkpt lat="42.37245" lon="1.18907">
        <ele>1314.3</ele>
        <time>2024-09-28T12:54:44.000Z</time>
      </trkpt>
      <trkpt lat="42.37245" lon="1.18929">
        <ele>1314.26</ele>
        <time>2024-09-28T12:54:49.000Z</time>
      </trkpt>
      <trkpt lat="42.37247" lon="1.18954">
        <ele>1314.24</ele>
        <time>2024-09-28T12:54:54.000Z</time>
      </trkpt>
      <trkpt lat="42.37245" lon="1.18978">
        <ele>1314.22</ele>
        <time>2024-09-28T12:54:59.000Z</time>
      </trkpt>
      <trkpt lat="42.37241" lon="1.18995">
        <ele>1314.24</ele>
        <time>2024-09-28T12:55:04.000Z</time>
      </trkpt>
      <trkpt lat="42.37236" lon="1.19012">
        <ele>1314.3</ele>
        <time>2024-09-28T12:55:09.000Z</time>
      </trkpt>
      <trkpt lat="42.37227" lon="1.19018">
        <ele>1314.43</ele>
        <time>2024-09-28T12:55:14.000Z</time>
      </trkpt>
      <trkpt lat="42.37218" lon="1.19022">
        <ele>1314.74</ele>
        <time>2024-09-28T12:55:21.000Z</time>
      </trkpt>
      <trkpt lat="42.37208" lon="1.19022">
        <ele>1315.09</ele>
        <time>2024-09-28T12:55:27.000Z</time>
      </trkpt>
      <trkpt lat="42.37198" lon="1.1902">
        <ele>1315.63</ele>
        <time>2024-09-28T12:55:34.000Z</time>
      </trkpt>
      <trkpt lat="42.37188" lon="1.19015">
        <ele>1316.14</ele>
        <time>2024-09-28T12:55:40.000Z</time>
      </trkpt>
      <trkpt lat="42.37179" lon="1.19008">
        <ele>1316.59</ele>
        <time>2024-09-28T12:55:46.000Z</time>
      </trkpt>
      <trkpt lat="42.37172" lon="1.18999">
        <ele>1316.9</ele>
        <time>2024-09-28T12:55:51.000Z</time>
      </trkpt>
      <trkpt lat="42.37163" lon="1.18991">
        <ele>1317.17</ele>
        <time>2024-09-28T12:55:56.000Z</time>
      </trkpt>
      <trkpt lat="42.37154" lon="1.18985">
        <ele>1317.47</ele>
        <time>2024-09-28T12:56:02.000Z</time>
      </trkpt>
      <trkpt lat="42.37144" lon="1.1898">
        <ele>1317.79</ele>
        <time>2024-09-28T12:56:07.000Z</time>
      </trkpt>
      <trkpt lat="42.37132" lon="1.18973">
        <ele>1318.18</ele>
        <time>2024-09-28T12:56:12.000Z</time>
      </trkpt>
      <trkpt lat="42.37117" lon="1.18966">
        <ele>1318.64</ele>
        <time>2024-09-28T12:56:17.000Z</time>
      </trkpt>
      <trkpt lat="42.37107" lon="1.18962">
        <ele>1319.08</ele>
        <time>2024-09-28T12:56:22.000Z</time>
      </trkpt>
      <trkpt lat="42.37095" lon="1.18957">
        <ele>1319.43</ele>
        <time>2024-09-28T12:56:27.000Z</time>
      </trkpt>
      <trkpt lat="42.37074" lon="1.18955">
        <ele>1321.19</ele>
        <time>2024-09-28T12:56:32.000Z</time>
      </trkpt>
      <trkpt lat="42.37044" lon="1.18959">
        <ele>1321.31</ele>
        <time>2024-09-28T12:56:37.000Z</time>
      </trkpt>
      <trkpt lat="42.37009" lon="1.18953">
        <ele>1320.75</ele>
        <time>2024-09-28T12:56:42.000Z</time>
      </trkpt>
      <trkpt lat="42.3698" lon="1.1896">
        <ele>1320.23</ele>
        <time>2024-09-28T12:56:47.000Z</time>
      </trkpt>
      <trkpt lat="42.36966" lon="1.1898">
        <ele>1320.13</ele>
        <time>2024-09-28T12:56:52.000Z</time>
      </trkpt>
      <trkpt lat="42.36957" lon="1.18992">
        <ele>1320.1</ele>
        <time>2024-09-28T12:56:57.000Z</time>
      </trkpt>
      <trkpt lat="42.3695" lon="1.19">
        <ele>1319.68</ele>
        <time>2024-09-28T12:57:15.000Z</time>
      </trkpt>
      <trkpt lat="42.36946" lon="1.19012">
        <ele>1319.48</ele>
        <time>2024-09-28T12:57:20.000Z</time>
      </trkpt>
      <trkpt lat="42.36946" lon="1.19024">
        <ele>1319.27</ele>
        <time>2024-09-28T12:57:32.000Z</time>
      </trkpt>
      <trkpt lat="42.36944" lon="1.19037">
        <ele>1319.16</ele>
        <time>2024-09-28T12:57:37.000Z</time>
      </trkpt>
      <trkpt lat="42.36941" lon="1.19051">
        <ele>1319.06</ele>
        <time>2024-09-28T12:57:42.000Z</time>
      </trkpt>
      <trkpt lat="42.36943" lon="1.19036">
        <ele>1318.86</ele>
        <time>2024-09-28T12:57:55.000Z</time>
      </trkpt>
      <trkpt lat="42.36945" lon="1.19022">
        <ele>1318.77</ele>
        <time>2024-09-28T12:58:00.000Z</time>
      </trkpt>
      <trkpt lat="42.36948" lon="1.1901">
        <ele>1318.68</ele>
        <time>2024-09-28T12:58:06.000Z</time>
      </trkpt>
      <trkpt lat="42.36953" lon="1.18998">
        <ele>1318.58</ele>
        <time>2024-09-28T12:58:13.000Z</time>
      </trkpt>
      <trkpt lat="42.36945" lon="1.19007">
        <ele>1318.25</ele>
        <time>2024-09-28T12:58:46.000Z</time>
      </trkpt>
      <trkpt lat="42.36954" lon="1.19">
        <ele>1317.37</ele>
        <time>2024-09-28T13:00:38.000Z</time>
      </trkpt>
      <trkpt lat="42.36963" lon="1.18992">
        <ele>1317.06</ele>
        <time>2024-09-28T13:01:06.000Z</time>
      </trkpt>
      <trkpt lat="42.36971" lon="1.18989">
        <ele>1316.92</ele>
        <time>2024-09-28T13:01:12.000Z</time>
      </trkpt>
      <trkpt lat="42.36981" lon="1.18991">
        <ele>1316.78</ele>
        <time>2024-09-28T13:01:19.000Z</time>
      </trkpt>
      <trkpt lat="42.36986" lon="1.19003">
        <ele>1316.65</ele>
        <time>2024-09-28T13:01:26.000Z</time>
      </trkpt>
      <trkpt lat="42.36995" lon="1.19006">
        <ele>1316.53</ele>
        <time>2024-09-28T13:01:34.000Z</time>
      </trkpt>
      <trkpt lat="42.37004" lon="1.19002">
        <ele>1316.46</ele>
        <time>2024-09-28T13:01:41.000Z</time>
      </trkpt>
      <trkpt lat="42.37" lon="1.19015">
        <ele>1316.32</ele>
        <time>2024-09-28T13:04:49.999Z</time>
      </trkpt>
    </trkseg>
  </trk>
</gpx>